[[{"header":{"parameterUnit":"m.s-1","parameterCategory":1,"la1":30.6,"la2":28.766,"lo1":-90.7593,"lo2":-88.6598,"dy":0.0162,"dx":0.0183,"nx":116,"ny":114,"refTime":"2023-09-04T12:00:00:Z","depth":0,"parameterNumber":2,"parameterNumberName":"U-component_of_WINDS"},"data":[0.0,0.0,0.0,0.0,0.0,0.0,0.0,0.0,0.0,0.0,0.0,0.0,0.0,0.0,0.0,0.0,0.0,0.0,0.0,0.0,0.0,0.0,0.0,0.0,0.0,0.0,0.0,0.0,0.0,0.0,0.0,0.0,0.0,0.0,0.0,0.0,0.0,0.0,0.0,0.0,0.0,0.0,0.0,0.0,0.0,0.0,0.0,0.0,0.0,0.0,0.0,0.0,0.0,0.0,0.0,0.0,0.0,0.0,0.0,0.0,0.0,0.0,0.0,0.0,0.0,0.0,0.0,0.0,0.0,0.0,0.0,0.0,0.0,0.0,0.0,0.0,0.0,0.0,0.0,0.0,0.0,0.0,0.0,0.0,0.0,0.0,0.0,0.0,0.0,0.0,0.0,0.0,0.0,0.0,0.0,0.0,0.0,0.0,0.0,0.0,0.0,0.0,0.0,0.0,0.0,0.0,0.0,0.0,0.0,0.0,0.0,0.0,0.0,0.0,0.0,0.0,0.0,0.0,0.0,0.0,0.0,0.0,0.0,0.0,0.0,0.0,0.0,0.0,0.0,0.0,0.0,0.0,0.0,0.0,0.0,0.0,0.0,0.0,0.0,0.0,0.0,0.0,0.0,0.0,0.0,0.0,0.0,0.0,0.0,0.0,0.0,0.0,0.0,0.0,0.0,0.0,0.0,0.0,0.0,0.0,0.0,0.0,0.0,0.0,0.0,0.0,0.0,0.0,0.0,0.0,0.0,0.0,0.0,0.0,0.0,0.0,0.0,0.0,0.0,0.0,0.0,0.0,0.0,0.0,0.0,0.0,0.0,0.0,0.0,0.0,0.0,0.0,0.0,0.0,0.0,0.0,0.0,0.0,0.0,0.0,0.0,0.0,0.0,0.0,0.0,0.0,0.0,0.0,0.0,0.0,0.0,0.0,0.0,0.0,0.0,0.0,0.0,0.0,0.0,0.0,0.0,0.0,0.0,0.0,0.0,0.0,0.0,0.0,0.0,0.0,0.0,0.0,0.0,0.0,0.0,0.0,0.0,0.0,0.0,0.0,0.0,0.0,0.0,0.0,0.0,0.0,0.0,0.0,0.0,0.0,0.0,0.0,0.0,0.0,0.0,0.0,0.0,0.0,0.0,0.0,0.0,0.0,0.0,0.0,0.0,0.0,0.0,0.0,0.0,0.0,0.0,0.0,0.0,0.0,0.0,0.0,0.0,0.0,0.0,0.0,0.0,0.0,0.0,0.0,0.0,0.0,0.0,0.0,0.0,0.0,0.0,0.0,0.0,0.0,0.0,0.0,0.0,0.0,0.0,0.0,0.0,0.0,0.0,0.0,0.0,0.0,0.0,0.0,0.0,0.0,0.0,0.0,0.0,0.0,0.0,0.0,0.0,0.0,0.0,0.0,0.0,0.0,0.0,0.0,0.0,0.0,0.0,0.0,0.0,0.0,0.0,0.0,0.0,0.0,0.0,0.0,0.0,0.0,0.0,0.0,0.0,0.0,0.0,0.0,0.0,0.0,0.0,0.0,0.0,0.0,0.0,0.0,0.0,0.0,0.0,0.0,0.0,0.0,0.0,0.0,0.0,0.0,0.0,0.0,0.0,0.0,0.0,0.0,0.0,0.0,0.0,0.0,0.0,0.0,0.0,0.0,0.0,0.0,0.0,0.0,0.0,0.0,0.0,0.0,0.0,0.0,0.0,0.0,0.0,0.0,0.0,0.0,0.0,0.0,0.0,0.0,0.0,0.0,0.0,0.0,0.0,0.0,0.0,0.0,0.0,0.0,0.0,0.0,0.0,0.0,0.0,0.0,0.0,0.0,0.0,0.0,0.0,0.0,0.0,0.0,0.0,0.0,0.0,0.0,0.0,0.0,0.0,0.0,0.0,0.0,0.0,0.0,0.0,0.0,0.0,0.0,0.0,0.0,0.0,0.0,0.0,0.0,0.0,0.0,0.0,0.0,0.0,0.0,0.0,0.0,0.0,0.0,0.0,0.0,0.0,0.0,0.0,0.0,0.0,0.0,0.0,0.0,0.0,0.0,0.0,0.0,0.0,0.0,0.0,0.0,0.0,0.0,0.0,0.0,0.0,0.0,0.0,0.0,0.0,0.0,0.0,0.0,0.0,0.0,0.0,0.0,0.0,0.0,0.0,0.0,0.0,0.0,0.0,0.0,0.0,0.0,0.0,0.0,0.0,0.0,0.0,0.0,0.0,0.0,0.0,0.0,0.0,0.0,0.0,0.0,0.0,0.0,0.0,0.0,0.0,0.0,0.0,0.0,0.0,0.0,0.0,0.0,0.0,0.0,0.0,0.0,0.0,0.0,0.0,0.0,0.0,0.0,0.0,0.0,0.0,0.0,0.0,0.0,0.0,0.0,0.0,0.0,0.0,0.0,0.0,0.0,0.0,0.0,0.0,0.0,0.0,0.0,0.0,0.0,0.0,0.0,0.0,0.0,0.0,0.0,0.0,0.0,0.0,0.0,0.0,0.0,0.0,0.0,0.0,0.0,0.0,0.0,0.0,0.0,0.0,0.0,0.0,0.0,0.0,0.0,0.0,0.0,0.0,0.0,0.0,0.0,0.0,0.0,0.0,0.0,0.0,0.0,0.0,0.0,0.0,0.0,0.0,0.0,0.0,0.0,0.0,0.0,0.0,0.0,0.0,0.0,0.0,0.0,0.0,0.0,0.0,0.0,0.0,0.0,0.0,0.0,0.0,0.0,0.0,0.0,0.0,0.0,0.0,0.0,0.0,0.0,0.0,0.0,0.0,0.0,0.0,0.0,0.0,0.0,0.0,0.0,0.0,0.0,0.0,0.0,0.0,0.0,0.0,0.0,0.0,0.0,0.0,0.0,0.0,0.0,0.0,0.0,0.0,0.0,0.0,0.0,0.0,0.0,0.0,0.0,0.0,0.0,0.0,0.0,0.0,0.0,0.0,0.0,0.0,0.0,0.0,0.0,0.0,0.0,0.0,0.0,0.0,0.0,0.0,0.0,0.0,0.0,0.0,0.0,0.0,0.0,0.0,0.0,0.0,0.0,0.0,0.0,0.0,0.0,0.0,0.0,0.0,0.0,0.0,0.0,0.0,0.0,0.0,0.0,0.0,0.0,0.0,0.0,0.0,0.0,0.0,0.0,0.0,0.0,0.0,0.0,0.0,0.0,0.0,0.0,0.0,0.0,0.0,0.0,0.0,0.0,0.0,0.0,0.0,0.0,0.0,0.0,0.0,0.0,0.0,0.0,0.0,0.0,0.0,0.0,0.0,0.0,0.0,0.0,0.0,0.0,0.0,0.0,0.0,0.0,0.0,0.0,0.0,0.0,0.0,0.0,0.0,0.0,0.0,0.0,0.0,0.0,0.0,0.0,0.0,0.0,0.0,0.0,0.0,0.0,0.0,0.0,0.0,0.0,0.0,0.0,0.0,0.0,0.0,0.0,0.0,0.0,0.0,0.0,0.0,0.0,0.0,0.0,0.0,0.0,0.0,0.0,0.0,0.0,0.0,0.0,0.0,0.0,0.0,0.0,0.0,0.0,0.0,0.0,0.0,0.0,0.0,0.0,0.0,0.0,0.0,0.0,0.0,0.0,0.0,0.0,0.0,0.0,0.0,0.0,0.0,0.0,0.0,0.0,0.0,0.0,0.0,0.0,0.0,0.0,0.0,0.0,0.0,0.0,0.0,0.0,0.0,0.0,0.0,0.0,0.0,0.0,0.0,0.0,0.0,0.0,0.0,0.0,0.0,0.0,0.0,0.0,0.0,0.0,0.0,0.0,0.0,0.0,0.0,0.0,0.0,0.0,0.0,0.0,0.0,0.0,0.0,0.0,0.0,0.0,0.0,0.0,0.0,0.0,0.0,0.0,0.0,0.0,0.0,0.0,0.0,0.0,0.0,0.0,0.0,0.0,0.0,0.0,0.0,0.0,0.0,0.0,0.0,0.0,0.0,0.0,0.0,0.0,0.0,0.0,0.0,0.0,0.0,0.0,0.0,0.0,0.0,0.0,0.0,0.0,0.0,0.0,0.0,0.0,0.0,0.0,0.0,0.0,0.0,0.0,0.0,0.0,0.0,0.0,0.0,0.0,0.0,0.0,0.0,0.0,0.0,0.0,0.0,0.0,0.0,0.0,0.0,0.0,0.0,0.0,0.0,0.0,0.0,0.0,0.0,0.0,0.0,0.0,0.0,0.0,0.0,0.0,0.0,0.0,0.0,0.0,0.0,0.0,0.0,0.0,0.0,0.0,0.0,0.0,0.0,0.0,0.0,0.0,0.0,0.0,0.0,0.0,0.0,0.0,0.0,0.0,0.0,0.0,0.0,0.0,0.0,0.0,0.0,0.0,0.0,0.0,0.0,0.0,0.0,0.0,0.0,0.0,0.0,0.0,0.0,0.0,0.0,0.0,0.0,0.0,0.0,0.0,0.0,0.0,0.0,0.0,0.0,0.0,0.0,0.0,0.0,0.0,0.0,0.0,0.0,0.0,0.0,0.0,0.0,0.0,0.0,0.0,0.0,0.0,0.0,0.0,0.0,0.0,0.0,0.0,0.0,0.0,0.0,0.0,0.0,0.0,0.0,0.0,0.0,0.0,0.0,0.0,0.0,0.0,0.0,0.0,0.0,0.0,0.0,0.0,0.0,0.0,0.0,0.0,0.0,0.0,0.0,0.0,0.0,0.0,0.0,0.0,0.0,0.0,0.0,0.0,0.0,0.0,0.0,0.0,0.0,0.0,0.0,0.0,0.0,0.0,0.0,0.0,0.0,0.0,0.0,0.0,0.0,0.0,0.0,0.0,0.0,0.0,0.0,0.0,0.0,0.0,0.0,0.0,0.0,0.0,0.0,0.0,0.0,0.0,0.0,0.0,0.0,0.0,0.0,0.0,0.0,0.0,0.0,0.0,0.0,0.0,0.0,0.0,0.0,0.0,0.0,0.0,0.0,0.0,0.0,0.0,0.0,0.0,0.0,0.0,0.0,0.0,0.0,0.0,0.0,0.0,0.0,0.0,0.0,0.0,0.0,0.0,0.0,0.0,0.0,0.0,0.0,0.0,0.0,0.0,0.0,0.0,0.0,0.0,0.0,0.0,0.0,0.0,0.0,0.0,0.0,0.0,0.0,0.0,0.0,0.0,0.0,0.0,0.0,0.0,0.0,0.0,0.0,0.0,0.0,0.0,0.0,0.0,0.0,0.0,0.0,0.0,0.0,0.0,0.0,0.0,0.0,0.0,0.0,0.0,0.0,0.0,0.0,0.0,0.0,0.0,0.0,0.0,0.0,0.0,0.0,0.0,0.0,0.0,0.0,0.0,0.0,0.0,0.0,0.0,0.0,0.0,0.0,0.0,0.0,0.0,0.0,0.0,0.0,0.0,0.0,0.0,0.0,0.0,0.0,0.0,0.0,0.0,0.0,0.0,0.0,0.0,0.0,0.0,0.0,0.0,0.0,0.0,0.0,0.0,0.0,0.0,0.0,0.0,0.0,0.0,0.0,0.0,0.0,0.0,0.0,0.0,0.0,0.0,0.0,0.0,0.0,0.0,0.0,0.0,0.0,0.0,0.0,0.0,0.0,0.0,0.0,0.0,0.0,0.0,0.0,0.0,0.0,0.0,0.0,0.0,0.0,0.0,0.0,0.0,0.0,0.0,0.0,0.0,0.0,0.0,0.0,0.0,0.0,0.0,0.0,0.0,0.0,0.0,0.0,0.0,0.0,0.0,0.0,0.0,0.0,0.0,0.0,0.0,0.0,0.0,0.0,0.0,0.0,0.0,0.0,0.0,0.0,0.0,0.0,0.0,0.0,0.0,0.0,0.0,0.0,0.0,0.0,0.0,0.0,0.0,0.0,0.0,0.0,0.0,0.0,0.0,0.0,0.0,0.0,0.0,0.0,0.0,0.0,0.0,0.0,0.0,0.0,0.0,0.0,0.0,0.0,0.0,0.0,0.0,0.0,0.0,0.0,0.0,0.0,0.0,0.0,0.0,0.0,0.0,0.0,0.0,0.0,0.0,0.0,0.0,0.0,0.0,0.0,0.0,0.0,0.0,0.0,0.0,0.0,0.0,0.0,0.0,0.0,0.0,0.0,0.0,0.0,0.0,-2.8448,0.0,0.0,0.0,0.0,0.0,0.0,0.0,0.0,0.0,0.0,0.0,0.0,0.0,0.0,0.0,0.0,0.0,0.0,0.0,0.0,0.0,0.0,0.0,0.0,0.0,0.0,0.0,0.0,0.0,0.0,0.0,0.0,0.0,0.0,0.0,0.0,0.0,0.0,-1.2437,-1.239,-1.2428,-1.2589,-1.3795,-1.3817,-1.2855,0.0,0.0,0.0,0.0,0.0,0.0,0.0,0.0,0.0,0.0,0.0,0.0,0.0,0.0,0.0,0.0,0.0,0.0,0.0,0.0,0.0,0.0,0.0,0.0,0.0,0.0,0.0,0.0,0.0,0.0,0.0,0.0,0.0,0.0,0.0,0.0,0.0,0.0,0.0,0.0,0.0,0.0,0.0,0.0,0.0,0.0,0.0,0.0,0.0,0.0,0.0,0.0,0.0,0.0,0.0,0.0,0.0,0.0,0.0,0.0,0.0,0.0,0.0,0.0,0.0,0.0,0.0,0.0,0.0,0.0,0.0,-2.9528,0.0,0.0,0.0,0.0,0.0,0.0,0.0,0.0,0.0,0.0,0.0,0.0,0.0,0.0,0.0,0.0,0.0,0.0,0.0,0.0,0.0,0.0,0.0,-0.9257,-0.9404,-0.9733,-1.0027,-1.0194,0.0,0.0,0.0,0.0,0.0,0.0,-1.2047,-1.2332,-1.2833,-1.3519,-1.2443,-1.2405,-1.3315,-1.3253,-1.2558,-1.1433,-1.3701,0.0,0.0,0.0,0.0,0.0,0.0,0.0,0.0,0.0,0.0,0.0,0.0,0.0,0.0,0.0,0.0,0.0,0.0,0.0,0.0,0.0,0.0,0.0,0.0,0.0,0.0,0.0,0.0,0.0,0.0,0.0,0.0,0.0,0.0,0.0,0.0,0.0,0.0,0.0,0.0,0.0,0.0,0.0,0.0,0.0,0.0,0.0,0.0,0.0,0.0,0.0,0.0,0.0,0.0,0.0,0.0,0.0,0.0,0.0,0.0,0.0,0.0,0.0,-3.2607,-3.2946,-3.3508,-3.3652,-3.374,-3.3734,-3.2805,-3.2127,-3.1687,-3.1687,0.0,0.0,0.0,0.0,0.0,0.0,0.0,0.0,0.0,0.0,0.0,0.0,0.0,0.0,0.0,0.0,0.0,0.0,0.0,0.0,0.0,-0.9472,-0.9746,-1.0033,-1.0365,-1.0533,-1.0533,0.0,0.0,0.0,0.0,0.0,-1.1492,-1.1539,-1.1217,-1.0471,-0.9364,-0.9562,-1.1009,-1.0743,-1.088,-1.1471,-1.37,-1.415,-1.3226,0.0,0.0,0.0,0.0,0.0,0.0,0.0,0.0,0.0,0.0,0.0,0.0,0.0,0.0,0.0,0.0,0.0,0.0,0.0,0.0,0.0,0.0,0.0,0.0,0.0,0.0,0.0,0.0,0.0,0.0,0.0,0.0,0.0,0.0,0.0,0.0,0.0,0.0,0.0,0.0,0.0,-3.0853,-3.2241,0.0,0.0,0.0,0.0,0.0,0.0,0.0,0.0,0.0,0.0,0.0,0.0,0.0,-3.023,-3.3265,-3.1922,-3.2479,-3.4847,-3.5332,-3.5419,-3.5194,-3.5717,-3.6229,-3.6634,-3.6483,0.0,-3.2898,-3.2898,0.0,0.0,0.0,0.0,0.0,0.0,0.0,0.0,0.0,0.0,0.0,0.0,0.0,0.0,0.0,0.0,0.0,0.0,0.0,0.0,0.0,-0.8849,-0.9272,-1.0283,-0.9949,-0.9963,-1.0548,-1.0747,0.0,0.0,0.0,-1.1623,-1.1911,-1.1367,-1.0632,-0.9781,-0.9622,-0.9777,-1.0253,-1.0108,-1.0099,-1.0296,-1.2372,-1.3078,-1.2765,-1.365,0.0,0.0,0.0,0.0,0.0,0.0,0.0,0.0,0.0,0.0,0.0,0.0,0.0,0.0,0.0,0.0,0.0,0.0,0.0,0.0,0.0,0.0,0.0,0.0,0.0,0.0,0.0,0.0,0.0,0.0,0.0,0.0,0.0,0.0,0.0,0.0,0.0,0.0,0.0,-3.1478,-3.3944,-3.3444,-3.3802,-3.3252,0.0,0.0,0.0,0.0,0.0,0.0,0.0,0.0,0.0,-3.2603,-3.132,-3.1808,-3.4246,-3.3058,-3.3615,-3.5903,-3.6453,-3.6959,-3.7437,-3.799,-3.853,-3.9057,-3.9057,-3.8203,-3.6697,-3.5454,-3.4424,-3.3571,0.0,0.0,0.0,0.0,-3.3407,-3.3721,0.0,0.0,0.0,0.0,0.0,0.0,0.0,0.0,0.0,0.0,0.0,0.0,-0.808,-0.8023,-0.8427,-0.9637,-0.9224,-0.9254,-1.0139,-1.0387,-1.0673,-1.1096,-1.1381,-1.167,-1.1951,-1.0783,-0.9924,-0.946,-0.9669,-0.9792,-0.9813,-0.9705,-0.9642,-0.9705,-1.097,-1.1699,-1.1975,-1.3178,-1.3482,-1.3124,0.0,0.0,0.0,0.0,0.0,0.0,0.0,0.0,0.0,0.0,0.0,0.0,0.0,0.0,0.0,0.0,0.0,0.0,0.0,0.0,0.0,0.0,0.0,0.0,0.0,0.0,0.0,0.0,0.0,0.0,0.0,0.0,0.0,0.0,0.0,0.0,0.0,-3.446,-3.6577,-3.477,-3.6129,-3.6138,0.0,0.0,0.0,0.0,0.0,0.0,-3.4519,-3.4758,-3.5161,-3.569,-3.3921,-3.3791,-3.5508,-3.4553,-3.5101,-3.7262,-3.7789,-3.8555,-3.9521,-3.9923,-4.0337,-4.0674,-4.0674,-4.0488,-3.9961,-3.7889,-3.637,-3.5303,-3.4738,-3.4788,-3.5152,-3.514,-3.5228,-3.5504,0.0,0.0,0.0,0.0,0.0,0.0,0.0,0.0,0.0,0.0,0.0,-0.5972,-0.6899,-0.7089,-0.7245,-0.7448,-0.8186,-0.8741,-0.9058,-0.9095,-0.9786,-1.1308,-1.0798,-1.0679,-1.107,-0.9406,-0.8577,-0.8765,-0.7953,-0.8158,-0.9343,-0.8945,-0.9385,-1.049,-1.0045,-1.0304,-1.1142,-1.2555,-1.326,-1.3416,-1.2929,0.0,0.0,0.0,0.0,0.0,0.0,0.0,0.0,0.0,0.0,0.0,0.0,0.0,0.0,0.0,0.0,0.0,0.0,0.0,0.0,0.0,0.0,0.0,0.0,0.0,0.0,0.0,0.0,0.0,0.0,0.0,0.0,0.0,0.0,0.0,0.0,0.0,0.0,-3.754,-3.8485,0.0,0.0,0.0,0.0,-3.7328,-3.7613,-3.8078,-3.8846,-3.7882,-3.759,-3.809,-3.6118,-3.5939,-3.7839,-3.7032,-3.7579,-3.9534,-4.0086,-4.0651,-4.1163,-4.1188,-4.1213,-4.125,-4.125,-4.1225,-4.1075,-3.9446,-3.8078,-3.701,-3.6505,-3.627,-3.632,-3.6295,-3.6656,-3.6998,0.0,0.0,0.0,0.0,0.0,0.0,0.0,0.0,-0.4952,-0.5226,-0.4992,-0.5183,-0.6223,-0.5759,-0.5919,-0.7294,-0.7134,-0.7288,-0.8122,-0.8888,-0.9456,-0.9729,-1.0222,-1.0133,-0.9338,-0.9109,-0.8639,-0.7978,-0.7868,-0.7969,-0.8343,-0.8179,-0.8335,-0.8698,-0.9221,-0.9619,-0.9985,-1.146,-1.2306,-1.2718,-1.2504,-1.3364,0.0,0.0,0.0,0.0,0.0,0.0,0.0,0.0,0.0,0.0,0.0,0.0,0.0,0.0,0.0,0.0,0.0,0.0,0.0,0.0,0.0,0.0,0.0,0.0,0.0,0.0,0.0,0.0,0.0,0.0,0.0,0.0,0.0,0.0,0.0,0.0,0.0,-4.1243,-4.2963,0.0,-4.052,-4.0489,-4.0944,-4.1701,-4.257,-4.3221,-4.3563,-4.2644,-4.1719,-4.1031,-3.9573,-3.9055,-3.9609,-3.9318,-3.9929,-4.1333,-4.1844,-4.2208,-4.2409,-4.276,-4.2723,-4.2396,-4.2396,-4.1995,-4.1238,-4.0701,-4.0224,-3.981,-3.9258,-3.9258,-3.9496,-3.8768,-3.8856,-3.9258,0.0,0.0,0.0,0.0,0.0,0.0,0.0,0.0,-0.4491,-0.4491,-0.4223,-0.4324,-0.5109,-0.4269,-0.4332,-0.6032,-0.5739,-0.5959,-0.7185,-0.8021,-0.8594,-0.8876,-0.9566,-0.9492,-0.8524,-0.8702,-0.8415,-0.7672,-0.787,-0.7938,-0.7885,-0.7834,-0.7787,-0.7743,-0.8432,-0.8964,-0.9448,-1.085,-1.1799,-1.2426,-1.2633,-1.3579,-1.4762,0.0,0.0,0.0,0.0,0.0,0.0,0.0,0.0,0.0,0.0,0.0,0.0,0.0,0.0,0.0,0.0,0.0,0.0,0.0,0.0,0.0,0.0,0.0,0.0,0.0,0.0,0.0,0.0,0.0,0.0,0.0,0.0,0.0,0.0,0.0,-4.5032,-4.3502,-4.5777,-4.6491,-4.4027,-4.4064,-4.4841,-4.6295,-4.6804,-4.7389,-4.8168,-4.6716,-4.51,-4.3517,-4.2279,-4.1409,-4.0789,-4.1153,-4.1706,-4.2502,-4.2986,-4.3263,-4.3263,-4.3438,-4.3325,-4.2974,-4.2974,-4.2559,-4.1894,-4.1894,-4.1781,-4.1543,-4.0802,-4.0739,-4.0912,-4.0237,-4.0199,-4.0438,0.0,0.0,0.0,0.0,0.0,0.0,0.0,-0.4467,-0.4467,-0.4463,-0.3769,-0.3339,-0.3529,-0.2732,-0.2544,-0.35,-0.4073,-0.4937,-0.6318,-0.6391,-0.7194,-0.9002,-0.8827,-0.8675,-0.8688,-0.8095,-0.7814,-0.7866,-0.8016,-0.8088,-0.8134,-0.7983,-0.7993,-0.8124,-0.7835,-0.8445,-0.9667,-1.0883,-1.1858,-1.2715,-1.3352,-1.4399,-1.5445,0.0,0.0,0.0,0.0,0.0,0.0,0.0,0.0,0.0,0.0,0.0,0.0,0.0,0.0,0.0,0.0,0.0,0.0,0.0,0.0,0.0,0.0,0.0,0.0,0.0,0.0,0.0,0.0,0.0,0.0,0.0,0.0,0.0,-3.8926,-4.2529,-4.4786,-4.4365,-4.6808,-4.7782,-4.5913,-4.6539,-4.819,-5.0999,-5.0066,-5.0347,-5.242,-4.99,-4.7441,-4.5376,-4.4111,-4.2788,-4.1367,-4.2434,-4.2999,-4.3037,-4.3589,-4.3853,-4.3827,-4.3288,-4.3024,-4.2999,-4.2986,-4.2961,-4.2924,-4.2924,-4.264,-4.2037,-4.0965,-4.0563,-4.0538,-4.0526,-4.0513,-4.0413,0.0,0.0,0.0,0.0,0.0,0.0,0.0,-0.3755,-0.3812,-0.3719,-0.314,-0.2687,-0.2584,-0.1864,-0.1955,-0.3339,-0.3555,-0.4458,-0.6497,-0.6493,-0.6971,-0.8236,-0.7946,-0.7861,-0.8041,-0.789,-0.8344,-0.9388,-0.9436,-0.9899,-1.0823,-1.0768,-1.0773,-1.0818,-1.0757,-1.0932,-1.1322,-1.2644,-1.3337,-1.3596,-1.4057,-1.4858,-1.5757,0.0,0.0,0.0,0.0,0.0,0.0,0.0,0.0,0.0,0.0,0.0,0.0,0.0,0.0,0.0,0.0,0.0,0.0,0.0,0.0,0.0,0.0,0.0,0.0,0.0,0.0,0.0,0.0,0.0,0.0,0.0,-3.3384,-3.626,-3.9409,-4.4617,-4.8252,-4.8647,-5.0501,-5.1549,-5.0995,-5.045,-5.1136,-5.3462,-5.2535,-5.2109,-5.2762,-5.1288,-4.8812,-4.5439,-4.4952,-4.3865,-4.1986,-4.2622,-4.3376,-4.4179,-4.4744,-4.502,-4.5008,-4.443,-4.3953,-4.3551,-4.315,-4.2522,-4.1794,-4.1794,-4.1229,-4.0463,-4.1408,-4.1467,-4.1012,-4.0664,-4.0262,-3.9898,0.0,0.0,0.0,0.0,0.0,0.0,0.0,-0.3184,-0.3114,-0.3452,-0.2561,-0.1863,-0.174,-0.1365,-0.1597,-0.2792,-0.3261,-0.4267,-0.6025,-0.6433,-0.687,-0.7503,-0.7548,-0.7634,-0.7807,-0.7875,-0.8581,-0.9998,-0.9998,-1.0632,-1.1896,-1.1896,-1.1896,-1.1896,-1.1896,-1.1896,-1.1994,-1.3343,-1.3985,-1.4135,-1.4798,-1.5365,-1.581,-1.5551,-1.5893,-1.6511,-1.6988,-1.7709,-1.8411,-1.8583,0.0,0.0,0.0,0.0,0.0,0.0,0.0,0.0,0.0,0.0,0.0,0.0,0.0,0.0,0.0,0.0,0.0,0.0,0.0,0.0,0.0,0.0,0.0,0.0,-3.1471,-3.4164,-3.7594,-4.3394,-4.7682,-4.8789,-5.1349,-5.3012,-5.3012,-5.2569,-5.3078,-5.5077,-5.3812,-5.3086,-5.3305,-5.1957,-4.9574,-4.6136,-4.5503,-4.4415,-4.2891,-4.3388,-4.4116,-4.4982,-4.5321,-4.5485,-4.5472,-4.4895,-4.4776,0.0,-4.3834,-4.3326,-4.3198,-4.2128,-4.1304,0.0,0.0,0.0,0.0,0.0,-4.0174,-3.9697,0.0,0.0,0.0,0.0,0.0,0.0,0.0,-0.2616,-0.2387,-0.3211,-0.204,-0.1084,-0.0988,-0.0984,-0.1318,-0.212,-0.3121,-0.4198,-0.5406,-0.6498,-0.7028,-0.6976,-0.7512,-0.7821,-0.7834,-0.7921,-0.8726,-1.0194,-1.0194,-1.0925,-1.2334,-1.2334,-1.2334,-1.2334,-1.2334,-1.2349,-1.2473,-1.3678,-1.4315,-1.4629,-1.5538,-1.5864,-1.5852,-1.5591,-1.5651,-1.5974,-1.7044,-1.7345,-1.7378,-1.8295,0.0,0.0,0.0,0.0,0.0,0.0,0.0,0.0,0.0,0.0,0.0,0.0,0.0,0.0,0.0,0.0,0.0,0.0,0.0,0.0,0.0,0.0,0.0,0.0,-2.8273,-3.0984,-3.4328,-3.9296,-4.3516,-4.6197,-5.0065,-5.2564,-5.2712,-5.3028,-5.3953,-5.57,-5.4187,-5.3278,-5.3484,0.0,0.0,0.0,0.0,-4.4655,-4.379,-4.4418,-4.4982,-4.5485,-4.5547,-4.5585,-4.556,-4.4982,-4.5393,-4.6553,-4.4629,-4.4467,-4.5369,-4.3063,-4.2049,-4.1835,-4.0877,-4.0475,-4.0425,-4.0425,-4.0111,-3.9697,0.0,0.0,0.0,0.0,0.0,0.0,0.0,-0.153,-0.1494,-0.1585,-0.1402,-0.0992,-0.0293,-0.0204,-0.0749,-0.2097,-0.2726,-0.3928,-0.6003,-0.7382,-0.7848,-0.732,-0.7624,-0.7868,-0.7941,-0.7975,-0.9164,-1.1512,-1.1512,-1.2721,-1.5051,-1.5051,-1.5051,-1.5051,-1.5051,-1.5178,-1.5492,-1.5735,-1.6003,-1.6258,-1.6454,-1.64,-1.6179,-1.6126,-1.6139,-1.6268,-1.6693,-1.7676,-1.8772,-1.86,-1.9272,-2.0268,-2.0659,-2.0699,0.0,0.0,0.0,0.0,0.0,0.0,0.0,0.0,0.0,0.0,0.0,0.0,0.0,0.0,0.0,0.0,0.0,0.0,0.0,-2.6714,-2.6724,-2.7846,-3.1199,-3.1717,-3.4842,-4.3163,-4.7224,-4.9841,-5.0926,-5.1226,-5.2172,-5.4172,-5.3649,-5.2505,-5.0998,-5.1055,-4.9343,-4.5542,-4.5618,-4.5083,-4.3802,-4.4807,-4.5372,-4.5497,0.0,0.0,-4.6137,-4.5573,-4.5233,-4.4972,-4.4143,-4.3444,-4.2836,-4.1864,-4.0978,-4.0187,-4.0425,-4.0249,-3.9848,-3.9848,-3.9785,-3.9697,0.0,0.0,0.0,0.0,0.0,0.0,0.0,-0.0875,-0.077,-0.1139,-0.0886,-0.0473,-0.0059,-0.0324,-0.0841,-0.1596,-0.281,-0.432,-0.6175,-0.7197,-0.7618,-0.7248,-0.7685,-0.7877,-0.7877,-0.7951,-0.897,-1.0974,-1.1604,-1.2915,-1.4854,-1.5486,-1.5784,-1.5784,-1.5784,-1.5999,-1.6321,-1.6321,-1.6526,-1.6914,-1.6767,-1.6707,-1.6764,-1.6764,-1.6764,-1.6804,-1.7041,-1.7596,-1.8173,-1.7923,-1.8543,-1.9499,-1.9715,-2.0431,-2.1167,0.0,0.0,0.0,0.0,0.0,0.0,0.0,0.0,0.0,0.0,0.0,0.0,0.0,0.0,-2.431,-2.3727,0.0,-2.5352,-2.4975,-2.3889,-2.4362,-2.7906,-2.7361,-2.9725,-3.8336,-4.2828,-4.5747,-4.7124,-4.8298,-4.9915,-5.2292,-5.1094,-5.0226,-5.0205,-4.9145,-4.7454,-4.5074,-4.4889,-4.4628,-4.4204,-4.5058,-4.5761,-4.6313,-4.6589,-4.6728,-4.6715,-4.6439,-4.6239,-4.6103,-4.4776,-4.4003,-4.3581,-4.198,-4.0689,-3.9747,-4.03,-4.0174,-3.9697,-3.9697,-3.9697,-3.9697,0.0,0.0,0.0,0.0,0.0,0.0,0.0,-0.0661,-0.0429,-0.0985,-0.0439,0.0,0.0,-0.0526,-0.1047,-0.1451,-0.3175,-0.4844,-0.6266,-0.6844,-0.7109,-0.7139,-0.7631,-0.786,-0.7814,-0.7884,-0.8647,-0.9998,-1.1023,-1.2328,-1.392,-1.4949,-1.5614,-1.5912,-1.5912,-1.6112,-1.6496,-1.6496,-1.6797,-1.7266,-1.6974,-1.7021,-1.7286,-1.7286,-1.7253,-1.7239,-1.7475,-1.7447,-1.7206,-1.7266,-1.7733,-1.8308,-1.8506,-1.9822,-2.1244,-2.114,-2.1854,0.0,0.0,0.0,0.0,0.0,0.0,0.0,0.0,-2.3769,-2.4134,-2.5205,-2.5341,-2.5151,-2.4815,-2.4622,-2.4235,-2.3506,-2.1742,-2.1625,-2.4987,-2.4326,-2.5905,-3.2421,-3.7572,-4.1037,-4.2199,-4.4642,-4.7166,-4.9483,-4.8219,-4.7819,-4.9141,-4.716,-4.5587,-4.4657,-4.4196,-4.4229,-4.4782,-4.5472,-4.6301,-4.728,-4.7118,-4.7068,-4.7068,-4.6916,-4.687,-4.6965,-4.503,-4.4194,-4.4109,-4.1989,-4.0588,-3.9735,-4.0187,-4.0086,-3.9697,-3.9697,-3.9697,-3.9697,0.0,0.0,0.0,0.0,0.0,0.0,0.0,0.0,-0.0776,-0.0215,-0.006,0.0,0.0,-0.0086,-0.0854,-0.2705,-0.3855,-0.5101,-0.6569,-0.6916,-0.7204,-0.7339,-0.7539,-0.7699,-0.7811,-0.7828,-0.853,-0.9998,-1.0145,-1.1502,-1.3926,-1.407,-1.4883,-1.6226,-1.6226,-1.6583,-1.7105,-1.7105,-1.7293,-1.7528,-1.7495,-1.7508,-1.7535,-1.7535,-1.7427,-1.7239,-1.7475,-1.7447,-1.7239,-1.7442,-1.7439,-1.7548,-1.86,-1.9117,-1.9535,-2.0743,-2.1203,-2.1405,-2.1807,-2.1924,-2.2305,-2.3769,-2.3643,-2.3945,0.0,-2.709,-2.7041,-2.8662,-2.9575,-2.9661,-2.8183,-2.7667,-2.6996,-2.5495,-2.2549,-2.1227,-2.3307,-2.1861,-2.1956,-2.5651,-3.1889,-3.6137,-3.658,-4.0376,-4.3383,-4.4754,-4.6401,-4.6816,-4.5662,-4.5832,-4.5177,-4.3252,-4.4035,-4.4807,-4.5384,-4.6426,-4.7242,-4.7807,-4.7355,-4.7068,-4.7043,-4.6125,-4.5439,-4.485,-4.3199,-4.1902,-4.0976,-4.0704,-4.0249,-3.9697,-3.976,-3.9747,-3.9697,-3.9697,-3.9697,-3.9697,0.0,0.0,0.0,0.0,0.0,0.0,0.0,0.0,0.0,-0.0688,-0.0271,0.0,0.0,0.0,-0.0568,-0.1917,-0.3061,-0.4259,-0.5552,-0.6508,-0.7038,-0.7231,-0.7468,-0.7587,-0.7556,-0.7723,-0.808,-0.8725,-0.9555,-1.0583,-1.1653,-1.2508,-1.3713,-1.5115,-1.5227,-1.5979,-1.7199,-1.7199,-1.7367,-1.7582,-1.7582,-1.7582,-1.7562,-1.7447,-1.7306,-1.7213,-1.734,-1.7306,0.0,-1.7088,-1.6994,-1.6988,-1.7486,-1.8526,-1.963,-2.0213,-2.1463,-2.2789,-2.3246,-2.374,-2.4297,-2.4962,-2.5488,-2.6211,-2.7598,-2.7127,-2.7046,-2.9451,-2.9651,-2.9131,-2.8075,-2.7766,-2.6875,-2.4363,-2.188,-2.0926,-2.277,-2.1326,-2.1196,-2.4276,-2.8039,-3.1051,-3.2849,-3.6182,-3.9278,-4.1749,-4.2298,-4.2962,-4.4032,-4.4188,-4.3747,-4.2564,-4.4204,-4.5246,-4.5485,-4.6878,-4.7857,-4.8397,-4.7845,-4.7581,-4.7544,-4.6464,-4.5296,-4.4066,-4.2791,-4.1718,-4.0912,-4.0651,-4.0187,-3.9697,-3.9697,-3.9697,-3.9697,-3.9697,-3.9697,-3.9735,0.0,0.0,0.0,0.0,0.0,0.0,0.0,0.0,0.0,0.0,-0.0326,0.0,0.0,0.0,-0.0365,-0.1236,-0.2188,-0.3351,-0.4744,-0.5874,-0.6668,-0.7031,-0.7333,-0.7441,-0.7419,-0.7621,-0.7773,-0.7811,-0.8886,-0.9657,-1.0002,-1.1124,-1.2444,-1.3868,-1.4382,-1.5421,-1.6736,-1.7164,-1.744,-1.7582,-1.7582,-1.7535,-1.7494,-1.728,-1.7146,-1.7079,-1.7079,-1.7025,-1.6975,-1.7002,-1.7069,-1.7118,-1.745,-1.8692,-2.0126,-2.0464,-2.2134,-2.3887,-2.4307,-2.4971,-2.5635,-2.5947,-2.6973,-2.7953,-2.8188,-2.7602,-2.7614,-2.9621,-2.9337,-2.8517,-2.7852,-2.732,-2.6358,-2.4619,-2.2799,-2.2219,-2.3933,-2.3012,-2.2835,-2.4656,-2.6276,-2.8078,-3.0106,-3.2955,-3.5929,-3.8985,-3.9038,-4.0133,-4.2931,-4.2872,-4.2766,-4.2665,-4.448,-4.5635,-4.5937,-4.7405,-4.8435,-4.8987,-4.8259,-4.7908,-4.7857,-4.6476,-4.4932,-4.33,-4.2552,-4.1844,-4.125,-4.0862,-4.0413,-3.9923,-3.9923,-3.9823,-3.9697,-3.9697,-3.9697,-3.9747,0.0,0.0,0.0,0.0,0.0,0.0,0.0,0.0,0.0,0.0,0.0,0.0,0.0,0.0,-0.0339,-0.1233,-0.1646,-0.2639,-0.4565,-0.5151,-0.5886,-0.685,-0.7031,-0.7221,-0.7412,-0.7526,-0.7675,-0.7811,-0.7963,-0.8726,-1.0002,-1.0179,-1.1115,-1.2695,-1.428,-1.5164,-1.5565,-1.6975,-1.7575,-1.7582,-1.7582,-1.7467,-1.7213,-1.7206,-1.7025,-1.672,-1.672,-1.654,-1.6488,-1.7527,-1.7953,-1.8233,-1.9296,-1.9948,-2.0657,-2.1963,-2.3028,-2.3887,-2.4307,-2.4746,-2.5391,-2.666,-2.7627,-2.8486,-2.9381,-2.9834,-2.9959,-2.9608,-2.9492,-2.9171,-2.8342,-2.6757,-2.6098,-2.7776,-2.6506,-2.5791,-2.7174,-2.7312,-2.697,-2.6246,-2.7331,-2.8206,0.0,-3.1273,-3.4049,-3.6095,-3.7539,-3.9449,-4.2125,-4.2213,-4.266,-4.3714,-4.4882,-4.5999,-4.7018,-4.8184,-4.9025,-4.9552,-4.8435,-4.7908,-4.7832,-4.566,-4.3765,-4.2263,-4.2225,-4.1844,-4.1288,-4.1263,-4.0937,-4.0488,-4.0488,-4.0162,-3.9697,-3.9697,-3.9697,-3.9697,0.0,0.0,0.0,0.0,0.0,0.0,0.0,0.0,0.0,0.0,0.0,0.0,0.0,0.0,0.0,0.0,-0.118,-0.198,-0.2732,-0.4218,-0.5252,-0.5706,-0.6527,-0.7024,-0.7214,-0.6574,-0.6798,-0.7811,-0.7066,-0.7378,-0.8684,-0.8947,-0.9868,-1.1376,-1.209,-1.3516,-1.5417,-1.5902,-1.6832,-1.7856,-1.7455,-1.7407,-1.7427,-1.6837,-1.6386,-1.6099,0.0,-1.6367,-1.7091,-1.7059,-1.7727,-1.8643,-1.9052,-2.0019,-2.1234,-2.2505,-2.3496,-2.4365,-2.505,-2.6025,-2.7151,-2.8389,-2.9141,-2.9717,-3.0312,-2.9697,-2.907,-2.9197,-2.8052,-2.6934,-2.669,-2.6273,-2.6157,-2.6779,-2.6842,-2.6977,-2.7449,-2.7498,-2.761,-2.7921,-2.8401,0.0,0.0,0.0,0.0,-3.5335,-3.6689,-3.8473,-4.0946,-4.2108,-4.2873,-4.3237,-4.5058,-4.6389,-4.7068,-4.8586,-4.9414,-4.9577,-4.8447,-4.7142,-4.5698,-4.4957,-4.3928,-4.2753,-4.2753,-4.2384,-4.1882,-4.1882,-4.1342,-4.0551,-4.0862,-4.0501,-3.9735,-4.0111,-4.0011,-3.9747,0.0,0.0,0.0,0.0,0.0,0.0,0.0,0.0,0.0,0.0,0.0,0.0,0.0,0.0,0.0,0.0,0.0,-0.1211,-0.1703,-0.3031,-0.4001,-0.4444,-0.5259,-0.5769,-0.5846,-0.528,-0.5422,-0.6385,-0.5648,-0.5987,-0.7316,-0.7594,-0.8495,-0.99,-1.0612,-1.1968,-1.3773,-1.4248,-1.5405,-1.6825,-1.6343,-1.6462,-1.6894,-1.6326,-1.5932,0.0,-1.5464,-1.6515,-1.7857,-1.7255,-1.8104,-1.9545,-1.9861,-2.0977,-2.2372,-2.3268,-2.4163,-2.5117,-2.6152,-2.7246,-2.8379,-2.9512,-3.0127,-3.0518,-3.082,-3.0089,-2.9172,-2.888,-2.756,-2.6236,-2.5624,-2.5605,-2.5921,-2.6587,-2.7266,-2.7995,-2.863,-2.9155,-2.9693,-3.0123,-3.0616,-3.1589,0.0,0.0,0.0,-3.5845,-3.6909,-3.839,-4.0655,-4.2183,-4.3162,-4.3551,-4.5347,-4.6665,-4.7405,-4.8673,-4.9201,-4.8975,-4.787,-4.6389,-4.4618,-4.4418,-4.3827,-4.2974,-4.2974,-4.2773,-4.2489,-4.2288,-4.1618,-4.0774,-4.0924,-4.0488,-3.9735,-4.0086,-3.9998,-3.9747,0.0,0.0,0.0,0.0,0.0,0.0,0.0,0.0,0.0,0.0,0.0,0.0,0.0,0.0,0.0,0.0,0.0,0.0,-0.1441,-0.17,-0.222,-0.3152,-0.3504,-0.3677,-0.368,-0.3803,-0.3889,-0.3972,-0.4008,-0.4735,-0.608,-0.6251,-0.7027,-0.8343,-0.986,-1.0613,-1.0789,-1.2167,-1.3547,-1.4752,-1.4479,-1.4922,-1.5784,-1.5764,-1.5625,-1.5378,-1.5391,-1.6851,-1.8688,-1.8058,-1.917,-2.0985,-2.1774,-2.2881,-2.3975,-2.4394,-2.5146,-2.6113,-2.7383,-2.834,-2.9189,-3.0019,-3.0566,-3.0889,-3.0859,-3.084,-3.0315,-2.8428,-2.7723,-2.6886,-2.5132,-2.4876,-2.5518,-2.736,-2.8147,-2.9066,-3.0811,-3.2305,-3.3043,-3.2569,-3.377,-3.4457,-3.4038,0.0,0.0,-3.7613,0.0,-3.9352,-4.1342,-4.2574,-4.3739,-4.4734,-4.5842,-4.6876,-4.7895,-4.8485,-4.8485,-4.7895,-4.6828,-4.5723,-4.4606,-4.4053,-4.3501,-4.2974,-4.2974,-4.2974,-4.2936,-4.2439,-4.1831,-4.1238,-4.0764,-4.0212,-3.9697,-3.9722,-3.9722,-3.9697,0.0,0.0,0.0,0.0,0.0,0.0,0.0,0.0,0.0,0.0,0.0,0.0,0.0,0.0,0.0,0.0,0.0,0.0,-0.0403,-0.1195,-0.178,-0.2035,-0.3647,-0.4611,-0.4728,-0.4662,-0.5152,-0.6245,-0.5295,-0.5517,-0.6811,-0.7003,-0.7338,-0.7825,-0.8304,-0.9221,-1.0432,-1.1618,-1.3106,-1.4628,-1.4949,-1.5409,-1.5758,-1.5585,-1.5331,-1.5149,-1.5317,-1.6757,-1.8479,-1.8298,-2.0359,-2.3121,-2.3611,-2.4443,-2.5274,-2.5762,-2.6494,-2.7383,-2.834,-2.9228,-3.001,-3.0576,-3.0801,-3.0801,-3.0449,-3.0137,-2.9257,-2.6944,-2.5757,-2.4879,-2.3896,-2.4647,-2.6134,-2.8227,-3.0685,-3.2573,-3.3361,-3.4482,-3.5033,-3.4604,-3.4879,-3.5489,-3.649,-3.6702,0.0,0.0,-4.0786,-4.1395,-4.352,-4.5621,-4.6811,-4.6913,-4.7599,-4.7957,-4.7895,-4.8485,-4.8485,-4.7895,-4.6828,-4.5723,-4.4606,-4.4053,-4.3501,-4.2974,-4.2974,-4.2974,-4.2936,-4.2439,-4.1831,-4.1275,-4.1125,-4.0538,-3.9747,-4.0162,-4.0049,-3.9697,0.0,0.0,0.0,0.0,0.0,0.0,0.0,0.0,0.0,0.0,0.0,0.0,0.0,0.0,0.0,0.0,0.0,0.0,0.0,-0.0548,-0.0881,-0.0895,-0.2449,-0.3351,-0.3432,-0.3804,-0.4392,-0.5154,-0.4494,-0.4999,-0.6616,-0.6744,-0.7421,-0.8503,-0.8594,-0.9238,-1.0241,-1.0896,-1.2144,0.0,0.0,-1.4482,-1.5251,-1.5217,-1.5149,-1.5062,-1.5438,-1.6742,-1.8507,-2.0051,-2.2135,-2.4209,-2.5029,-2.5752,-2.6416,-2.7041,-2.7695,-2.8398,-2.9248,-2.998,-3.0566,-3.083,-3.0732,-3.042,-2.9785,-2.9307,-2.8484,-2.6514,-2.5503,-2.4765,-2.4207,-2.5228,-2.6836,-2.8737,-3.1161,-3.323,-3.431,-3.5535,-3.6274,-3.6283,-3.6823,-3.7447,-3.8084,-3.8538,-3.9753,0.0,-4.2189,-4.3206,-4.5543,-4.7444,-4.8514,-4.8647,-4.8558,-4.8288,-4.7895,-4.8234,-4.8234,-4.7895,-4.6577,-4.5623,-4.4982,-4.4166,-4.3627,-4.3325,0.0,-4.2974,-4.2924,-4.212,-4.1618,-4.1238,-4.0802,-4.0237,-3.9735,-4.0036,-3.9961,-3.9697,0.0,0.0,0.0,0.0,0.0,0.0,0.0,0.0,0.0,0.0,0.0,0.0,0.0,0.0,0.0,0.0,0.0,0.0,0.0,0.0,-0.0174,-0.0174,-0.1035,-0.1554,-0.1699,-0.274,-0.3226,-0.3113,-0.322,-0.4254,-0.6143,-0.6143,-0.7373,-0.9564,-0.9593,-0.9806,-1.0095,-1.0295,-1.1214,-1.2473,-1.2381,-1.3145,-1.4502,0.0,-1.5008,-1.5082,-1.5805,-1.6926,-1.8598,-2.2149,-2.385,-2.4734,-2.6191,-2.6973,-2.751,-2.831,-2.8799,-2.9258,-3.0068,-3.0586,-3.0879,-3.081,-3.0449,-2.9873,-2.8965,-2.8379,-2.7676,-2.6396,-2.5781,-2.5342,-2.4893,-2.5879,-2.7261,-2.8736,-3.0527,-3.2415,-3.4476,-3.6079,-3.7219,-3.7844,-3.9019,-3.9609,-3.9132,-3.9961,-4.0925,-4.1865,-4.311,-4.491,-4.7564,-4.8917,-4.9732,-5.0007,-4.9174,-4.8444,-4.7895,-4.7908,-4.7908,-4.7895,-4.6263,-4.5485,-4.5447,-4.4317,-4.3802,-4.3765,-4.3212,0.0,-4.2785,-4.1769,-4.125,-4.1075,-4.0099,-3.9697,-3.9697,-3.9697,-3.9697,-3.9697,0.0,0.0,0.0,0.0,0.0,0.0,0.0,0.0,0.0,0.0,-0.503,-0.434,0.0,0.0,0.0,0.0,0.0,0.0,0.0,0.0,0.0,-0.1081,-0.208,-0.2952,-0.3688,-0.4753,-0.5291,-0.5255,-0.528,-0.5845,-0.6921,-0.6921,-0.758,-0.8815,-0.9066,-0.9311,-0.9527,-1.0759,-1.1553,-1.2117,-1.2972,-1.368,-1.4222,-1.48,0.0,0.0,-1.6814,-1.7542,-1.837,-2.2407,-2.4281,-2.5237,-2.7332,-2.8496,-2.9228,-2.9717,-2.9922,-3.0088,-3.0625,-3.083,-3.0801,-3.041,-2.999,-2.9421,-2.8154,-2.7285,-2.6348,-2.5029,-2.4424,-2.3994,-2.351,-2.4531,-2.5967,-2.7655,-2.9763,-3.2265,-3.5235,-3.7029,-3.8508,-3.9851,-4.0205,-4.0337,-4.0237,-4.04,0.0,0.0,-4.479,-4.6974,-4.9617,-5.2017,-5.2454,-5.0629,-5.0122,-4.9235,-4.7908,-4.7908,-4.7908,-4.7895,-4.6263,-4.5485,-4.5447,-4.4317,-4.3802,-4.3765,-4.3212,0.0,-4.2301,-4.1605,-4.1012,-4.0601,-3.9948,-3.9697,-3.9697,-3.9697,-3.9697,-3.976,0.0,0.0,0.0,0.0,0.0,0.0,0.0,-0.473,-0.543,-0.6683,-0.5775,-0.5096,-0.5243,-0.4336,-0.374,0.0,0.0,0.0,0.0,0.0,0.0,0.0,-0.2274,-0.2993,-0.3413,-0.4911,-0.565,-0.5607,0.0,-0.634,-0.757,-0.757,-0.8396,-0.9875,-1.0032,-1.0194,-1.0448,-1.1347,-1.1972,-1.242,-1.3264,-1.3866,-1.4376,0.0,0.0,0.0,-1.7162,-1.7381,-1.7658,-2.2099,-2.3657,-2.4244,-2.7586,-2.9209,-2.9932,-3.0137,-3.0371,-3.0605,-3.083,-3.0889,-3.0781,-3.0312,-2.9707,-2.8838,-2.7344,-2.6328,-2.5332,-2.4023,-2.3594,-2.3389,-2.314,-2.4199,-2.5619,-2.7222,-2.8974,-3.1449,-3.5189,-3.6348,-3.7742,-4.0205,-4.0262,-4.0312,-4.0837,-4.094,-4.1713,-4.3676,-4.5245,-4.7346,-5.0097,-5.2787,-5.3121,-5.0796,-5.1115,-5.0247,-4.7908,-4.8209,-4.8209,-4.7895,-4.6841,-4.62,-4.5874,-4.4744,-4.4066,-4.3752,-4.2911,0.0,-4.1693,-4.1141,-4.0752,-4.0463,-3.991,-3.9697,-3.9697,-3.9697,-3.9697,-3.9772,0.0,0.0,0.0,0.0,0.0,0.0,0.0,-0.4648,-0.5388,-0.6379,-0.5684,-0.513,-0.5277,-0.4375,-0.3766,0.0,0.0,0.0,0.0,0.0,0.0,0.0,0.0,0.0,-0.2983,0.0,0.0,-0.5443,-0.5566,0.0,0.0,0.0,0.0,0.0,-1.089,-1.1122,-1.1322,-1.1717,-1.2248,0.0,0.0,-1.4358,0.0,0.0,0.0,0.0,0.0,-1.7613,-1.7642,-2.1734,-2.2894,-2.3168,-2.6988,-2.9014,-2.9922,-2.9922,-3.0312,-3.0762,-3.0859,-3.082,-3.0635,-3.0176,-2.9355,-2.8232,-2.6621,-2.5566,-2.459,-2.3344,-2.3091,-2.3091,-2.3091,-2.3965,-2.5146,-2.6603,-2.7719,-3.0007,-3.4402,-3.52,-3.6666,-4.028,-4.0212,-4.0312,-4.1404,-4.1363,0.0,-4.3636,-4.5033,0.0,-5.0414,-5.2885,-5.3121,-5.0796,-5.1663,-5.0859,-4.7908,-4.8247,-4.8247,-4.7895,-4.7255,-4.6665,-4.61,-4.5083,-4.4317,-4.374,-4.269,0.0,0.0,-4.0752,-4.045,-4.03,-3.986,-3.9697,-3.9697,-3.9697,-3.9697,-3.9785,0.0,0.0,0.0,0.0,0.0,0.0,0.0,-0.3457,-0.3786,-0.4552,-0.4085,-0.3693,-0.372,-0.3646,-0.3718,0.0,0.0,0.0,0.0,0.0,0.0,0.0,0.0,0.0,0.0,0.0,0.0,-0.5569,-0.5583,0.0,0.0,0.0,0.0,0.0,0.0,-1.1009,-1.1069,-1.1665,0.0,0.0,0.0,0.0,0.0,0.0,0.0,0.0,0.0,-1.9285,-1.9561,-2.1863,-2.2609,-2.2969,-2.5274,-2.7412,-2.9033,-2.9033,-2.9619,-3.0351,-3.0771,-3.0586,-3.0156,-2.9736,-2.8755,-2.7432,-2.6103,-2.5117,-2.4219,-2.3276,-2.3091,-2.3091,-2.3091,-2.3198,-2.3746,-2.5108,-2.569,-2.7756,-3.2814,-3.4293,-3.643,-4.0719,-4.0724,-4.0877,-4.2024,-4.163,-4.1622,-4.2313,0.0,0.0,-5.1658,-5.3358,-5.3121,-5.0796,-5.132,-5.0443,-4.7895,-4.7493,-4.7493,-4.7895,-4.6878,-4.61,-4.5547,-4.4907,-4.4317,-4.374,-4.269,0.0,0.0,-4.0752,-4.0224,-3.9772,-3.971,-3.9697,-3.9697,-3.9697,-3.9697,-3.9848,0.0,0.0,0.0,0.0,0.0,0.0,-0.2481,-0.2273,-0.2305,-0.3188,-0.2569,-0.2107,-0.229,-0.217,-0.2392,-0.3164,0.0,0.0,0.0,0.0,0.0,0.0,0.0,0.0,0.0,0.0,-0.6362,-0.6508,-0.719,0.0,0.0,0.0,0.0,0.0,0.0,-1.1089,-1.1303,-1.2149,0.0,0.0,0.0,0.0,0.0,0.0,0.0,0.0,0.0,0.0,-1.9857,-2.2143,-2.2611,-2.2455,-2.3719,-2.5293,-2.6807,-2.7851,-2.8769,-2.958,-3.0283,-3.0547,-3.0449,-2.9746,-2.8667,-2.7324,-2.6035,-2.4853,-2.3867,-2.3218,-2.3091,-2.3091,-2.3091,-2.3091,-2.3266,-2.3818,-2.4007,-2.5541,-2.9483,-3.0395,-3.2672,-3.8061,-3.8252,-3.9016,0.0,0.0,-4.1706,-4.2585,0.0,0.0,-4.8282,-4.9737,-4.9876,-4.8444,-4.9274,-4.8976,-4.7431,-4.7544,-4.7707,-4.7895,-4.7154,-4.6338,-4.5472,-4.4895,-4.4141,-4.325,-4.2145,0.0,0.0,-4.0249,-3.9885,-3.9697,-3.9697,-3.9697,-3.9697,-3.9697,-3.9697,-3.9848,0.0,0.0,0.0,0.0,0.0,-0.0613,-0.1132,-0.041,-0.0137,-0.1069,-0.0553,-0.0279,-0.0684,-0.0762,-0.1068,-0.1846,-0.2564,0.0,0.0,0.0,0.0,0.0,0.0,0.0,0.0,0.0,-0.7222,-0.7543,-0.8433,-0.9218,0.0,0.0,-1.0528,-1.1114,0.0,0.0,0.0,0.0,0.0,0.0,0.0,0.0,0.0,0.0,0.0,0.0,0.0,0.0,0.0,0.0,0.0,-2.2441,-2.2924,-2.376,-2.4814,-2.6476,-2.7685,-2.8711,-2.9434,-2.9971,-3.0156,-2.9531,-2.833,-2.7012,-2.5977,-2.4727,-2.3662,-2.3188,-2.3091,-2.3091,-2.3091,-2.3091,-2.3091,-2.3091,-2.3305,-2.4501,-2.7467,-2.8441,-3.0596,-3.5388,-3.6276,-3.7653,0.0,-4.1289,-4.1969,0.0,0.0,0.0,-4.5109,-4.6061,-4.6692,-4.6901,-4.7766,-4.7828,-4.6878,-4.7255,-4.7518,-4.7669,-4.7142,-4.6301,-4.5221,-4.4807,-4.4016,-4.2924,-4.1819,0.0,0.0,-3.9986,-3.9697,-3.9697,-3.9697,-3.9697,-3.9697,-3.9697,-3.9697,-3.9848,0.0,0.0,0.0,0.0,0.0,0.0,0.1062,0.2303,0.2991,0.2258,0.2164,0.1883,0.114,0.0424,-0.0031,-0.0032,-0.0709,0.0,0.0,0.0,0.0,0.0,0.0,0.0,0.0,0.0,-0.7449,-0.8589,-0.8918,-0.9185,-0.9324,-1.005,-1.0401,-1.0426,0.0,0.0,0.0,0.0,0.0,0.0,0.0,0.0,0.0,0.0,0.0,0.0,0.0,0.0,0.0,0.0,0.0,0.0,0.0,-2.311,-2.3374,-2.4717,-2.6368,-2.7826,-2.8193,-2.8613,-2.8935,-2.8926,-2.7656,-2.6289,-2.5791,-2.4727,-2.3662,-2.3188,-2.3091,-2.3091,-2.3091,-2.3091,-2.3091,-2.3091,-2.3803,-2.5199,-2.7551,-2.9668,-3.1608,-3.3351,-3.5693,-3.737,-3.7781,-4.0496,-4.2439,0.0,0.0,0.0,-4.3042,-4.3042,-4.4237,-4.6832,-4.744,-4.7243,-4.6313,-4.6326,-4.6602,-4.7068,-4.6577,-4.5723,-4.4631,-4.4618,-4.4016,0.0,0.0,0.0,0.0,-4.0149,-3.9697,-3.9697,-3.9697,-3.9697,-3.9697,-3.9697,-3.9697,-3.9848,0.0,0.0,0.0,0.0,0.0,0.0,0.0,0.3106,0.399,0.3788,0.3302,0.267,0.1924,0.0746,0.0,0.0,-0.0669,0.0,0.0,0.0,0.0,0.0,0.0,0.0,0.0,0.0,-0.8374,-0.8724,-1.046,-1.131,-1.136,-1.1574,-1.1816,-1.2034,-1.2005,-1.264,0.0,0.0,0.0,0.0,0.0,0.0,0.0,0.0,0.0,0.0,0.0,0.0,0.0,0.0,0.0,0.0,0.0,0.0,0.0,-2.3633,-2.4766,-2.6104,-2.6787,-2.7295,-2.7549,-2.7266,-2.6328,-2.5371,-2.4932,-2.4062,-2.3257,-2.312,-2.3091,-2.3091,-2.3091,-2.3091,-2.3198,-2.3535,-2.3809,-2.4461,-2.5779,-2.7931,-2.99,-3.1289,-3.5631,-3.9136,0.0,0.0,-4.2841,0.0,0.0,0.0,-4.2974,-4.2974,-4.3404,-4.4181,-4.51,-4.5659,-4.5748,-4.6125,-4.6589,-4.7068,-4.6577,-4.5723,-4.4618,-4.4618,-4.4016,0.0,0.0,0.0,0.0,-4.0563,-4.0036,-3.9697,-3.9697,-3.9697,-3.9697,-3.9697,-3.9697,-3.9798,0.0,0.0,0.0,0.0,0.0,0.0,0.0,0.3691,0.4628,0.4122,0.3605,0.2909,0.1896,0.0712,0.0,0.0,-0.0416,0.0,0.0,0.0,0.0,0.0,0.0,0.0,0.0,-0.7812,-0.9006,-0.9414,-1.1362,-1.2305,-1.2305,-1.2418,-1.2603,-1.2784,-1.2672,-1.3223,0.0,0.0,0.0,0.0,0.0,0.0,-2.2275,0.0,0.0,0.0,0.0,0.0,0.0,0.0,0.0,0.0,0.0,0.0,0.0,0.0,-2.3584,-2.4531,-2.541,-2.6084,-2.6475,-2.6211,-2.5478,-2.4746,-2.4473,-2.3715,-2.3222,-2.3627,-2.3387,-2.3222,-2.3671,-2.3757,-2.3684,-2.354,-2.4167,-2.476,-2.5065,-2.7629,-3.0449,-3.2994,-3.5917,0.0,0.0,-4.1811,0.0,0.0,0.0,0.0,-4.2974,-4.2974,-4.2974,-4.2974,-4.4053,-4.4794,-4.5158,-4.5924,-4.6489,-4.6815,-4.6476,-4.5723,-4.4618,-4.4618,-4.4016,0.0,0.0,0.0,0.0,-4.0752,-4.0187,-3.9697,-3.9697,-3.9697,-3.9697,-3.9697,-3.9823,-4.0061,0.0,0.0,0.0,0.0,0.0,0.0,0.0,0.3996,0.4855,0.3481,0.3219,0.2633,0.1256,0.0445,0.0,0.0,0.0,0.0,0.0,0.0,0.0,0.0,0.0,0.0,0.0,-0.8052,-0.9221,-1.0299,-1.156,-1.2224,-1.2311,-1.2623,-1.2777,-1.2831,-1.308,-1.3273,0.0,0.0,0.0,0.0,0.0,0.0,0.0,0.0,0.0,0.0,0.0,0.0,0.0,0.0,0.0,0.0,0.0,0.0,0.0,0.0,0.0,0.0,0.0,-2.4884,-2.5508,-2.5508,-2.4884,-2.4326,-2.4326,-2.3666,0.0,-2.4457,-2.3844,-2.344,-2.4541,-2.4766,-2.4478,-2.3475,-2.4862,-2.5929,-2.5454,-2.8668,-3.2776,0.0,-3.6608,0.0,-4.0848,-4.05,0.0,0.0,0.0,0.0,-4.2974,-4.2974,-4.2974,-4.2974,-4.4053,-4.4618,-4.4618,-4.5748,-4.6313,-4.6313,-4.6313,-4.5723,-4.4618,-4.4618,-4.4016,0.0,0.0,0.0,0.0,-4.0736,-4.0224,-3.9697,-3.9697,-3.9697,-3.9697,-3.9697,-4.0036,-4.0513,0.0,0.0,0.0,0.0,0.0,0.0,0.0,0.0,0.0,0.0,0.2312,0.1477,0.1146,0.0445,0.0,0.0,0.0,0.0,0.0,0.0,0.0,0.0,0.0,0.0,-0.5886,-0.7049,-0.8227,-0.9394,-1.0586,-1.1545,-1.2305,-1.2371,-1.2659,-1.3106,-1.318,-1.3922,0.0,0.0,0.0,0.0,0.0,0.0,0.0,0.0,0.0,0.0,-2.1346,-2.1602,0.0,0.0,0.0,0.0,0.0,0.0,0.0,0.0,-2.2578,-2.273,-2.3257,0.0,-2.3705,-2.3705,-2.3549,-2.3393,0.0,-2.3237,-2.3178,-2.343,-2.3309,-2.3276,-2.391,-2.4446,-2.4943,-2.532,-2.5799,-2.6658,-2.8156,-3.0142,-3.3118,-3.7713,-3.7555,-3.7942,-4.009,-4.1464,0.0,0.0,0.0,-4.2974,-4.2974,-4.2974,-4.2974,-4.2974,-4.4053,-4.4618,-4.4618,-4.5748,-4.6313,-4.6313,-4.6313,-4.5723,-4.4618,-4.4618,-4.4016,0.0,0.0,0.0,-4.1275,-4.115,-4.0576,-3.9697,-3.9697,-3.9697,-3.9697,-3.9697,-4.0036,-4.0463,0.0,0.0,0.0,0.0,0.0,0.0,0.0,0.0,0.0,0.0,0.0,0.0,0.0,0.0,0.0,0.0,0.0,0.0,0.0,0.0,0.0,0.0,0.0,-0.5379,-0.5681,-0.6825,-0.776,-0.8519,-0.9568,-1.0645,-1.162,-1.1759,-1.2293,-1.322,-1.3494,-1.4385,0.0,0.0,0.0,0.0,-1.9447,0.0,0.0,0.0,0.0,0.0,-2.0928,-2.1084,0.0,-2.1319,-2.1319,-2.1319,0.0,0.0,0.0,0.0,-2.207,-2.2314,-2.2734,-2.2945,-2.3091,-2.3091,-2.3091,-2.3091,-2.3091,-2.3091,-2.3266,-2.3757,-2.3464,-2.3334,-2.4122,-2.4965,-2.5625,-2.5841,-2.7095,-2.8937,-3.1401,-3.3056,-3.5291,-3.8885,-3.8898,-3.9333,0.0,0.0,0.0,0.0,0.0,-4.2974,-4.2974,-4.3212,-4.3237,-4.2986,-4.4305,-4.4895,-4.4618,-4.5748,-4.6313,-4.6313,-4.605,-4.5472,-4.4618,-4.4367,-4.3777,0.0,0.0,0.0,-4.1288,-4.1288,-4.0689,-3.9697,-3.9697,-3.9697,-3.9722,-3.9986,-4.0425,-4.0852,0.0,0.0,0.0,0.0,0.0,0.0,0.0,0.0,0.0,0.0,0.0,0.0,0.0,0.0,0.0,0.0,0.0,0.0,0.0,0.0,0.0,0.0,0.0,-0.5525,-0.5762,-0.6743,-0.7397,-0.7736,-0.8604,-0.9557,-1.0565,-1.0945,-1.1848,-1.324,-1.3821,-1.4615,0.0,0.0,0.0,0.0,-1.844,0.0,0.0,0.0,0.0,0.0,0.0,0.0,0.0,-2.0507,-2.0458,-2.041,-2.041,0.0,0.0,0.0,0.0,0.0,-2.2383,-2.2779,-2.3135,-2.3299,-2.3343,-2.3343,-2.3343,-2.3343,-2.3594,-2.4382,-2.3757,-2.3493,-2.4679,-2.5822,-2.6554,-2.6368,-2.9068,-3.2031,-3.4533,-3.612,-3.7826,-4.0012,-4.0055,0.0,0.0,0.0,0.0,0.0,0.0,-4.2974,-4.2974,-4.3501,-4.3589,-4.3124,-4.4656,-4.5246,-4.4756,-4.5786,-4.6276,-4.6175,-4.5711,-4.5146,-4.448,-4.4016,-4.3501,-4.2974,0.0,0.0,-4.1288,-4.1288,-4.0689,-3.9697,-3.9697,-3.9747,-3.9873,-4.0337,-4.0915,-4.1388,0.0,0.0,0.0,0.0,0.0,0.0,0.0,0.0,0.0,0.0,0.0,0.0,0.0,0.0,0.0,0.0,0.0,0.0,0.0,0.0,0.0,-0.3915,-0.4891,-0.5477,-0.5616,-0.5901,-0.6557,-0.7537,-0.7686,-0.8361,-0.9556,-1.0324,-1.1602,-1.324,-1.3821,-1.4208,-1.4334,0.0,0.0,0.0,0.0,0.0,0.0,0.0,0.0,0.0,0.0,0.0,0.0,-2.0019,-1.9775,-1.9482,-1.9482,0.0,0.0,0.0,0.0,0.0,-2.2295,-2.2779,-2.3343,-2.4296,-2.4542,-2.4542,-2.4542,-2.4542,-2.4286,-2.3507,-2.3222,-2.3539,-2.5028,-2.6334,-2.7731,-2.9378,-3.2528,-3.5137,0.0,0.0,-3.8268,-3.9175,0.0,-4.0457,0.0,0.0,0.0,0.0,0.0,-4.2974,-4.2974,-4.3501,-4.3765,-4.3677,-4.4857,-4.5447,-4.5359,-4.5987,-4.6075,-4.561,-4.5535,-4.4945,-4.3928,-4.384,-4.3501,-4.2974,0.0,-4.2359,-4.1288,-4.1288,-4.0689,-3.9697,-3.9697,-3.9986,-4.04,-4.0488,-4.1153,-4.1969,0.0,0.0,0.0,0.0,0.0,0.0,0.0,0.0,0.0,0.0,0.0,0.0,0.0,0.0,0.0,0.0,0.0,0.0,0.0,0.0,0.0,-0.3249,-0.3719,-0.4477,-0.5589,-0.581,-0.6134,-0.6586,-0.6586,-0.7389,-0.8979,-1.088,-1.2304,-1.324,-1.3821,-1.4088,-1.4088,-1.4088,0.0,0.0,0.0,0.0,0.0,0.0,0.0,0.0,0.0,0.0,0.0,0.0,-1.9443,-1.9287,-1.9287,0.0,0.0,0.0,0.0,0.0,-2.1541,-2.2139,-2.2797,-2.4127,-2.4798,-2.5231,-2.5611,-2.5724,-2.5557,-2.5062,-2.4935,-2.5243,-2.6227,-2.7895,-3.0095,-3.3146,-3.5217,-3.6793,-3.7885,-3.8564,-3.9308,0.0,0.0,0.0,0.0,0.0,0.0,0.0,0.0,0.0,-4.2974,-4.3501,-4.3802,-4.3802,-4.4895,-4.5485,-4.5485,-4.6037,-4.6037,-4.5485,-4.5171,-4.4593,-4.379,-4.3489,-4.3212,-4.2961,0.0,-4.2082,-4.1263,-4.0962,-4.0425,-3.9697,-3.9697,-4.0036,-4.0588,-4.1178,-4.1907,-4.2615,0.0,0.0,0.0,0.0,0.0,0.0,0.0,0.0,0.0,0.0,0.0,0.0,0.0,0.0,0.0,0.0,0.0,0.0,0.0,0.0,-0.2145,-0.2369,-0.2407,-0.3325,-0.5192,-0.5463,-0.5629,-0.5698,-0.5735,-0.6754,-0.8709,-1.1235,-1.2712,-1.324,-1.3821,-1.4088,-1.4088,-1.4088,-1.4088,0.0,0.0,0.0,0.0,0.0,0.0,0.0,0.0,0.0,0.0,0.0,0.0,0.0,0.0,0.0,0.0,-1.9521,-1.9756,-2.0088,-2.0869,-2.1736,-2.2703,-2.3908,-2.4735,-2.5443,-2.6079,-2.6485,-2.6643,-2.6504,-2.6694,-2.7068,-2.7778,-2.9914,-3.2621,-3.5875,-3.7048,-3.7977,-3.9094,-3.9735,-4.0438,-4.1417,0.0,0.0,0.0,0.0,0.0,0.0,0.0,0.0,-4.2974,-4.3501,-4.3865,-4.3991,-4.4957,-4.5547,-4.5686,-4.61,-4.5962,-4.5284,-4.4832,-4.4267,-4.3589,-4.3175,-4.2898,-4.276,-4.2389,-4.1769,-4.1062,-4.0689,-4.0187,-3.9697,-3.9697,-4.0111,-4.084,-4.1999,-4.259,-4.2785,0.0,0.0,0.0,0.0,0.0,0.0,0.0,0.0,0.0,0.0,0.0,0.0,0.0,0.0,0.0,0.0,0.0,0.0,0.0,0.0,-0.056,-0.1358,-0.1575,-0.2447,-0.4066,-0.4252,-0.4689,-0.5426,-0.5569,-0.6708,-0.8804,-1.0519,-1.2006,-1.324,-1.3821,-1.4088,-1.4088,-1.4088,-1.4088,-1.4292,0.0,0.0,0.0,0.0,0.0,0.0,0.0,0.0,0.0,0.0,0.0,0.0,0.0,0.0,-1.8656,-1.8685,-1.926,-2.0019,-2.0527,-2.2291,-2.4084,-2.4187,-2.4525,-2.4944,-2.5397,-2.6389,-2.7077,-2.6427,-2.7228,-2.8325,-2.9407,-3.2232,-3.4848,-3.6157,-3.775,-3.9132,-4.0237,0.0,-4.1442,-4.2087,0.0,0.0,0.0,0.0,0.0,0.0,0.0,0.0,-4.2974,-4.3501,-4.4041,-4.4556,-4.5171,-4.5736,-4.625,-4.6288,-4.5761,-4.4681,-4.4644,-4.4066,-4.3037,-4.2999,-4.2753,-4.2263,-4.2225,-4.1555,-4.0576,-4.0538,-4.0187,-3.9697,-3.9697,-4.0337,-4.1363,-4.2509,-4.2678,-4.2263,0.0,0.0,0.0,0.0,0.0,0.0,0.0,0.0,0.0,0.0,0.0,0.0,0.0,0.0,0.0,0.0,0.0,0.0,0.0,-0.1001,-0.0713,-0.0491,-0.0547,-0.1136,-0.2291,-0.3024,-0.3732,-0.4416,-0.629,-0.8132,-0.9957,-1.1471,-1.2557,-1.3227,-1.3593,-1.3714,-1.3554,-1.3734,-1.4207,-1.4945,-1.5909,0.0,0.0,0.0,0.0,0.0,0.0,0.0,0.0,0.0,-1.8325,-1.8105,-1.8633,-1.8545,-1.8315,-1.8887,-1.9072,-1.9231,-1.9971,-2.1223,-2.2554,-2.3541,-2.4283,-2.5285,-2.715,-2.8241,-2.8883,-2.8964,-3.0187,-3.152,-3.2653,-3.4703,-3.6496,-3.7262,-3.8504,-3.9647,-4.0413,-4.0701,-4.1028,0.0,0.0,0.0,0.0,0.0,0.0,0.0,0.0,0.0,-4.2961,-4.3175,-4.3539,-4.4104,-4.4317,-4.4706,-4.5259,-4.5259,-4.4869,-4.4116,-4.4819,-4.4581,-4.3489,-4.3489,-4.2999,-4.2187,-4.1794,-4.1216,-4.0488,-4.0149,-3.9885,-3.976,-4.045,-4.1178,-4.1944,-4.2698,-4.2848,-4.2728,0.0,0.0,0.0,0.0,0.0,0.0,0.0,0.0,0.0,0.0,0.0,0.0,0.0,0.0,0.0,0.0,0.0,0.0,-0.0952,-0.0887,-0.0639,-0.0036,0.0,-0.0293,-0.0864,-0.1621,-0.257,-0.374,-0.6594,-0.8684,-1.0087,-1.1747,-1.2717,-1.308,-1.3333,-1.336,-1.3227,-1.3871,-1.4588,-1.536,-1.6337,-1.7415,0.0,0.0,0.0,0.0,0.0,0.0,0.0,0.0,-1.85,-1.8496,-1.8945,-1.8682,-1.8301,-1.875,-1.8867,-1.8939,-1.9561,-2.0769,-2.2191,-2.3229,-2.4541,-2.622,-2.8615,-2.963,-3.0236,-3.092,-3.2287,-3.3621,-3.455,-3.6278,-3.7601,0.0,-3.917,-4.0312,-4.0251,-4.0413,0.0,0.0,0.0,0.0,0.0,0.0,0.0,0.0,0.0,0.0,0.0,-4.2974,-4.3237,-4.3777,-4.3802,-4.4066,-4.4618,-4.4618,-4.443,-4.4066,-4.4844,-4.4631,-4.3539,-4.3539,-4.2936,-4.1869,-4.1505,-4.0874,-4.0224,-3.9848,-3.9798,-4.0049,-4.0924,-4.1681,-4.225,-4.264,-4.2823,-4.2949,0.0,0.0,0.0,0.0,0.0,0.0,0.0,0.0,0.0,0.0,0.0,0.0,0.0,0.0,0.0,0.0,0.0,0.0,-0.0031,0.0,0.0,0.0,0.0,0.0,0.0,-0.0032,-0.1189,-0.3597,-0.6219,-0.7949,-0.8875,-1.0941,-1.2221,-1.2797,-1.3066,-1.32,-1.3292,-1.4678,-1.529,-1.5513,-1.7985,-1.835,-1.7577,0.0,0.0,0.0,0.0,0.0,0.0,0.0,-1.8936,-1.9209,-1.8754,-1.8617,-1.8529,-1.8144,-1.8623,-1.9297,-1.9323,-2.1344,-2.3482,-2.3532,-2.5448,-2.777,-2.9444,-3.0221,-3.0902,-3.192,-3.3073,-3.4073,-3.4638,-3.6664,0.0,-3.7326,-3.9669,-4.1119,-3.989,-4.0162,0.0,0.0,0.0,0.0,0.0,0.0,0.0,0.0,0.0,0.0,0.0,-4.2974,-4.3225,-4.3777,-4.379,-4.4053,-4.4606,-4.4606,-4.4606,-4.4606,-4.4606,-4.4028,-4.2986,-4.2986,-4.2384,-4.1288,-4.1288,-4.0714,-3.9697,-3.9697,-4.0023,-4.0576,-4.1062,-4.1668,-4.2213,-4.2213,-4.2552,-4.2898,0.0,0.0,0.0,0.0,0.0,0.0,0.0,0.0,0.0,0.0,0.0,0.0,0.0,0.0,0.0,0.0,0.0,0.0,0.0738,0.0294,0.0237,0.0757,0.0284,0.0,0.0,-0.1242,-0.2599,-0.4025,-0.6062,-0.8148,-1.0231,-1.1023,-1.1784,-1.2445,-1.279,-1.269,-1.2372,-1.3883,-1.515,-1.6225,-1.786,-1.8939,-1.9678,0.0,0.0,0.0,0.0,0.0,0.0,0.0,0.0,0.0,-1.9482,-1.9494,-1.9358,-1.8627,-1.9026,-1.9807,-2.0252,-2.136,-2.2969,-2.5138,-2.7057,-2.8982,-3.1018,-3.1302,-3.1781,-3.4031,-3.4466,-3.4763,-3.5705,-3.7093,0.0,-3.7775,-3.9183,-4.0121,-3.9736,0.0,0.0,0.0,0.0,0.0,0.0,0.0,0.0,0.0,0.0,0.0,0.0,-4.2974,-4.3049,-4.3212,-4.3225,-4.33,-4.3463,-4.3463,-4.3463,-4.3463,-4.3074,-4.3124,-4.3551,-4.3551,-4.2748,-4.1288,-4.1288,-4.0714,-3.9697,-3.9697,-4.0023,-4.0538,-4.0701,-4.1329,-4.2213,-4.2213,-4.2552,-4.2949,0.0,0.0,0.0,0.0,0.0,0.0,0.0,0.0,0.0,0.0,0.0,0.0,0.0,0.0,0.0,0.0,0.0,0.0,0.0,0.0507,0.0496,0.0649,0.0247,-0.0217,-0.0624,-0.2379,-0.3644,-0.44,-0.6074,-0.7801,-0.9479,-0.9952,-1.0658,-1.1535,-1.1672,-1.1794,-1.2004,-1.3455,-1.4741,-1.591,-1.7488,-1.8554,-1.9221,0.0,0.0,0.0,0.0,0.0,0.0,0.0,0.0,0.0,-1.9883,-1.9805,-1.96,-1.9212,-1.9394,-1.9866,-2.071,-2.1451,-2.259,-2.5228,-2.7405,-2.9638,-3.2537,-3.3093,-3.3596,-3.5478,-3.5382,-3.5316,-3.6241,-3.7527,0.0,-3.8063,-3.9372,-4.0185,-3.9498,0.0,0.0,0.0,0.0,0.0,0.0,0.0,0.0,0.0,0.0,0.0,0.0,-4.2703,-4.2547,-4.2333,-4.2534,-4.2547,-4.2333,-4.2333,-4.2333,-4.2321,-4.1995,-4.2183,-4.2823,-4.2823,-4.2158,-4.0949,-4.0777,-4.0312,-3.9697,-3.9697,-4.0023,-4.0513,-4.0513,-4.1053,-4.1806,-4.158,-4.2049,-4.264,0.0,0.0,0.0,0.0,0.0,0.0,0.0,0.0,0.0,0.0,-0.0112,-0.0112,0.0,0.0,0.0,0.0,0.0,0.0,0.0,0.0,0.0735,0.0138,-0.007,-0.0635,-0.173,-0.3385,-0.4458,-0.4854,-0.6154,-0.7047,-0.7553,-0.8188,-0.9177,-1.036,-1.0172,-1.075,-1.191,-1.3236,-1.4162,-1.4858,-1.6859,-1.7319,-1.7024,-1.8976,0.0,0.0,0.0,0.0,0.0,0.0,0.0,0.0,-2.0049,-1.9707,-1.9512,-1.9775,-1.9668,-1.9754,-2.0938,-2.1606,-2.2468,-2.4598,-2.7269,-3.033,-3.395,-3.5182,-3.5696,-3.6194,-3.5931,-3.5734,-3.638,-3.7826,-3.8708,-3.8099,-3.9855,-4.0694,0.0,0.0,0.0,0.0,0.0,0.0,0.0,0.0,0.0,0.0,0.0,0.0,0.0,-4.2137,-4.1856,-4.13,-4.1819,-4.1844,-4.13,-4.1288,-4.1288,-4.1288,-4.1238,-4.1213,-4.1213,-4.1263,-4.0987,-4.0488,-3.9936,-3.9697,-3.9697,-3.9697,-3.9986,-4.0438,-4.0438,-4.0724,-4.115,-4.0752,-4.1254,-4.2074,0.0,0.0,0.0,0.0,0.0,0.0,0.0,0.0,0.0,0.0,0.0,0.0,0.0,0.0,0.0,0.0,0.0,0.0,0.0,0.0,0.0435,0.0855,-0.0483,-0.1727,-0.2745,-0.3967,-0.505,-0.5968,-0.5994,-0.663,-0.7753,-0.7742,-0.856,-1.0026,-1.0055,-1.0504,-1.127,-1.2577,-1.3388,-1.391,-1.5358,-1.6046,-1.6365,-1.7775,-1.821,0.0,0.0,0.0,0.0,0.0,0.0,0.0,-2.0049,-2.0332,-2.0596,-1.9697,-2.0088,-2.0948,-2.1653,-2.2154,-2.3311,-2.6588,-3.0115,-3.3247,-3.494,-3.5793,-3.6094,-3.578,-3.5968,-3.6358,-3.6958,-3.7326,-3.7676,-3.7964,-3.8438,0.0,0.0,0.0,0.0,0.0,0.0,0.0,0.0,0.0,0.0,0.0,0.0,0.0,-4.1517,-4.1517,-4.1401,-4.1288,-4.1401,-4.1401,-4.1288,-4.1288,-4.1288,0.0,-4.0849,-4.0701,-4.0714,-4.1087,-4.0987,-4.0488,-3.9936,-3.9697,-3.9697,-3.9697,-3.976,-3.9873,-3.9873,-4.0212,-4.0727,-4.0987,-4.158,-4.2238,0.0,0.0,0.0,0.0,0.0,0.0,0.0,0.0,0.0,0.0,0.0,0.0,0.0,0.0,0.0,0.0,0.0,0.0,0.0,0.0,0.0537,0.0568,-0.1287,-0.2561,-0.3081,-0.4647,-0.5747,-0.63,-0.6027,-0.6544,-0.7774,-0.7052,-0.7838,-0.9863,-0.9327,-0.9822,-1.1035,-1.1715,-1.2487,-1.3364,-1.3962,-1.4377,-1.474,-1.5977,-1.6561,-1.6863,-1.7978,0.0,0.0,0.0,0.0,0.0,0.0,0.0,-2.0293,-2.0234,-2.0362,-2.0811,-2.1939,-2.2659,-2.4086,-2.8251,-3.0279,-3.1808,-3.3801,-3.4703,-3.4924,-3.4384,-3.5407,-3.6505,-3.6782,-3.7059,-3.7274,-3.7563,-3.7839,0.0,0.0,0.0,0.0,0.0,0.0,0.0,0.0,0.0,0.0,0.0,0.0,-4.0664,-4.0874,-4.094,-4.0827,-4.0563,-4.0802,-4.0761,-4.0563,-4.0551,-4.0551,-4.0551,-4.0262,-4.0124,-4.0136,-4.0425,-4.0388,-4.0111,-3.9823,-3.9697,-3.9697,-3.9697,-3.9697,-3.9697,-3.9697,-3.9873,-4.0162,-4.0438,-4.0902,-4.1417,0.0,0.0,0.0,0.0,0.0,0.0,0.0,0.0,0.0,0.0,0.0,0.0,0.0,0.0,0.0,0.0,0.0,0.0,0.0,0.0,0.0,0.0036,-0.1818,-0.2923,-0.3083,-0.498,-0.6063,-0.6259,-0.6064,-0.666,-0.7989,-0.6485,-0.7236,-0.9794,-0.8536,-0.9081,-1.0948,-1.1079,-1.1824,-1.2888,-1.2975,-1.2983,-1.3095,-1.4299,-1.4847,-1.5128,-1.6466,-1.7783,-1.895,-1.9329,0.0,0.0,0.0,0.0,-1.9629,-2.0781,-2.0605,-2.0361,-2.1875,-2.3135,-2.4998,-2.913,-2.9704,-2.9875,-3.2462,-3.3464,-3.3729,-3.3284,-3.4829,-3.6267,-3.6267,-3.6596,-3.6935,-3.7023,0.0,0.0,0.0,0.0,0.0,0.0,0.0,0.0,0.0,0.0,0.0,0.0,0.0,-3.9885,-4.035,-4.0375,-4.0162,-3.971,-4.0136,-4.0162,-3.9697,-3.9697,-3.9697,-3.9697,-3.9697,-3.9697,-3.9697,-3.9697,-3.9697,-3.9697,-3.9697,-3.9697,-3.9697,-3.9697,-3.9697,-3.9697,-3.9697,-3.9697,-3.9697,-3.9798,-4.0187,-4.0676,0.0,0.0,0.0,0.0,0.0,0.0,0.0,0.0,0.0,0.0,0.0,0.0,0.0,0.0,0.0,0.0,0.0,0.0,0.0,0.0,0.0,0.0,-0.1168,-0.2202,-0.3081,-0.4168,-0.5185,-0.6023,-0.5908,-0.688,-0.8883,-0.6667,-0.7048,-0.9506,-0.8467,-0.8985,-1.071,-1.1409,-1.1798,-1.2052,-1.2965,-1.293,-1.2447,-1.3736,-1.3798,-1.3387,-1.4635,-1.5947,-1.718,-1.7459,-1.8354,0.0,0.0,0.0,-1.9941,-2.0488,-2.0605,-2.0615,-2.124,-2.3728,-2.655,-2.8051,-3.0482,-3.2684,-3.3563,-3.42,-3.4574,0.0,-3.5078,-3.5608,-3.5608,-3.5671,-3.5918,-3.6443,0.0,0.0,0.0,0.0,0.0,0.0,0.0,0.0,0.0,0.0,0.0,0.0,-3.9735,-3.9722,-3.9798,-3.9798,-3.9772,-3.9697,-3.9772,-3.9772,-3.9697,-3.9697,-3.9697,-3.9697,-3.9697,-3.9697,-3.9697,-3.9697,-3.9697,-3.9697,-3.9697,-3.9697,-3.9697,-3.9697,-3.9697,-3.9697,-3.9697,-3.9697,-3.9747,-4.0224,-4.0752,-4.1238,0.0,0.0,0.0,0.0,0.0,0.0,0.0,0.0,0.0,0.0,0.0,0.0,0.0,0.0,0.0,-0.0028,0.0,0.0,0.0,0.0,0.0,0.0,-0.1039,-0.1799,-0.2251,-0.3722,-0.471,-0.5161,-0.55,-0.6462,-0.7947,-0.6933,-0.8014,-1.0761,-0.9082,-0.9349,-1.1102,-1.1739,-1.2294,-1.2735,-1.3039,-1.296,-1.2664,-1.2782,-1.2996,-1.3355,-1.3893,-1.5389,-1.7201,-1.754,-1.805,-1.8691,-1.9355,0.0,0.0,0.0,-2.0195,-2.0544,-2.2049,-2.403,-2.6142,-2.8464,-2.9804,-3.0822,-3.1719,-3.2369,-3.2589,-3.1979,-3.2791,-3.3916,-3.4868,-3.5044,-3.5119,0.0,0.0,0.0,0.0,0.0,0.0,0.0,0.0,0.0,0.0,0.0,0.0,0.0,-3.9233,-3.9371,-3.9672,-3.9697,-3.9697,-3.9697,-3.9697,-3.9697,-3.9697,-3.9697,-3.9697,-3.9697,-3.9697,-3.9697,-3.9697,-3.9697,-3.9697,-3.9697,-3.9697,-3.9697,-3.9697,-3.9697,-3.9697,-3.9697,-3.9697,-3.9697,-3.9722,-3.9961,-4.0212,-4.0538,0.0,0.0,0.0,0.0,0.0,0.0,0.0,0.0,0.0,0.0,0.0,0.0,0.0,0.0,0.0,0.0,0.028,0.0199,0.0,0.0,0.0,0.0,-0.0769,-0.1328,-0.1599,-0.3194,-0.4169,-0.4413,-0.518,-0.6106,-0.7145,-0.7146,-0.8785,-1.1636,-0.9875,-1.002,-1.1585,-1.2329,-1.2994,-1.354,-1.3582,-1.3494,-1.3243,-1.2626,-1.2849,-1.3445,-1.3536,0.0,0.0,0.0,-1.7629,-1.7998,-1.8857,-1.8896,0.0,0.0,0.0,-2.0189,-2.2232,-2.3532,-2.5057,-2.8217,-2.8846,-2.9033,-3.0341,-3.0946,-3.1007,0.0,-3.1107,-3.239,-3.3646,-3.411,-3.4399,0.0,0.0,0.0,0.0,0.0,0.0,0.0,0.0,0.0,0.0,0.0,0.0,0.0,-3.8831,-3.9044,-3.9471,-3.9622,-3.9634,-3.9484,-3.9484,-3.9484,-3.9484,-3.9622,-3.9697,-3.9697,-3.9697,-3.9622,-3.9484,-3.9634,-3.9622,-3.9496,-3.9634,-3.9697,-3.9697,-3.9697,-3.9697,-3.9697,-3.9697,-3.9697,-3.9697,-3.9697,-3.9785,-4.0023,0.0,0.0,0.0,0.0,0.0,0.0,0.0,0.0,0.0,0.0,0.0,0.0,-0.0084,0.0615,0.1034,0.1034,0.1034,0.0738,0.0059,0.0,0.0,0.0,-0.0068,0.0,-0.1561,-0.2376,-0.3254,-0.4228,-0.5002,-0.606,-0.7279,-0.7305,-0.8697,-1.1207,-1.0735,-1.1011,-1.1965,-1.3243,-1.3826,-1.3966,-1.4884,-1.4815,-1.4115,-1.4085,-1.3653,-1.3052,0.0,0.0,0.0,0.0,0.0,0.0,-1.8373,-1.8617,-1.8695,0.0,0.0,0.0,-2.0506,-2.183,-2.3606,-2.614,-2.7823,-2.933,-3.0959,-3.1367,-3.1367,-3.1317,-3.137,-3.1461,-3.1549,-3.2441,-3.3508,0.0,0.0,0.0,0.0,0.0,0.0,0.0,0.0,0.0,0.0,0.0,0.0,0.0,-3.8567,-3.8881,-3.8957,-3.9408,-3.9459,-3.8982,-3.8957,-3.8957,-3.8957,-3.9433,-3.9697,-3.9697,-3.9697,-3.9421,-3.8982,-3.9459,-3.9408,-3.8994,-3.9471,-3.9697,-3.9697,-3.9697,-3.9697,-3.9697,-3.9697,-3.9697,-3.9697,-3.9697,-4.0023,-4.0488,0.0,0.0,0.0,0.0,0.0,0.0,0.0,0.0,0.0,0.0,0.0,0.0,0.0,0.0671,0.109,0.109,0.109,0.0787,0.0057,0.0,0.0,0.0,0.0,-0.0174,-0.0569,-0.1393,-0.2273,-0.3244,-0.4071,-0.5123,-0.6365,-0.7668,-0.8866,-0.9981,-1.0513,-1.1384,-1.2547,-1.3785,-1.4293,-1.4362,-1.5445,-1.537,-1.4626,-1.4303,0.0,0.0,0.0,0.0,0.0,0.0,0.0,0.0,-1.81,-1.8198,-1.8286,-1.875,-1.9072,-1.9414,-1.999,-2.1765,-2.384,-2.5729,-2.7881,-2.9707,-3.0678,-3.0896,-3.0796,-3.0432,-3.0369,-3.047,-3.0821,-3.1499,-3.2114,0.0,0.0,0.0,0.0,0.0,0.0,0.0,0.0,0.0,0.0,0.0,0.0,0.0,0.0,-3.7788,-3.8856,-3.8705,-3.8693,-3.8906,-3.8504,-3.8316,-3.8316,-3.8517,-3.8617,-3.8617,-3.8617,-3.8504,-3.8329,-3.8517,-3.8705,-3.8932,-3.9082,-3.9371,-3.9697,-3.9697,-3.9697,-3.9697,-3.9697,-3.9697,-3.9697,-3.9697,-3.9823,-4.0036,0.0,0.0,0.0,0.0,0.0,0.0,0.0,0.0,0.0,-0.1202,0.0,0.0,0.0,0.0,0.109,0.109,0.1101,0.0796,0.0057,0.0,0.0,0.0,0.0,0.0,0.0,-0.1175,-0.206,-0.2686,-0.3903,-0.49,-0.5767,-0.7743,-0.8929,-0.9399,-1.0497,-1.1675,-1.2864,-1.4142,-1.4661,-1.476,-1.5716,-1.5954,-1.5685,0.0,0.0,0.0,0.0,0.0,0.0,0.0,0.0,0.0,-1.7705,-1.79,-1.8066,-1.8315,-1.8633,-1.8945,-1.9329,-2.0802,-2.2768,-2.4963,-2.6741,-2.8387,-2.9961,-3.0181,-3.0005,-2.9829,-2.9792,-2.9905,-3.0269,-3.062,-3.0972,0.0,0.0,0.0,0.0,0.0,0.0,0.0,0.0,0.0,0.0,0.0,0.0,0.0,0.0,0.0,-3.9106,-3.9158,-3.9297,-3.9505,-3.9116,-3.8908,-3.8908,-3.8694,-3.8615,-3.8615,-3.8199,-3.7914,-3.7739,-3.7927,-3.8216,-3.8592,-3.8831,-3.9182,-3.9697,-3.9697,-3.9697,-3.9697,-3.9697,-3.9697,-3.9697,-3.9697,-3.9697,-3.9747,0.0,0.0,0.0,0.0,0.0,0.0,0.0,0.0,-0.1898,-0.1174,0.0,0.0,0.0,0.0,0.0,0.1091,0.1095,0.0794,0.0059,0.0,0.0,0.0,0.0,0.0,0.0,-0.175,-0.2692,-0.2689,-0.4484,-0.5443,-0.5624,-0.7516,-0.878,-0.9514,-1.0821,-1.1904,-1.2875,-1.4351,-1.4977,-1.5089,0.0,-1.6643,-1.7353,0.0,0.0,0.0,-1.6853,-1.6465,0.0,-1.6114,0.0,0.0,-1.7161,-1.7686,-1.8008,-1.8008,-1.8008,-1.8105,0.0,0.0,0.0,-2.3594,-2.4397,-2.5271,-2.8906,0.0,-2.9026,-2.9641,-2.9767,-2.9779,-2.9792,-2.9792,0.0,0.0,0.0,0.0,0.0,0.0,0.0,0.0,0.0,0.0,0.0,0.0,0.0,0.0,-3.8997,-3.9686,-3.9713,-4.0828,-4.1186,-4.0669,-4.0642,-4.0628,-4.0628,-4.004,-3.9715,-3.9715,-3.8515,-3.7676,-3.7174,-3.7713,-3.7965,-3.8015,-3.858,-3.9145,-3.9672,-3.9685,-3.9697,-3.9697,-3.9697,-3.9697,-3.9697,-3.9697,-3.9697,-3.9697,0.0,0.0,0.0,0.0,0.0,0.0,-0.1507,-0.1396,-0.1146,0.0,0.0,0.0,-0.0028,0.0671,0.1101,0.1098,0.111,0.0801,0.0061,0.0,0.0,0.0,0.0,0.0,0.0,-0.1246,-0.2161,-0.2693,-0.3916,-0.4886,-0.5624,-0.7516,-0.8576,-0.8908,-1.0653,-1.1529,-1.189,-1.3614,-1.4833,-1.5632,-1.6286,-1.7061,0.0,0.0,0.0,0.0,0.0,-1.6855,-1.7005,0.0,-1.6963,-1.751,0.0,-1.792,-1.8008,-1.8008,-1.8008,-1.8037,-1.8154,0.0,0.0,0.0,0.0,0.0,0.0,0.0,-2.8499,-2.9013,-2.9126,-2.9289,-2.9716,-2.9792,0.0,0.0,0.0,0.0,0.0,0.0,0.0,0.0,0.0,0.0,0.0,0.0,0.0,0.0,-3.8253,-3.8875,-3.9672,-4.0043,-3.9933,-3.9428,-3.8944,-3.8667,-3.8667,-3.8118,-3.784,-3.7853,-3.7151,-3.6782,-3.6644,-3.6795,-3.7036,-3.7425,-3.7575,-3.8203,-3.9132,-3.9534,-3.9697,-3.9697,-3.9697,-3.9697,-3.9697,-3.9697,-3.9697,-3.9697,0.0,0.0,0.0,0.0,0.0,-0.1031,-0.0307,-0.0196,-0.0028,0.0,0.0,0.0,0.043,0.1127,0.1585,0.1668,0.1693,0.1516,0.1158,0.0761,0.0548,0.0557,0.0206,0.0,0.0,-0.1402,-0.2335,-0.2766,-0.4124,-0.5088,-0.5709,-0.706,-0.801,-0.8654,-0.9938,-1.0924,-1.1694,-1.3226,0.0,0.0,-1.6618,0.0,0.0,-1.7555,-1.734,0.0,0.0,0.0,-1.8155,-1.7486,-1.7459,0.0,0.0,0.0,0.0,-1.8057,-1.8135,0.0,0.0,0.0,0.0,0.0,0.0,0.0,-2.67,-2.748,-2.7846,0.0,-2.8423,-2.8687,-2.9026,-2.9089,0.0,0.0,0.0,0.0,0.0,0.0,0.0,0.0,0.0,0.0,0.0,-3.5475,-3.6262,-3.7322,-3.8263,-3.9552,-4.1299,-4.173,-4.136,-4.0118,-3.9687,-3.9333,-3.8956,-3.8145,-3.7786,-3.7853,-3.7079,-3.6574,-3.6405,-3.6405,-3.6707,-3.7186,-3.7186,-3.7826,-3.8881,-3.8956,-3.927,-3.9672,-3.9433,-3.9484,-3.9697,-3.9697,-3.9697,-3.9697,0.0,0.0,0.1415,0.0675,0.0574,0.0756,0.1256,0.1371,0.136,0.0,0.0643,0.0498,0.1145,0.1828,0.2303,0.2499,0.2518,0.2563,0.27,0.1915,0.1407,0.1307,0.0553,0.0106,0.0,-0.182,-0.2798,-0.2892,-0.464,-0.5579,-0.5808,-0.6439,-0.7353,-0.8573,0.0,0.0,-1.2018,0.0,0.0,-1.5667,-1.6943,-1.8193,0.0,0.0,-1.8247,-1.8586,-1.9021,-1.9243,-1.9194,-1.8302,-1.7743,0.0,0.0,0.0,0.0,0.0,-1.8344,0.0,0.0,0.0,0.0,0.0,0.0,0.0,-2.5432,-2.6574,-2.7241,0.0,-2.767,-2.8034,-2.8097,-2.816,0.0,0.0,0.0,0.0,0.0,0.0,0.0,0.0,0.0,0.0,-3.3193,-3.391,-3.498,-3.6573,-3.8573,-4.084,-4.3436,-4.4311,-4.3769,-4.1666,-4.1523,-4.1005,-4.0068,-3.908,-3.8578,-3.8572,-3.7584,-3.6832,-3.6317,-3.638,-3.6681,-3.7098,-3.7098,-3.7701,-3.8693,-3.8065,-3.8567,-3.9634,-3.9082,-3.9207,-3.9697,-3.9697,-3.9697,-3.9697,0.0,0.5834,0.4923,0.4078,0.4136,0.3949,0.3014,0.3086,0.2976,0.2088,0.1859,0.1822,0.1958,0.2245,0.2472,0.2491,0.2596,0.2672,0.2683,0.2536,0.2075,0.134,0.1137,0.0702,0.0,-0.1213,-0.2193,-0.289,-0.4135,-0.5029,-0.5665,-0.6481,-0.731,-0.8154,-0.8954,0.0,0.0,0.0,0.0,-1.6629,-1.7537,0.0,-1.9228,-1.8676,-1.8325,-1.8125,-1.8231,-1.8269,-1.8273,-1.8071,-1.7721,-1.75,0.0,0.0,0.0,-1.8857,0.0,0.0,0.0,0.0,0.0,0.0,0.0,0.0,-2.6013,-2.6511,-2.6788,0.0,-2.7369,-2.7582,-2.8021,-2.8461,0.0,0.0,0.0,0.0,0.0,0.0,0.0,0.0,0.0,0.0,-3.1659,-3.2923,-3.408,-3.4841,-3.7438,-4.0138,-4.2741,-4.2583,-4.1918,-4.0923,-4.0365,-3.9419,-3.8003,-3.7936,-3.7462,-3.6631,-3.6954,-3.658,-3.5671,-3.6157,-3.6468,-3.6568,-3.6568,-3.6945,-3.7475,-3.6958,-3.7877,-3.9634,-3.9082,-3.9207,-3.9697,-3.9697,-3.9697,-3.9697,0.703,0.6612,0.6147,0.5753,0.6449,0.6649,0.5417,0.5069,0.4535,0.3447,0.2996,0.2789,0.2747,0.3251,0.362,0.3676,0.3419,0.3513,0.4094,0.3247,0.2529,0.212,0.1573,0.0902,0.0036,-0.1062,-0.1827,-0.2265,-0.3766,-0.4683,-0.5075,-0.6333,-0.7326,-0.8129,-0.9095,-1.0686,0.0,0.0,-1.5463,-1.7059,-1.7743,0.0,-1.8916,-1.8486,-1.8193,-1.8076,-1.8496,-1.8654,-1.8761,-1.9471,-1.909,0.0,0.0,-1.8936,-1.9287,0.0,-1.963,-2.0165,0.0,0.0,0.0,-2.3902,0.0,0.0,0.0,-2.6129,-2.6575,-2.6851,-2.6901,-2.6989,-2.7231,0.0,-2.7695,0.0,0.0,0.0,0.0,0.0,0.0,0.0,0.0,0.0,-3.0482,-3.1469,-3.2676,-3.4088,-3.6942,-3.9154,-4.0446,-4.147,-4.1133,-3.9253,-3.9266,-3.8522,-3.6956,-3.7358,-3.7343,-3.6894,-3.733,-3.7104,-3.6282,-3.6375,-3.6405,-3.6405,-3.6405,-3.6719,-3.7149,-3.6631,-3.7349,-3.8831,-3.8542,-3.8956,-3.9697,-3.9697,-3.9697,-3.9697,0.668,0.6943,0.7096,0.7104,0.8422,0.9064,0.7828,0.6982,0.5999,0.4609,0.3862,0.3392,0.3312,0.3887,0.4386,0.4705,0.4033,0.4072,0.5265,0.3665,0.2677,0.26,0.1748,0.0896,0.0036,-0.0832,-0.141,-0.1584,-0.3355,-0.43,-0.4482,-0.6207,-0.7452,-0.8295,-0.9276,-1.1028,-1.3318,0.0,0.0,-1.7401,0.0,-1.8227,-1.8568,-1.8227,-1.8076,-1.8076,-1.8787,-1.9044,-1.9239,-2.0464,-2.0156,-1.9258,-1.9062,-1.9668,0.0,0.0,0.0,0.0,0.0,0.0,0.0,0.0,0.0,-2.53,0.0,0.0,0.0,-2.6499,-2.6499,0.0,0.0,0.0,0.0,0.0,0.0,0.0,0.0,0.0,0.0,0.0,0.0,0.0,-2.9792,-3.0072,-3.1109,-3.3158,-3.5638,-3.7364,-3.8082,-4.0151,-4.0232,-3.7763,-3.8335,-3.7919,-3.633,-3.6926,-3.727,-3.737,-3.7686,-3.7546,-3.6941,-3.6647,-3.648,-3.6405,-3.6405,-3.6669,-3.6998,-3.6707,-3.7111,-3.8002,-3.8002,-3.863,-3.9546,-3.9647,-3.9697,-3.9697,0.7089,0.8722,0.987,0.934,1.077,1.1354,0.9432,0.8429,0.7045,0.4799,0.3951,0.3505,0.3319,0.0,0.0,0.0,0.0,0.0,0.4304,0.0,0.2338,0.1516,0.1376,0.0898,0.0034,-0.0107,-0.0657,-0.1614,-0.2708,-0.3577,-0.4266,-0.6423,-0.7784,-0.8425,-0.9309,0.0,0.0,0.0,-1.5717,0.0,-1.7993,-1.8227,0.0,-1.8549,-1.8295,-1.8008,-1.811,-1.8144,-1.8237,0.0,-1.9094,-1.9451,0.0,-2.0185,-2.0195,-2.1279,0.0,0.0,0.0,0.0,0.0,0.0,-2.6644,0.0,0.0,0.0,-2.6499,-2.6499,0.0,0.0,0.0,0.0,0.0,0.0,0.0,0.0,0.0,0.0,0.0,0.0,0.0,0.0,0.0,-2.9386,-2.9573,-3.0809,-3.1665,-3.3647,-3.7206,-3.7694,-3.7803,-3.7685,-3.7795,-3.7123,-3.5624,-3.6267,-3.6433,-3.6115,-3.72,-3.7256,-3.6424,-3.6839,-3.6799,-3.6405,-3.6405,-3.6443,-3.6531,-3.6958,-3.745,-3.8002,-3.8002,-3.8404,-3.9032,-3.9509,-3.9697,-3.9697,0.827,0.9837,1.1159,1.1818,1.2785,1.2872,1.1225,0.8938,0.6762,0.4955,0.4078,0.3575,0.0,0.0,0.0,0.0,0.0,0.2332,0.0,0.0,0.1755,0.1479,0.1372,0.0874,0.0036,0.0,-0.022,-0.067,-0.2313,-0.3221,-0.3489,-0.6157,-0.7511,0.0,-0.9414,0.0,-1.3184,0.0,-1.5397,0.0,0.0,0.0,0.0,-1.8237,-1.8164,-1.8076,-1.8553,-1.8428,-1.8095,0.0,-1.9463,0.0,0.0,0.0,0.0,0.0,0.0,0.0,0.0,0.0,0.0,0.0,0.0,0.0,-2.6901,0.0,-2.6436,0.0,0.0,0.0,0.0,0.0,0.0,0.0,-2.7519,0.0,0.0,0.0,0.0,0.0,0.0,0.0,0.0,0.0,0.0,0.0,-3.0804,-3.1976,-3.3688,-3.5229,-3.5923,-3.5565,-3.6548,-3.6566,-3.5504,-3.5588,-3.5723,-3.5899,-3.5944,-3.594,-3.5818,-3.5734,-3.5785,-3.5893,-3.5893,-3.6245,-3.6908,-3.7086,-3.7513,-3.804,-3.8379,-3.8856,-3.9371,-3.9609,-3.9697,-3.9697,0.9203,1.0487,1.1645,1.2697,1.3316,1.3108,1.1337,0.8392,0.5914,0.0,0.0,0.0,0.2929,0.2265,0.0,0.0,0.1458,0.1405,0.0,0.0,0.1026,0.0,0.0,0.0,0.0,0.0,0.0,0.0,-0.2089,-0.3047,-0.3007,-0.6023,-0.7455,0.0,0.0,-1.1101,-1.2158,0.0,-1.5186,-1.6801,-1.7072,-1.7656,-1.834,-1.8096,-1.8008,-1.8076,-1.8721,-1.8529,-1.8139,-1.9005,-1.9781,0.0,-1.9941,0.0,0.0,0.0,0.0,0.0,-2.4724,0.0,0.0,0.0,0.0,0.0,0.0,0.0,0.0,0.0,0.0,0.0,0.0,0.0,0.0,0.0,0.0,-2.7607,0.0,0.0,0.0,0.0,0.0,0.0,0.0,0.0,0.0,-2.9155,-2.9897,-3.0528,-3.0956,-3.296,-3.3965,-3.3636,-3.51,-3.5516,-3.4706,-3.4708,-3.4966,-3.5494,-3.4901,-3.4938,-3.5505,-3.51,-3.5122,-3.5495,-3.5495,-3.6081,-3.6973,-3.7287,-3.755,-3.7852,-3.8592,-3.912,-3.9484,-3.9634,-3.9697,-3.9697,0.9429,1.0613,1.1225,1.1031,1.181,1.1548,0.8826,0.0,0.0,0.0,0.0,0.0,0.0,0.0,0.0,0.0,0.0,0.0494,0.1554,0.0,0.0037,0.0,0.0,0.0039,0.0,0.0,0.0,0.0,-0.2085,-0.3081,-0.3157,-0.6297,-0.7774,-0.7884,-0.9873,-1.1317,-1.2288,-1.3635,-1.5339,-1.7198,-1.753,-1.8322,-1.916,0.0,-1.8008,-1.8008,-1.8042,0.0,0.0,-1.9001,-1.9588,0.0,0.0,0.0,0.0,0.0,0.0,0.0,0.0,0.0,0.0,-2.6179,0.0,0.0,0.0,0.0,-2.6499,0.0,0.0,0.0,0.0,0.0,0.0,0.0,0.0,0.0,0.0,0.0,0.0,0.0,0.0,0.0,0.0,0.0,-2.8918,-2.7487,-2.7889,-2.8837,-3.0342,-3.0987,-3.1742,-3.2629,-3.3587,-3.3622,-3.2713,-3.3581,-3.4172,-3.444,-3.4406,-3.4787,-3.5492,-3.5463,-3.5468,-3.5495,-3.5495,-3.5868,-3.6518,-3.7538,-3.7676,-3.7324,-3.8479,-3.8932,-3.9007,-3.9496,-3.9697,-3.9697,0.851,0.9621,1.053,1.1415,0.0,0.0,0.0,0.5794,0.0,0.0,0.0,0.0,0.0,0.0506,0.0147,0.0,0.0,0.0148,0.0535,0.0196,0.0,0.0,0.0,0.0,0.0,0.0,0.0,0.0,0.0,-0.2504,-0.3272,-0.4949,-0.6228,-0.7145,0.0,-1.0193,0.0,0.0,0.0,0.0,0.0,-1.9149,-1.9639,0.0,0.0,-1.8393,-1.8393,-1.8393,0.0,-1.8724,-1.9521,-2.0495,-2.1133,-2.1927,-2.2824,-2.4075,-2.4277,0.0,0.0,0.0,-2.5998,-2.7261,0.0,0.0,0.0,0.0,0.0,0.0,0.0,0.0,0.0,0.0,0.0,0.0,0.0,0.0,0.0,0.0,0.0,0.0,0.0,0.0,0.0,0.0,0.0,-2.9945,-2.9655,-2.963,-2.996,-3.0766,-3.1352,-3.1669,-3.2558,-3.2925,-3.2593,-3.2321,-3.2353,-3.2812,-3.2529,-3.2726,-3.3347,-3.3743,-3.4286,-3.4956,-3.4956,-3.5931,-3.7475,-3.7852,-3.8128,-3.8341,-3.8768,-3.8642,-3.8366,-3.8944,-3.9383,-3.9697,0.8065,0.9189,0.0,0.0,0.0,0.0,0.0,0.0,0.0,0.0,0.1805,0.0,0.0836,0.0,0.0,0.0,0.0,0.0,0.0,0.0,0.0,0.0,0.0,0.0,0.0,0.0,0.0,0.0,0.0,-0.221,-0.343,-0.4288,-0.5411,-0.6778,0.0,-0.9694,-0.9611,-1.2398,-1.451,0.0,0.0,-1.9902,0.0,0.0,-1.9473,-1.9036,0.0,-1.8867,-1.8851,-1.8997,-1.9861,-2.0979,-2.1453,-2.2433,-2.3604,-2.4898,-2.522,-2.5492,-2.7093,-2.6892,0.0,-2.7042,-2.687,0.0,-2.6499,0.0,0.0,0.0,0.0,0.0,0.0,0.0,0.0,0.0,0.0,0.0,0.0,-2.6239,0.0,0.0,0.0,0.0,0.0,0.0,-3.1986,-3.0793,-3.044,-3.01,0.0,0.0,-3.0475,-3.0696,-3.1609,-3.1924,-3.1623,-3.1328,-3.1387,-3.1798,-3.1521,-3.1788,-3.2541,-3.3106,-3.3872,-3.4726,-3.4881,-3.6044,-3.7726,-3.7927,-3.8115,-3.8291,-3.8492,-3.8329,-3.8078,-3.8655,-3.922,-3.9697,0.8101,0.0,0.0,0.0,0.8004,0.0,0.0,0.0,0.1238,0.0,0.056,0.0,0.0,0.0,0.0,0.0,0.0,0.0,0.0,0.0,0.0,0.0,0.0,0.0,0.0,0.0,0.0,0.0,0.0,0.0,-0.3597,-0.4303,-0.5406,-0.6864,-0.9186,0.0,-0.957,-1.2409,-1.4681,-1.6653,-1.9457,-2.0615,-2.0635,-2.0615,-2.0322,-1.9922,-1.9473,-1.9316,-1.9375,-1.9775,-2.0575,-2.1508,-2.1928,-2.2776,-2.3872,-2.5428,-2.5224,-2.4827,-2.6264,-2.6304,-2.5899,-2.58,0.0,0.0,0.0,0.0,-2.6688,0.0,0.0,0.0,0.0,0.0,0.0,0.0,0.0,0.0,0.0,0.0,0.0,0.0,0.0,0.0,0.0,-3.3571,-3.2743,-3.0121,-3.0236,-3.0156,0.0,0.0,-2.9366,-2.9921,-3.0796,-3.0833,-2.9934,-3.0758,-3.1266,-3.143,-3.1414,-3.1964,-3.3056,-3.3633,-3.4198,-3.4705,-3.5257,-3.6182,-3.7262,-3.7789,-3.7701,-3.7274,-3.7801,-3.8002,-3.809,-3.8693,-3.9245,-3.9697,0.7818,0.8941,0.9222,0.0,0.5991,0.492,0.0,0.0,0.0,0.0,0.0619,0.0,0.0,0.0,0.0,0.0,0.0,0.0,0.0,0.0,0.0,0.0,0.0,0.0,0.0,0.0,0.0,0.0,0.0,0.0,-0.3583,-0.3541,-0.5067,-0.7885,0.0,-1.0297,-1.0541,-1.2689,-1.4853,-1.7015,-1.9579,-2.0762,0.0,0.0,-2.0703,-2.0752,-2.0029,-1.9756,-1.9775,-1.9883,-2.0777,-2.1982,-2.2844,-2.3818,-2.4992,-2.6956,-2.7348,-2.7397,-2.862,-2.825,-2.7594,-2.7965,-2.7553,-2.7216,0.0,0.0,0.0,0.0,0.0,0.0,0.0,0.0,0.0,0.0,0.0,0.0,0.0,0.0,0.0,-2.8196,0.0,0.0,-3.3561,-3.2461,-3.1525,-3.1308,-3.0911,-3.0531,0.0,0.0,0.0,-3.1865,-3.2105,-3.2141,-3.1865,-3.1426,-3.1437,-3.1863,-3.1536,-3.175,-3.2466,-3.3458,-3.4198,-3.4705,-3.5257,-3.636,-3.7814,-3.7952,-3.7927,-3.7814,-3.7952,-3.8002,-3.8128,-3.912,-3.9572,-3.9697,0.9062,0.0,0.0,0.7325,0.0,0.0,0.3913,0.0,0.0,0.0901,0.0784,0.0,0.0039,0.0,0.0,0.0,0.0,0.0,0.0,0.0,0.0,0.0,0.0,0.0,0.0,-0.0374,0.0,0.0,0.0,0.0,-0.3611,-0.3323,-0.5061,-0.8492,0.0,-1.0627,-1.1364,-1.3957,-1.5847,-1.7276,-1.9653,0.0,0.0,-2.0703,-2.0723,-2.0879,-2.0381,-2.0195,-2.0272,-2.0669,-2.163,-2.2813,-2.3854,-2.485,-2.5977,-2.7626,-2.7934,-2.7996,-2.9114,-2.8775,-2.8185,-2.8449,-2.8109,-2.772,-2.8034,-2.7682,-2.7444,0.0,0.0,0.0,0.0,0.0,0.0,0.0,0.0,0.0,0.0,0.0,0.0,0.0,-2.8423,0.0,0.0,-3.1501,-3.1017,-3.1247,-3.0617,-3.0263,0.0,0.0,0.0,-3.1983,-3.2218,-3.2218,-3.1997,-3.1294,-3.1087,-3.141,-3.1392,-3.1675,-3.2265,-3.3633,-3.4424,-3.4718,-3.5567,-3.6558,-3.7651,-3.7651,-3.7789,-3.804,-3.8278,-3.8228,-3.814,-3.9283,-3.9697,-3.9697,1.1047,0.0,0.0,0.0,0.0,0.0,0.0,0.1379,0.0,0.0118,0.0,0.1023,0.0118,0.0,0.0,0.0,0.0,0.0,0.0,0.0,0.0,0.0,-0.0128,-0.0208,-0.0204,-0.1073,-0.1164,0.0,0.0,0.0,-0.3837,-0.3627,-0.5432,0.0,0.0,0.0,0.0,-1.533,-1.6804,-1.7227,-1.9492,-2.0401,-2.0401,-2.0566,-2.0605,-2.0605,-2.0605,-2.0605,-2.0712,-2.1555,-2.2553,-2.3672,-2.4528,-2.563,-2.6801,-2.7808,-2.7821,-2.772,-2.8725,-2.8586,-2.8122,-2.8197,-2.8109,-2.8009,-2.8084,-2.7682,-2.7444,-2.7996,-2.7549,-2.7125,0.0,0.0,0.0,0.0,0.0,0.0,0.0,0.0,0.0,0.0,0.0,0.0,0.0,0.0,-3.0685,-3.0583,-2.9977,0.0,0.0,0.0,0.0,-3.1375,-3.1843,-3.1909,-3.1508,0.0,-3.0794,-3.1021,-3.1279,-3.1725,-3.2378,-3.3909,-3.4605,-3.4776,-3.5805,-3.6609,-3.7199,-3.7262,-3.7575,-3.8052,-3.8567,-3.8442,-3.814,-3.9195,-3.9634,-3.9697,1.2509,0.0,0.0,0.0,0.0,0.1489,0.0432,0.0284,0.0205,0.0039,0.016,0.0201,0.0039,0.0,0.0,0.0,0.0,0.0,0.0,0.0,0.0,0.0,-0.0859,-0.1339,-0.1335,-0.2161,-0.2643,0.0,0.0,0.0,-0.5087,0.0,0.0,0.0,0.0,0.0,-1.3357,-1.4915,0.0,-1.5845,-1.8298,-1.9283,-1.9362,-2.0245,-2.0605,-2.0605,-2.0605,-2.0605,-2.0644,-2.0789,-2.2048,-2.3514,-2.3708,-2.5326,-2.7268,-2.7921,-2.836,-2.8787,-2.9465,-2.8888,-2.821,-2.8637,-2.8097,-2.7544,-2.7996,-2.7682,-2.7444,-2.7996,-2.7005,-2.6201,-2.6663,0.0,0.0,0.0,0.0,0.0,0.0,0.0,0.0,0.0,0.0,-2.7298,0.0,0.0,0.0,0.0,0.0,0.0,0.0,0.0,0.0,0.0,-3.2453,0.0,0.0,0.0,-3.1771,-3.3155,-3.1958,-3.1926,-3.2955,-3.3696,-3.4299,-3.4763,-3.5357,-3.6257,-3.7211,-3.7676,-3.7914,-3.8015,-3.8115,-3.809,-3.809,-3.8768,-3.9308,-3.9697,0.0,0.0,0.0,0.0,0.0,0.0,0.0,0.0,0.0,0.0,0.0476,0.0636,0.0079,0.0,0.0,0.0,0.0,0.0,0.0,0.0,-0.0261,-0.0824,-0.1315,0.0,-0.2267,-0.3146,-0.3453,-0.321,0.0,0.0,0.0,0.0,0.0,-1.0449,0.0,-1.2827,0.0,0.0,0.0,-1.5842,-1.7464,-1.847,-1.9076,-1.9559,-2.0118,-2.0605,-2.0605,-2.0605,-2.0673,-2.1155,-2.1962,-2.2813,-2.3331,-2.4489,-2.5909,-2.7004,-2.7469,-2.7986,-2.9399,-2.8963,-2.8235,-2.875,-2.831,-2.777,-2.8047,-2.7682,-2.7356,-2.762,-2.6883,-2.6174,-2.6171,-2.6177,0.0,0.0,0.0,0.0,0.0,0.0,0.0,0.0,0.0,0.0,0.0,0.0,0.0,0.0,0.0,0.0,0.0,0.0,0.0,0.0,0.0,0.0,0.0,0.0,0.0,-3.1691,-3.1478,-3.1675,-3.2252,-3.3671,-3.4474,-3.4763,-3.5604,-3.627,-3.687,-3.7663,-3.7839,-3.7663,-3.8542,-3.8705,-3.853,-3.9094,-3.9471,-3.9697,0.0,1.2604,0.0,0.0,0.3266,0.0,0.0238,0.0,0.0,0.0,0.0745,0.0941,0.0079,0.0,0.0,0.0,0.0,0.0,0.0,-0.0258,-0.0772,-0.1605,-0.2059,-0.2609,-0.326,-0.4105,-0.4271,0.0,0.0,0.0,0.0,0.0,0.0,0.0,0.0,0.0,0.0,0.0,-1.5299,-1.5773,-1.6629,-1.7617,-1.8678,-1.8917,-1.9687,-2.0605,-2.0605,-2.0605,-2.0712,-2.1441,-2.1849,-2.2161,-2.3045,-2.3831,-2.4626,-2.5995,-2.6362,-2.6765,-2.8764,-2.8462,-2.7753,-2.8387,-2.816,-2.7758,-2.7758,-2.7419,-2.714,-2.714,-2.6433,-2.5703,-2.525,-2.526,0.0,0.0,0.0,0.0,0.0,0.0,0.0,0.0,0.0,0.0,-2.6968,0.0,0.0,0.0,0.0,0.0,0.0,0.0,0.0,0.0,0.0,-3.1732,-3.1406,0.0,-3.057,-3.0495,-3.1097,-3.1512,-3.1813,-3.3571,-3.45,-3.4731,-3.5642,-3.6329,-3.682,-3.7525,-3.7713,-3.7663,-3.8868,-3.9145,-3.8969,-3.9358,-3.9597,-3.9697,0.0,0.0,0.0,0.0,0.0,0.0,0.0041,0.0,0.0,0.0,0.0079,0.0118,0.0,0.0,0.0,0.0,0.0,0.0,0.0,-0.1041,-0.1696,-0.177,-0.3599,-0.4591,-0.4546,-0.5265,-0.5669,0.0,0.0,0.0,0.0,0.0,0.0,0.0,0.0,0.0,0.0,-1.4073,-1.4243,-1.4368,-1.5436,-1.6519,-1.7577,-1.8598,-1.9687,-2.0605,-2.0605,-2.0605,-2.0605,-2.0712,-2.1298,-2.2111,-2.2608,-2.3753,-2.5027,-2.5537,-2.5774,-2.6126,-2.7242,-2.6772,-2.6251,-2.7228,-2.7052,-2.665,-2.665,-2.6612,-2.6562,-2.6562,-2.5099,-2.362,-2.3083,-2.2298,-2.2312,0.0,0.0,0.0,0.0,0.0,0.0,0.0,0.0,0.0,0.0,-2.4518,0.0,0.0,-2.7533,0.0,0.0,0.0,0.0,-3.0626,0.0,-3.1688,-3.2088,-3.1113,-3.1336,-3.2797,-3.1825,-3.1926,-3.2973,-3.3174,-3.3771,-3.4726,-3.4826,-3.6006,-3.7826,-3.7425,-3.7826,-3.868,-3.8304,-3.8454,-3.8932,-3.8982,-3.927,-3.9697,0.0,0.0,0.0,0.0,0.0,0.0,0.0,0.0,0.0,0.0,0.0,0.0,0.0,0.0,0.0,0.0,0.0,0.0,0.0,-0.1065,-0.194,-0.2538,-0.4,-0.5002,-0.5473,-0.6355,-0.6801,0.0,0.0,0.0,0.0,0.0,0.0,0.0,0.0,-1.3801,-1.3908,-1.3848,-1.3928,-1.413,-1.4573,-1.5379,-1.6396,-1.6838,-1.8092,-1.9638,-1.9638,-1.9638,-1.9717,-2.0362,-2.0857,-2.1185,-2.1366,-2.2227,-2.3284,-2.4116,-2.4576,-2.5087,-2.612,-2.5662,-2.5004,-2.5386,-2.5108,-2.485,-2.5476,-2.5594,-2.5769,-2.6383,-2.5123,-2.3692,-2.2843,-2.213,-2.2038,0.0,0.0,0.0,0.0,0.0,0.0,0.0,0.0,0.0,0.0,-2.4415,-2.5247,0.0,0.0,0.0,0.0,0.0,0.0,-3.0595,0.0,-3.0696,-3.1248,-3.0507,-3.062,-3.1599,-3.1449,-3.18,-3.2591,-3.3608,-3.4663,-3.5705,-3.5705,-3.6395,-3.7525,-3.7626,-3.814,-3.8932,-3.8981,-3.9157,-3.9371,-3.9371,-3.9509,-3.9697,0.8965,0.0,0.4254,0.0,0.0924,0.0889,0.0119,0.0,0.0,0.0,0.0,0.0,0.0,-0.0275,-0.0353,-0.0039,-0.0275,-0.0474,-0.0482,-0.1496,-0.2554,-0.3601,-0.4653,0.0,-0.6067,-0.7009,-0.7425,-0.7293,-0.9077,0.0,0.0,0.0,0.0,0.0,-1.3607,-1.3734,-1.3948,-1.3828,-1.3895,-1.4088,-1.4088,-1.4734,-1.5696,-1.5696,-1.6879,-1.855,-1.8877,-1.8997,-1.9116,-1.9883,-2.0323,-2.0625,-2.0723,-2.1191,-2.1873,-2.2767,-2.3175,-2.3585,-2.4756,-2.4354,-2.3725,-2.4171,-2.3996,-2.3852,-2.4443,-2.4681,-2.4931,-2.55,-2.462,-2.3487,-2.2668,-2.204,-2.1906,-2.2528,0.0,0.0,0.0,0.0,0.0,0.0,-2.3957,-2.3851,-2.3525,-2.3958,-2.4891,0.0,0.0,0.0,0.0,0.0,0.0,0.0,0.0,0.0,0.0,-3.062,-3.0696,-3.1085,-3.1449,-3.2014,-3.2754,-3.4229,-3.5378,-3.6132,-3.6329,-3.6807,-3.745,-3.7663,-3.8291,-3.9132,-3.9371,-3.9546,-3.9697,-3.9697,-3.9697,-3.9697,0.4181,0.3059,0.2154,-0.1009,-0.0691,0.0,0.0,0.0,0.0,0.0,0.0,0.0,0.0,-0.0941,-0.1137,-0.0079,-0.098,-0.1568,-0.1568,-0.264,-0.3764,0.0,0.0,-0.6403,-0.63,-0.7072,-0.7438,-0.7283,0.0,0.0,-0.937,0.0,-1.2752,-1.3626,-1.4206,-1.4139,-1.3626,-1.3961,-1.4082,-1.4088,-1.4088,-1.4734,-1.5696,-1.5696,-1.6355,-1.7464,-1.8598,-1.8997,-1.8997,-1.8997,-1.9717,-2.0683,-2.1084,-2.119,-2.1288,-2.1799,-2.1582,-2.1529,-2.2947,-2.2702,-2.238,-2.384,-2.4189,-2.4082,-2.3638,-2.3869,-2.4082,-2.3626,-2.308,-2.2594,-2.2094,-2.1576,-2.1346,-2.1848,0.0,0.0,0.0,0.0,0.0,0.0,-2.3169,-2.2434,-2.019,-2.2525,0.0,0.0,0.0,0.0,0.0,0.0,0.0,-3.0595,-3.1637,0.0,-3.1386,-3.1913,-3.219,-3.219,-3.2202,-3.2792,-3.3922,-3.4981,-3.5495,-3.5533,-3.6119,-3.6985,-3.7952,-3.7412,-3.8178,-3.9634,-3.9094,-3.922,-3.9697,-3.9697,-3.9697,-3.9697,0.2604,0.0342,-0.1134,-0.1543,-0.1326,-0.0849,-0.0119,0.0,0.0,0.0,0.0,-0.0275,-0.102,-0.1411,-0.145,0.0,-0.2034,-0.2618,0.0,-0.3659,-0.4425,-0.4742,-0.5771,-0.6652,-0.7292,-0.825,-0.8963,-0.9416,0.0,0.0,0.0,-1.3131,-1.3532,-1.36,-1.3593,-1.3593,-1.3613,-1.37,-1.374,-1.376,-1.4008,-1.4292,-1.4615,-1.4615,-1.5262,-1.6355,-1.7455,-1.7827,-1.806,-1.9599,-1.9835,-1.9666,-2.0527,-2.0986,-2.1278,-2.1758,-2.1787,-2.185,-2.2544,-2.2359,-2.196,-2.2107,-2.238,-2.2599,-2.2519,-2.3119,-2.3668,-2.3511,-2.2821,-2.2167,-2.2021,-2.1353,-2.082,-2.0997,-2.1283,0.0,0.0,0.0,0.0,0.0,-2.1971,-2.1984,0.0,-2.1939,0.0,0.0,0.0,0.0,0.0,0.0,0.0,0.0,-3.1135,0.0,-3.1951,-3.175,-3.1838,-3.2215,-3.2215,-3.3006,-3.4487,-3.5169,-3.5696,-3.6107,-3.6329,-3.6985,-3.799,-3.7814,-3.8517,-3.9672,-3.9496,-3.9534,-3.9697,-3.9697,-3.9697,-3.9697,0.0805,-0.1133,-0.224,-0.1701,-0.1605,-0.122,-0.0155,0.0,0.0,0.0,-0.0353,-0.0863,-0.1528,-0.2309,0.0,-0.219,-0.3086,-0.3709,-0.3709,-0.4334,-0.4882,-0.5276,-0.5944,-0.6756,-0.7783,0.0,0.0,-1.0548,-1.2235,-1.3193,-1.3447,-1.3781,-1.378,-1.3593,-1.3413,-1.3373,-1.344,-1.344,-1.35,-1.362,-1.3848,-1.3988,-1.4088,-1.4088,-1.4531,-1.522,-1.6314,-1.6968,-1.7521,-1.9088,-1.9712,-1.9909,-2.033,-2.0909,-2.1504,-2.1611,-2.1641,-2.1768,-2.2353,-2.2207,-2.1865,-2.1697,-2.1924,-2.2089,-2.1977,-2.1992,-2.2102,-2.2371,-2.1696,-2.1189,-2.1433,-2.1112,-2.0869,-2.1075,-2.0928,-2.0879,-2.1075,0.0,0.0,0.0,0.0,0.0,0.0,-2.181,-2.2556,0.0,0.0,0.0,0.0,0.0,0.0,-2.9772,-3.07,0.0,-3.1238,-3.1967,-3.2403,-3.2541,-3.3169,-3.3966,-3.5006,-3.5604,-3.6031,-3.6405,-3.6405,-3.6985,-3.8002,-3.8002,-3.8668,-3.9697,-3.9697,-3.9697,-3.9697,-3.9697,-3.9697,-3.9697,-0.1016,-0.1631,0.0,0.0,-0.1584,0.0,-0.0151,0.0,0.0,0.0,-0.094,-0.1646,-0.1685,-0.3478,-0.4334,-0.3396,0.0,0.0,0.0,-0.4805,-0.5276,-0.6261,-0.6377,-0.6872,-0.7897,-0.8879,-0.9895,-1.0895,-1.2169,-1.2945,-1.322,-1.3467,-1.3613,-1.3633,-1.3593,-1.342,-1.3213,-1.3186,-1.3333,-1.3547,-1.3586,-1.3808,-1.4055,-1.4082,-1.4088,-1.425,-1.5296,-1.6329,-1.7302,-1.7896,-1.9447,-2.1005,-2.0481,-2.1038,-2.1816,-2.1395,-2.1278,-2.1463,-2.2334,-2.2275,-2.206,-2.2422,-2.2386,-2.2207,-2.1784,-2.0512,-1.9611,-2.0282,-1.9956,-1.9764,-2.039,-2.0908,-2.1327,-2.1777,-2.1504,-2.1327,-2.1738,0.0,0.0,0.0,0.0,0.0,0.0,-2.196,-2.248,0.0,0.0,0.0,0.0,0.0,-2.8827,-2.7397,-3.0441,-3.1385,-2.9789,-3.2381,-3.3439,-3.3057,-3.4693,-3.5445,-3.5458,-3.6094,-3.6405,-3.6405,-3.6405,-3.6985,-3.8002,-3.8002,-3.8668,-3.9697,-3.9697,-3.9697,-3.9697,-3.9697,-3.9697,-3.9697,0.0,0.0,-0.2398,-0.1731,-0.1598,-0.1248,-0.0147,0.0,0.0,0.0,-0.0931,-0.188,-0.2657,-0.3906,-0.4924,-0.5512,-0.5786,-0.5906,-0.5906,-0.5906,-0.6025,-0.63,-0.7022,-0.7936,-0.8917,-0.9927,-1.0938,-1.1959,-1.2523,-1.2945,-1.322,-1.3467,-1.3726,-1.3961,-1.3514,-1.3273,-1.32,-1.2998,-1.2938,-1.3038,-1.346,-1.3646,-1.3733,-1.4001,-1.4088,-1.425,-1.5296,-1.5978,-1.666,-1.8594,-1.97,-2.043,-2.1227,-2.1668,-2.1934,-2.2148,-2.2207,-2.2282,-2.2808,-2.2877,-2.275,-2.2568,-2.1398,-2.0167,-1.9635,-1.8667,-1.7965,-1.8374,-1.8832,-1.9276,-1.9727,-2.0571,-2.1229,-2.1327,-2.1259,-2.1112,-2.0957,-2.0996,0.0,0.0,-2.1562,-2.1846,-2.1748,-2.1914,-2.2168,0.0,0.0,0.0,0.0,-2.7605,-2.8851,-2.962,-3.0688,-3.1352,-3.1517,-3.1472,-3.1681,-3.2214,-3.4004,-3.4868,-3.4906,-3.5918,-3.6405,-3.6405,-3.6405,-3.6985,-3.8002,-3.8002,-3.8668,-3.9697,-3.9697,-3.9697,-3.9697,-3.9697,-3.9697,-3.9697,-0.0653,-0.1651,-0.1991,-0.1025,-0.1263,-0.125,-0.0179,0.0,-0.0185,-0.0679,-0.1643,-0.2667,-0.3705,-0.4805,-0.567,-0.6261,-0.63,-0.63,-0.63,-0.63,-0.63,-0.63,-0.7249,-0.8275,-0.9263,-1.0303,-1.1279,-1.2305,-1.2643,-1.2871,-1.3006,-1.3307,-1.3454,-1.3501,-1.314,-1.2919,-1.2786,-1.2612,-1.2656,-1.2811,-1.31,-1.34,-1.362,-1.378,-1.3968,-1.425,-1.5296,-1.624,-1.7265,-1.9235,-2.0453,-2.1306,-2.2171,-2.2461,-2.2585,-2.3335,-2.3434,-2.3363,-2.3766,-2.3877,-2.3557,-2.225,-2.0869,-1.9623,-1.8952,-1.7849,-1.7173,-1.7831,-1.7927,-1.8304,-1.9552,-2.0278,-2.0841,-2.1442,-2.1327,-2.1181,-2.1172,-2.1211,0.0,-2.1504,-2.1914,-2.2246,-2.2441,-2.2637,-2.293,-2.335,-2.4526,0.0,-2.6469,-2.8702,-2.9984,-3.0024,-3.1172,-3.1701,-3.153,-3.1838,-3.2355,-3.3054,-3.4398,-3.5228,-3.5479,-3.583,-3.6119,-3.6405,-3.6405,-3.6985,-3.8002,-3.8002,-3.8668,-3.9697,-3.9697,-3.9697,-3.9697,-3.9697,-3.9697,-3.9697,0.0036,-0.0741,-0.1074,-0.0142,-0.0768,-0.1044,-0.014,-0.0105,-0.0535,-0.1493,-0.2597,-0.3654,-0.4598,-0.567,-0.63,-0.63,-0.63,-0.63,-0.63,-0.63,-0.63,-0.63,-0.7403,-0.8428,-0.9296,-1.0415,-1.1428,-1.2305,-1.2589,-1.2737,-1.279,-1.3019,-1.3026,-1.2851,-1.2804,-1.2643,-1.2365,-1.2318,-1.2472,-1.2822,-1.293,-1.3308,-1.3777,-1.3981,-1.4262,-1.4706,-1.568,-1.6982,-1.8389,-1.984,-2.1272,-2.2505,-2.3038,-2.332,-2.365,-2.4817,-2.4986,-2.4811,-2.4892,-2.4809,-2.4098,-2.1621,-2.0438,-1.9617,-1.8588,-1.7308,-1.661,-1.7576,-1.7152,-1.7208,-1.9196,-1.9862,-2.0473,-2.1537,-2.1537,-2.1492,-2.1846,0.0,-2.1551,-2.2021,-2.2451,-2.2871,-2.3247,-2.3672,-2.4033,-2.4385,-2.6054,-2.7298,-2.7887,-3.0535,-3.1551,-3.0503,-3.2031,-3.2181,-3.0818,-3.2803,-3.3851,-3.395,-3.4994,-3.5793,-3.6267,-3.5843,-3.5931,-3.6417,-3.6505,-3.7061,-3.8015,-3.8103,-3.8755,-3.9697,-3.9697,-3.9697,-3.9697,-3.9697,-3.9697,-3.9697,0.0146,-0.0146,-0.0182,-0.0035,-0.0138,-0.0203,-0.0034,-0.0621,-0.1202,-0.1566,-0.3161,-0.4372,-0.4675,-0.567,-0.63,-0.63,-0.63,-0.63,-0.63,-0.63,-0.63,-0.63,-0.8089,-0.9145,-0.9296,-1.1136,-1.215,-1.2305,-1.2351,-1.2536,-1.2784,-1.2837,-1.2971,-1.3126,-1.2904,-1.2757,-1.2697,-1.2412,-1.2472,-1.286,-1.3644,-1.4165,-1.4562,-1.5764,-1.6453,-1.6894,-1.744,-1.8183,-1.9111,-2.0382,-2.1351,-2.2271,-2.3339,-2.4329,-2.5265,-2.6409,-2.7103,-2.7203,-2.5831,-2.4787,-2.3424,-2.0525,-1.9496,-1.8702,-1.674,-1.5744,-1.5383,-1.5766,-1.6222,-1.6801,-1.7518,-1.9249,-2.0669,-2.085,-2.1689,-2.2217,-2.1924,0.0,-2.2471,-2.2953,-2.334,-2.376,-2.418,-2.4277,-2.4346,-2.4414,-2.6367,-2.8072,-2.9235,-3.0864,-3.2625,-3.453,-3.3812,-3.2429,-3.0395,-3.3599,-3.4113,-3.1973,-3.4349,-3.5545,-3.5633,-3.6056,-3.6329,-3.643,-3.6908,-3.7412,-3.804,-3.853,-3.912,-3.9697,-3.9697,-3.9697,-3.9697,-3.9697,-3.9697,-3.9697,0.0073,0.0,0.0,0.0,0.0,-0.0168,-0.0638,-0.1051,-0.1733,-0.2995,-0.3953,-0.4755,-0.5488,-0.6022,-0.6265,-0.6142,-0.6135,-0.6135,-0.6135,-0.6252,-0.63,-0.63,-0.7706,-0.8732,-0.9296,-1.1285,-1.2033,-1.1502,-1.1883,-1.2254,-1.2543,-1.2382,-1.2469,-1.2719,-1.261,-1.2543,-1.2536,-1.2905,-1.314,-1.34,-1.4565,-1.5203,-1.555,-1.6477,-1.7168,-1.778,-1.8568,-1.9364,-2.0263,-2.1686,-2.2492,-2.3212,-2.4691,-2.5269,-2.5752,-2.7527,-2.7882,-2.749,-2.6732,-2.4933,-2.292,-2.129,-1.9738,-1.829,-1.7108,-1.6078,-1.5471,-1.5605,-1.5922,-1.6627,-1.8168,-1.9322,-2.0386,-2.1472,-2.2149,0.0,0.0,-2.2588,-2.3018,-2.3491,-2.3867,-2.4297,-2.4727,-2.498,-2.5225,-2.5459,-2.7925,-2.9506,-2.9634,-3.227,-3.4102,-3.4893,-3.4306,-3.3527,-3.2504,-3.4075,-3.4306,-3.3105,-3.4707,-3.5658,-3.5981,-3.5943,-3.6081,-3.6443,-3.6996,-3.75,-3.8052,-3.863,-3.9195,-3.9697,-3.9697,-3.9697,-3.9697,-3.9697,-3.9697,-3.9697,0.0,0.0,0.0,0.0,-0.0134,-0.0501,-0.1206,-0.1632,-0.2501,-0.4207,-0.4632,-0.5119,-0.6084,-0.6194,-0.6108,-0.5949,-0.5939,-0.5939,-0.5939,-0.6122,-0.6262,-0.6296,-0.748,-0.8595,-0.952,-1.1366,-1.189,-1.107,-1.1605,-1.2053,-1.2291,-1.204,-1.2024,-1.2305,-1.2378,-1.2365,-1.2378,-1.3389,-1.3821,-1.3953,-1.5519,-1.6286,-1.6619,-1.7329,-1.8077,-1.8861,-1.9816,-2.0656,-2.1631,-2.2882,-2.3697,-2.4313,-2.5614,-2.6054,-2.6443,-2.8111,-2.8091,-2.7476,-2.7314,-2.5226,-2.289,-2.2244,-2.0427,-1.8669,-1.8233,-1.735,-1.6655,-1.6655,-1.6711,-1.7359,-1.9298,-1.9962,-2.0713,-2.228,0.0,0.0,0.0,-2.3232,-2.3588,-2.418,-2.4521,-2.4932,-2.5469,-2.583,-2.6172,-2.6504,-2.9341,-3.0831,-3.022,-3.3696,-3.5437,-3.486,-3.4872,-3.4727,-3.4385,-3.4727,-3.4727,-3.4422,-3.5295,-3.5956,-3.6405,-3.6056,-3.6157,-3.6631,-3.7274,-3.7814,-3.8253,-3.8831,-3.932,-3.9697,-3.9697,-3.9697,-3.9697,-3.9697,-3.9697,-3.9697,0.0,0.0,0.0,0.0,-0.056,-0.1075,-0.1269,-0.2616,-0.3773,-0.4168,-0.4972,-0.5594,-0.582,-0.5833,-0.583,-0.582,-0.582,-0.582,-0.582,-0.5962,-0.6112,-0.6293,-0.8165,-0.9532,-1.0292,-1.1603,-1.2128,-1.1826,-1.1877,-1.2053,-1.2291,-1.204,-1.2024,-1.2311,-1.263,-1.2596,-1.2392,-1.3635,-1.4164,-1.4313,-1.633,-1.7278,-1.7746,-1.9137,-2.0217,-2.1038,-2.1566,-2.2246,-2.3023,-2.3549,-2.4287,-2.5028,-2.5151,-2.6562,-2.8144,-2.7864,-2.7914,-2.7916,-2.7423,-2.5739,-2.3776,-2.2411,-2.1289,-2.0298,-1.9542,-1.9314,-1.9222,-1.9222,-1.9521,-1.9843,-2.003,-2.131,-2.2411,-2.2571,0.0,0.0,-2.4277,-2.4307,-2.4639,-2.544,-2.5577,-2.5918,-2.6787,-2.6904,-2.6934,-2.6963,-2.9871,-3.1629,-3.1576,-3.4583,-3.632,-3.6263,-3.6263,-3.5667,-3.4434,-3.5619,-3.5619,-3.4434,-3.5726,-3.6367,-3.643,-3.6847,-3.7086,-3.7186,-3.8328,-3.8818,-3.8906,-3.9408,-3.9659,-3.9697,-3.9697,-3.9697,-3.9697,-3.9697,-3.9697,-3.9697,-0.0785,-0.0751,-0.0881,-0.1447,-0.1692,-0.202,-0.2758,-0.3388,-0.4091,-0.4958,-0.5378,-0.5644,-0.5786,-0.58,-0.5766,-0.5677,-0.5671,-0.5671,-0.5671,-0.5806,-0.5956,-0.6112,-0.797,-0.879,-0.8363,-1.0053,-1.0635,-0.9963,-1.034,-1.0756,-1.1137,-1.1442,-1.175,-1.2044,-1.2375,-1.2412,-1.2378,-1.3447,-1.4254,-1.4961,-1.6569,-1.7788,-1.8766,-1.9597,-2.043,-2.1168,-2.0846,-2.1213,-2.1894,-2.2002,-2.2289,-2.2762,-2.3987,-2.4994,-2.5827,-2.6348,-2.6548,-2.6438,-2.6011,-2.505,-2.4144,-2.3855,-2.222,-2.0684,-2.0623,-2.0034,-1.9554,-1.9823,-1.9972,-2.0419,-2.1465,-2.2354,-2.3215,-2.4042,0.0,-2.5187,-2.5187,-2.5469,-2.5762,-2.6103,-2.6367,-2.666,-2.6982,-2.7256,-2.7412,-2.7412,-2.9558,-3.0812,-3.0812,-3.3595,-3.5523,-3.6358,-3.6405,-3.6331,-3.616,-3.6331,-3.6331,-3.616,-3.6331,-3.6581,-3.6872,-3.6162,-3.6036,-3.6337,-3.6164,-3.664,-3.7594,-3.8129,-3.8856,-3.9697,-3.9697,-3.9697,-3.9697,-3.9697,-3.9697,-3.9697,-0.1566,-0.1503,-0.1657,-0.2291,-0.2502,-0.2842,-0.3619,-0.3985,-0.4443,-0.5343,-0.5488,-0.5555,-0.565,-0.5664,-0.5623,-0.5562,-0.5552,-0.5552,-0.5552,-0.5654,-0.5823,-0.5983,-0.7505,-0.7919,-0.7065,-0.8798,-0.9362,-0.8664,-0.9445,-1.0025,-1.0479,-1.1195,-1.1724,-1.2053,-1.2311,-1.2392,-1.2378,-1.3418,-1.438,-1.5303,-1.666,-1.7976,-1.9141,-1.9697,-2.014,-2.0474,-2.0107,-2.0199,-2.0522,-2.0762,-2.0958,-2.1222,-2.2139,-2.2593,-2.2928,-2.3948,-2.4329,-2.4405,-2.4135,-2.3536,-2.324,-2.4299,-2.2906,-2.1355,-2.1752,-2.1356,-2.0937,-2.1191,-2.1482,-2.2064,-2.335,-2.3901,-2.4519,-2.5509,-2.5937,-2.6093,-2.6093,-2.6396,-2.6631,-2.6768,-2.7041,-2.7275,-2.7402,-2.7685,-2.7861,-2.7861,-2.9392,-3.0463,-3.0927,-3.3166,-3.4896,-3.5997,-3.6291,-3.6757,-3.7437,-3.6769,-3.6681,-3.7174,-3.6845,-3.691,-3.7401,-3.659,-3.6192,-3.609,-3.5576,-3.5688,-3.632,-3.7151,-3.8072,-3.9077,-3.953,-3.9697,-3.9697,-3.9697,-3.9697,-3.9697,-0.2211,-0.2211,-0.2211,-0.2211,-0.287,-0.3463,-0.3575,-0.433,-0.4938,-0.5079,-0.5264,-0.5392,-0.5392,-0.5395,-0.5395,-0.5395,-0.5395,-0.5395,-0.5395,-0.5539,-0.5722,-0.5976,-0.6845,-0.7158,-0.6907,-0.8151,-0.8641,-0.8386,-0.9519,-1.0266,-1.0599,-1.1508,-1.206,-1.2311,-1.265,-1.2616,-1.2392,-1.3657,-1.4553,-1.5303,-1.6651,-1.7727,-1.866,-1.9543,-1.9505,-1.9056,-1.9749,-1.9592,-1.9259,-2.0254,-2.0849,-2.0933,-1.9679,-1.9501,-1.9875,-2.0563,-2.1342,-2.1968,-2.1958,-2.1169,-2.0909,-2.3357,-2.3209,-2.2584,-2.3003,-2.3486,-2.3799,-2.3799,-2.4529,-2.5253,-2.5664,-2.6103,-2.6583,-2.6953,-2.7021,-2.7031,-2.7031,-2.7021,-2.7187,-2.7669,-2.7718,-2.7832,-2.8252,-2.8291,-2.8291,-2.8291,-2.9513,-3.0876,-3.223,-3.3613,-3.4611,-3.5149,-3.5986,-3.6897,-3.799,-3.691,-3.6694,-3.7199,-3.7199,-3.7475,-3.804,-3.8605,-3.8107,-3.6728,-3.7239,-3.6649,-3.5398,-3.6865,-3.7465,-3.7624,-3.9129,-3.9685,-3.9685,-3.9697,-3.9697,-3.9697,-0.315,-0.3121,-0.3237,-0.3832,-0.4078,-0.4207,-0.4347,-0.4578,-0.4813,-0.4931,-0.5111,-0.5199,-0.5199,-0.473,-0.4686,-0.5326,-0.4788,-0.4727,-0.5481,-0.5498,-0.5549,-0.5711,-0.6569,-0.6929,-0.6776,-0.7123,-0.763,-0.8262,-0.8505,-0.913,-1.0137,-1.1092,-1.1717,-1.2047,-1.2305,-1.2385,-1.2305,-1.2725,-1.336,-1.4178,-1.4568,-1.5513,-1.6674,-1.6939,-1.724,-1.7598,-1.7972,-1.791,-1.7735,-1.8477,-1.8424,-1.7953,-1.7331,-1.6531,-1.617,-1.7613,-1.8422,-1.8958,-1.958,-2.036,-2.1268,-2.2399,-2.2394,-2.2384,-2.3386,-2.3926,-2.4316,-2.4619,-2.5889,-2.707,-2.7507,-2.8996,-3.0164,-3.0294,-2.9749,-2.9312,-2.9312,-2.8511,-2.7959,-2.8096,-2.8105,-2.8154,-2.8281,-2.8291,-2.8291,-2.8291,-2.8644,-2.946,-3.0824,-3.1601,-3.2524,-3.3635,-3.3903,-3.464,-3.5885,-3.6589,-3.7211,-3.7764,-3.7764,-3.8065,-3.8617,-3.7753,-3.6737,-3.5674,-3.477,-3.4181,-3.38,-3.4225,-3.5002,-3.6108,-3.7583,-3.819,-3.8295,-3.931,-3.9697,-3.9697,-0.4327,-0.4074,-0.3991,-0.4542,-0.4552,-0.4522,-0.4614,-0.4653,-0.4724,-0.4816,-0.469,-0.4582,-0.4582,-0.3914,-0.3849,-0.4755,-0.4652,-0.4825,-0.5491,-0.5446,-0.5436,-0.5528,-0.603,-0.6279,-0.6174,-0.6523,-0.7006,-0.7593,-0.8438,-0.9214,-0.9991,-1.1201,-1.187,-1.2087,-1.2225,-1.2365,-1.2509,-1.2351,-1.2912,-1.3895,-1.3761,-1.4431,-1.5574,-1.5751,-1.5866,-1.6125,-1.6992,-1.7007,-1.6788,-1.7819,-1.7636,-1.6856,-1.6386,-1.586,-1.5607,-1.626,-1.7308,-1.8408,-1.8938,-1.9811,-2.0775,-2.1606,-2.2267,-2.2911,-2.3644,-2.4248,-2.4886,-2.5648,-2.6977,-2.8254,-2.9214,-3.065,-3.173,-3.1921,-3.099,-3.0317,-3.0317,-2.9154,-2.8291,-2.8291,-2.8291,-2.8291,-2.8291,-2.8291,-2.8291,-2.8291,-2.8447,-2.8823,-2.9471,-3.0452,-3.1381,-3.22,-3.2583,-3.3277,-3.4507,-3.6007,-3.7147,-3.8002,-3.8002,-3.8429,-3.9195,-3.7705,-3.6412,-3.5245,-3.3744,-3.2747,-3.2254,-3.2851,-3.3631,-3.4626,-3.6703,-3.7518,-3.769,-3.9141,-3.9697,-3.9697,-0.5597,-0.5058,-0.4598,-0.4598,-0.4546,-0.4491,-0.4491,-0.4607,-0.467,-0.4583,-0.4114,-0.3751,-0.3687,-0.301,-0.2967,-0.3934,-0.4848,-0.5395,-0.5395,-0.5395,-0.5395,-0.5395,-0.5395,-0.5428,-0.5524,-0.6297,-0.6752,-0.6817,-0.8999,-1.0118,-1.0251,-1.1663,-1.2318,-1.2345,-1.2371,-1.2556,-1.2764,-1.2458,-1.3,-1.4029,-1.3719,-1.4158,-1.4991,-1.541,-1.5092,-1.4736,-1.6637,-1.6796,-1.641,-1.8093,-1.8068,-1.7208,-1.6546,-1.68,-1.7143,-1.6254,-1.768,-1.9509,-1.9736,-1.9881,-2.0206,-2.123,-2.2754,-2.3983,-2.3893,-2.4541,-2.5508,-2.6651,-2.7841,-2.9144,-3.0671,-3.16,-3.2222,-3.2614,-3.1429,-3.0463,-3.0463,-2.9207,-2.8291,-2.8291,-2.8291,-2.8291,-2.8291,-2.8291,-2.8291,-2.8291,-2.8682,-2.875,-2.8369,-2.999,-3.0955,-3.0967,-3.1717,-3.2587,-3.3587,-3.4958,-3.6389,-3.7867,-3.8078,-3.8705,-3.9633,-3.819,-3.6703,-3.5245,-3.3744,-3.2254,-3.0995,-3.2369,-3.2907,-3.3191,-3.5988,-3.7186,-3.7465,-3.8973,-3.9581,-3.9697,-0.6367,-0.5792,-0.5273,-0.5273,-0.4842,-0.4491,-0.4491,-0.4518,-0.434,-0.3747,-0.3648,-0.3438,-0.2841,-0.2075,-0.2237,-0.385,-0.4859,-0.5395,-0.5395,-0.5395,-0.5395,-0.5395,-0.5395,-0.5719,-0.6396,-0.6588,-0.7046,-0.7735,-0.9108,-1.0245,-1.1127,-1.1916,-1.2425,-1.2697,-1.2906,-1.2913,-1.2784,-1.2717,-1.2702,-1.2739,-1.2917,-1.2984,-1.2972,-1.354,-1.365,-1.3861,-1.6517,-1.7122,-1.6931,-1.8677,-1.8492,-1.7442,-1.7284,-1.6668,-1.633,-1.7972,-1.8851,-1.9679,-2.157,-2.2775,-2.3421,-2.3167,-2.4361,-2.5349,-2.4461,-2.5225,-2.6192,-2.6438,-2.8898,-3.1089,-3.1446,-3.3634,-3.5411,-3.5487,-3.3441,-3.1876,-3.1876,-2.9807,-2.8291,-2.8291,-2.8291,-2.8291,-2.8291,-2.8291,-2.8291,-2.8291,-2.8682,-2.8877,-2.8789,-2.977,-3.026,-2.9923,-3.0409,-3.1093,-3.2061,-3.2373,-3.4042,-3.7003,-3.8572,-3.9459,-3.9633,-3.819,-3.6703,-3.5245,-3.3744,-3.2254,-3.0947,-3.1276,-3.1383,-3.1546,-3.335,-3.4781,-3.5945,-3.7423,-3.8687,-3.9697,-0.7128,-0.6529,-0.5923,-0.5569,-0.5218,-0.4869,-0.4546,-0.4491,-0.4349,-0.3987,-0.3675,-0.3367,-0.2959,-0.2295,-0.2455,-0.3891,-0.4847,-0.5395,-0.5395,-0.5395,-0.5395,-0.5395,-0.5785,-0.6275,-0.6889,-0.7721,-0.8298,-0.8619,-0.9877,-1.09,-1.165,-1.2275,-1.2717,-1.3012,-1.314,-1.312,-1.2998,-1.2851,-1.2697,-1.2563,-1.2723,-1.269,-1.2603,-1.3033,-1.3387,-1.3906,-1.5904,-1.7371,-1.8611,-2.0342,-2.0457,-1.9809,-1.943,-1.9228,-1.9323,-2.0016,-2.0971,-2.2157,-2.3428,-2.4608,-2.5293,-2.4415,-2.5118,-2.5861,-2.4957,-2.5596,-2.6576,-2.714,-2.9105,-3.0932,-3.1515,-3.3714,-3.521,-3.4545,-3.3243,-3.209,-3.1429,-3.0162,-2.925,-2.925,-2.9817,-3.0214,-3.0214,-2.9608,-2.9351,-2.9563,-2.9357,-2.9228,-2.9228,-2.9844,-3.0,-2.9636,-2.9785,-3.0267,-3.0944,-3.1643,-3.2996,-3.4994,-3.649,-3.7673,-3.8582,-3.7145,-3.6054,-3.5245,-3.3744,-3.2254,-3.0947,-3.1662,-3.1546,-3.1112,-3.3304,-3.4626,-3.5453,-3.6984,-3.8413,-3.9697,-0.7857,-0.7289,-0.6556,-0.5814,-0.5597,-0.5273,-0.4598,-0.4491,-0.446,-0.4322,-0.3769,-0.3348,-0.3248,-0.2944,-0.3079,-0.3911,-0.4842,-0.5395,-0.5395,-0.5395,-0.5458,-0.562,-0.6362,-0.701,-0.7521,-0.9012,-0.9648,-0.9435,-1.0797,-1.1657,-1.1993,-1.2583,-1.3025,-1.3287,-1.334,-1.3333,-1.3267,-1.2998,-1.2837,-1.279,-1.2844,-1.2831,-1.2831,-1.32,-1.3661,-1.4264,-1.5462,-1.7759,-2.0458,-2.2045,-2.2617,-2.2494,-2.1831,-2.2306,-2.295,-2.2145,-2.3254,-2.4872,-2.5241,-2.6036,-2.6524,-2.5475,-2.5772,-2.6139,-2.528,-2.581,-2.6774,-2.7811,-2.8971,-3.0107,-3.113,-3.283,-3.3723,-3.2794,-3.228,-3.1655,-3.0879,-3.0589,-3.0433,-3.0433,-3.1524,-3.228,-3.228,-3.1276,-3.0871,-3.1349,-3.0496,-2.997,-3.005,-3.0248,-3.0117,-2.9744,-2.9756,-2.9922,-3.0195,-3.1472,-3.2317,-3.2747,-3.3447,-3.5091,-3.7465,-3.5945,-3.5453,-3.5617,-3.4125,-3.2758,-3.1777,-3.2975,-3.2758,-3.1893,-3.408,-3.5068,-3.5453,-3.6984,-3.8413,-3.9697,-0.8533,-0.8049,-0.7316,-0.6583,-0.5923,-0.5273,-0.4598,-0.4491,-0.4239,-0.3566,-0.3385,-0.3149,-0.266,-0.3312,-0.382,-0.3833,-0.4784,-0.5395,-0.5395,-0.5395,-0.5752,-0.6494,-0.6852,-0.7764,-0.9315,-0.9799,-1.003,-1.0,-1.1217,-1.1957,-1.2258,-1.2859,-1.3307,-1.3553,-1.3854,-1.3828,-1.3527,-1.3273,-1.2993,-1.2811,-1.3039,-1.3025,-1.2878,-1.3695,-1.4015,-1.4318,-1.6052,-1.8581,-2.1325,-2.2572,-2.3013,-2.3023,-2.2887,-2.296,-2.3256,-2.4104,-2.4564,-2.5199,-2.7134,-2.7763,-2.7708,-2.6976,-2.7116,-2.7082,-2.5468,-2.6035,-2.6984,-2.7117,-2.8799,-3.0275,-3.043,-3.1629,-3.2894,-3.397,-3.214,-3.1066,-3.2461,-3.1684,-3.0969,-3.0916,-3.1731,-3.228,-3.228,-3.2129,-3.229,-3.2853,-3.1913,-3.1543,-3.1993,-3.1264,-3.0586,-3.0127,-3.0508,-3.0547,-3.0205,-3.0817,-3.1101,-3.1218,-3.1323,-3.3522,-3.7465,-3.5945,-3.5999,-3.7145,-3.5617,-3.4914,-3.4748,-3.4902,-3.4902,-3.4637,-3.3744,-3.4191,-3.5453,-3.6984,-3.8413,-3.9697,-0.8049,-0.791,-0.7477,-0.6723,-0.634,-0.5737,-0.4653,-0.4491,-0.4377,-0.4015,-0.3956,-0.3869,-0.3642,-0.4135,-0.4568,-0.4685,-0.512,-0.5433,-0.5518,-0.5525,-0.5726,-0.618,-0.7328,-0.8404,-0.9338,-1.0507,-1.1179,-1.1338,-1.1699,-1.2053,-1.2311,-1.2746,-1.3113,-1.3367,-1.354,-1.3427,-1.3133,-1.3045,-1.2811,-1.2563,-1.2864,-1.3012,-1.3086,-1.3814,-1.4289,-1.4825,-1.6652,-1.8592,-2.0486,-2.1667,-2.2536,-2.3091,-2.3091,-2.3091,-2.3222,-2.3714,-2.4296,-2.4988,-2.5983,-2.6737,-2.7037,-2.6312,-2.6486,-2.6552,-2.5654,-2.626,-2.7012,-2.7012,-2.8135,-2.9207,-2.9207,-3.0266,-3.1133,-3.0989,-3.0628,-3.0381,-3.0671,-3.1634,-3.2823,-3.4307,-3.4821,-3.4917,-3.4629,-3.3909,-3.3789,-3.4588,-3.322,-3.247,-3.2766,-3.2066,-3.1291,-3.0634,-3.0781,-3.0791,-3.0586,-3.0791,-3.0889,-3.0889,-3.0889,-3.2758,-3.6271,-3.5617,-3.6108,-3.7465,-3.6811,-3.6054,-3.5343,-3.6217,-3.6054,-3.5233,-3.457,-3.4736,-3.5563,-3.7861,-3.9129,-3.9697]},{"header":{"parameterUnit":"m.s-1","parameterCategory":1,"la1":30.6,"la2":28.766,"lo1":-90.7593,"lo2":-88.6598,"dy":0.0162,"dx":0.0183,"nx":116,"ny":114,"refTime":"2023-09-04T12:00:00:Z","depth":0,"parameterNumber":3,"parameterNumberName":"V-component_of_WINDS"},"data":[0.0,0.0,0.0,0.0,0.0,0.0,0.0,0.0,0.0,0.0,0.0,0.0,0.0,0.0,0.0,0.0,0.0,0.0,0.0,0.0,0.0,0.0,0.0,0.0,0.0,0.0,0.0,0.0,0.0,0.0,0.0,0.0,0.0,0.0,0.0,0.0,0.0,0.0,0.0,0.0,0.0,0.0,0.0,0.0,0.0,0.0,0.0,0.0,0.0,0.0,0.0,0.0,0.0,0.0,0.0,0.0,0.0,0.0,0.0,0.0,0.0,0.0,0.0,0.0,0.0,0.0,0.0,0.0,0.0,0.0,0.0,0.0,0.0,0.0,0.0,0.0,0.0,0.0,0.0,0.0,0.0,0.0,0.0,0.0,0.0,0.0,0.0,0.0,0.0,0.0,0.0,0.0,0.0,0.0,0.0,0.0,0.0,0.0,0.0,0.0,0.0,0.0,0.0,0.0,0.0,0.0,0.0,0.0,0.0,0.0,0.0,0.0,0.0,0.0,0.0,0.0,0.0,0.0,0.0,0.0,0.0,0.0,0.0,0.0,0.0,0.0,0.0,0.0,0.0,0.0,0.0,0.0,0.0,0.0,0.0,0.0,0.0,0.0,0.0,0.0,0.0,0.0,0.0,0.0,0.0,0.0,0.0,0.0,0.0,0.0,0.0,0.0,0.0,0.0,0.0,0.0,0.0,0.0,0.0,0.0,0.0,0.0,0.0,0.0,0.0,0.0,0.0,0.0,0.0,0.0,0.0,0.0,0.0,0.0,0.0,0.0,0.0,0.0,0.0,0.0,0.0,0.0,0.0,0.0,0.0,0.0,0.0,0.0,0.0,0.0,0.0,0.0,0.0,0.0,0.0,0.0,0.0,0.0,0.0,0.0,0.0,0.0,0.0,0.0,0.0,0.0,0.0,0.0,0.0,0.0,0.0,0.0,0.0,0.0,0.0,0.0,0.0,0.0,0.0,0.0,0.0,0.0,0.0,0.0,0.0,0.0,0.0,0.0,0.0,0.0,0.0,0.0,0.0,0.0,0.0,0.0,0.0,0.0,0.0,0.0,0.0,0.0,0.0,0.0,0.0,0.0,0.0,0.0,0.0,0.0,0.0,0.0,0.0,0.0,0.0,0.0,0.0,0.0,0.0,0.0,0.0,0.0,0.0,0.0,0.0,0.0,0.0,0.0,0.0,0.0,0.0,0.0,0.0,0.0,0.0,0.0,0.0,0.0,0.0,0.0,0.0,0.0,0.0,0.0,0.0,0.0,0.0,0.0,0.0,0.0,0.0,0.0,0.0,0.0,0.0,0.0,0.0,0.0,0.0,0.0,0.0,0.0,0.0,0.0,0.0,0.0,0.0,0.0,0.0,0.0,0.0,0.0,0.0,0.0,0.0,0.0,0.0,0.0,0.0,0.0,0.0,0.0,0.0,0.0,0.0,0.0,0.0,0.0,0.0,0.0,0.0,0.0,0.0,0.0,0.0,0.0,0.0,0.0,0.0,0.0,0.0,0.0,0.0,0.0,0.0,0.0,0.0,0.0,0.0,0.0,0.0,0.0,0.0,0.0,0.0,0.0,0.0,0.0,0.0,0.0,0.0,0.0,0.0,0.0,0.0,0.0,0.0,0.0,0.0,0.0,0.0,0.0,0.0,0.0,0.0,0.0,0.0,0.0,0.0,0.0,0.0,0.0,0.0,0.0,0.0,0.0,0.0,0.0,0.0,0.0,0.0,0.0,0.0,0.0,0.0,0.0,0.0,0.0,0.0,0.0,0.0,0.0,0.0,0.0,0.0,0.0,0.0,0.0,0.0,0.0,0.0,0.0,0.0,0.0,0.0,0.0,0.0,0.0,0.0,0.0,0.0,0.0,0.0,0.0,0.0,0.0,0.0,0.0,0.0,0.0,0.0,0.0,0.0,0.0,0.0,0.0,0.0,0.0,0.0,0.0,0.0,0.0,0.0,0.0,0.0,0.0,0.0,0.0,0.0,0.0,0.0,0.0,0.0,0.0,0.0,0.0,0.0,0.0,0.0,0.0,0.0,0.0,0.0,0.0,0.0,0.0,0.0,0.0,0.0,0.0,0.0,0.0,0.0,0.0,0.0,0.0,0.0,0.0,0.0,0.0,0.0,0.0,0.0,0.0,0.0,0.0,0.0,0.0,0.0,0.0,0.0,0.0,0.0,0.0,0.0,0.0,0.0,0.0,0.0,0.0,0.0,0.0,0.0,0.0,0.0,0.0,0.0,0.0,0.0,0.0,0.0,0.0,0.0,0.0,0.0,0.0,0.0,0.0,0.0,0.0,0.0,0.0,0.0,0.0,0.0,0.0,0.0,0.0,0.0,0.0,0.0,0.0,0.0,0.0,0.0,0.0,0.0,0.0,0.0,0.0,0.0,0.0,0.0,0.0,0.0,0.0,0.0,0.0,0.0,0.0,0.0,0.0,0.0,0.0,0.0,0.0,0.0,0.0,0.0,0.0,0.0,0.0,0.0,0.0,0.0,0.0,0.0,0.0,0.0,0.0,0.0,0.0,0.0,0.0,0.0,0.0,0.0,0.0,0.0,0.0,0.0,0.0,0.0,0.0,0.0,0.0,0.0,0.0,0.0,0.0,0.0,0.0,0.0,0.0,0.0,0.0,0.0,0.0,0.0,0.0,0.0,0.0,0.0,0.0,0.0,0.0,0.0,0.0,0.0,0.0,0.0,0.0,0.0,0.0,0.0,0.0,0.0,0.0,0.0,0.0,0.0,0.0,0.0,0.0,0.0,0.0,0.0,0.0,0.0,0.0,0.0,0.0,0.0,0.0,0.0,0.0,0.0,0.0,0.0,0.0,0.0,0.0,0.0,0.0,0.0,0.0,0.0,0.0,0.0,0.0,0.0,0.0,0.0,0.0,0.0,0.0,0.0,0.0,0.0,0.0,0.0,0.0,0.0,0.0,0.0,0.0,0.0,0.0,0.0,0.0,0.0,0.0,0.0,0.0,0.0,0.0,0.0,0.0,0.0,0.0,0.0,0.0,0.0,0.0,0.0,0.0,0.0,0.0,0.0,0.0,0.0,0.0,0.0,0.0,0.0,0.0,0.0,0.0,0.0,0.0,0.0,0.0,0.0,0.0,0.0,0.0,0.0,0.0,0.0,0.0,0.0,0.0,0.0,0.0,0.0,0.0,0.0,0.0,0.0,0.0,0.0,0.0,0.0,0.0,0.0,0.0,0.0,0.0,0.0,0.0,0.0,0.0,0.0,0.0,0.0,0.0,0.0,0.0,0.0,0.0,0.0,0.0,0.0,0.0,0.0,0.0,0.0,0.0,0.0,0.0,0.0,0.0,0.0,0.0,0.0,0.0,0.0,0.0,0.0,0.0,0.0,0.0,0.0,0.0,0.0,0.0,0.0,0.0,0.0,0.0,0.0,0.0,0.0,0.0,0.0,0.0,0.0,0.0,0.0,0.0,0.0,0.0,0.0,0.0,0.0,0.0,0.0,0.0,0.0,0.0,0.0,0.0,0.0,0.0,0.0,0.0,0.0,0.0,0.0,0.0,0.0,0.0,0.0,0.0,0.0,0.0,0.0,0.0,0.0,0.0,0.0,0.0,0.0,0.0,0.0,0.0,0.0,0.0,0.0,0.0,0.0,0.0,0.0,0.0,0.0,0.0,0.0,0.0,0.0,0.0,0.0,0.0,0.0,0.0,0.0,0.0,0.0,0.0,0.0,0.0,0.0,0.0,0.0,0.0,0.0,0.0,0.0,0.0,0.0,0.0,0.0,0.0,0.0,0.0,0.0,0.0,0.0,0.0,0.0,0.0,0.0,0.0,0.0,0.0,0.0,0.0,0.0,0.0,0.0,0.0,0.0,0.0,0.0,0.0,0.0,0.0,0.0,0.0,0.0,0.0,0.0,0.0,0.0,0.0,0.0,0.0,0.0,0.0,0.0,0.0,0.0,0.0,0.0,0.0,0.0,0.0,0.0,0.0,0.0,0.0,0.0,0.0,0.0,0.0,0.0,0.0,0.0,0.0,0.0,0.0,0.0,0.0,0.0,0.0,0.0,0.0,0.0,0.0,0.0,0.0,0.0,0.0,0.0,0.0,0.0,0.0,0.0,0.0,0.0,0.0,0.0,0.0,0.0,0.0,0.0,0.0,0.0,0.0,0.0,0.0,0.0,0.0,0.0,0.0,0.0,0.0,0.0,0.0,0.0,0.0,0.0,0.0,0.0,0.0,0.0,0.0,0.0,0.0,0.0,0.0,0.0,0.0,0.0,0.0,0.0,0.0,0.0,0.0,0.0,0.0,0.0,0.0,0.0,0.0,0.0,0.0,0.0,0.0,0.0,0.0,0.0,0.0,0.0,0.0,0.0,0.0,0.0,0.0,0.0,0.0,0.0,0.0,0.0,0.0,0.0,0.0,0.0,0.0,0.0,0.0,0.0,0.0,0.0,0.0,0.0,0.0,0.0,0.0,0.0,0.0,0.0,0.0,0.0,0.0,0.0,0.0,0.0,0.0,0.0,0.0,0.0,0.0,0.0,0.0,0.0,0.0,0.0,0.0,0.0,0.0,0.0,0.0,0.0,0.0,0.0,0.0,0.0,0.0,0.0,0.0,0.0,0.0,0.0,0.0,0.0,0.0,0.0,0.0,0.0,0.0,0.0,0.0,0.0,0.0,0.0,0.0,0.0,0.0,0.0,0.0,0.0,0.0,0.0,0.0,0.0,0.0,0.0,0.0,0.0,0.0,0.0,0.0,0.0,0.0,0.0,0.0,0.0,0.0,0.0,0.0,0.0,0.0,0.0,0.0,0.0,0.0,0.0,0.0,0.0,0.0,0.0,0.0,0.0,0.0,0.0,0.0,0.0,0.0,0.0,0.0,0.0,0.0,0.0,0.0,0.0,0.0,0.0,0.0,0.0,0.0,0.0,0.0,0.0,0.0,0.0,0.0,0.0,0.0,0.0,0.0,0.0,0.0,0.0,0.0,0.0,0.0,0.0,0.0,0.0,0.0,0.0,0.0,0.0,0.0,0.0,0.0,0.0,0.0,0.0,0.0,0.0,0.0,0.0,0.0,0.0,0.0,0.0,0.0,0.0,0.0,0.0,0.0,0.0,0.0,0.0,0.0,0.0,0.0,0.0,0.0,0.0,0.0,0.0,0.0,0.0,0.0,0.0,0.0,0.0,0.0,0.0,0.0,0.0,0.0,0.0,0.0,0.0,0.0,0.0,0.0,0.0,0.0,0.0,0.0,0.0,0.0,0.0,0.0,0.0,0.0,0.0,0.0,0.0,0.0,0.0,0.0,0.0,0.0,0.0,0.0,0.0,0.0,0.0,0.0,0.0,0.0,0.0,0.0,0.0,0.0,0.0,0.0,0.0,0.0,0.0,0.0,0.0,0.0,0.0,0.0,0.0,0.0,0.0,0.0,0.0,0.0,0.0,0.0,0.0,0.0,0.0,0.0,0.0,0.0,0.0,0.0,0.0,0.0,0.0,0.0,0.0,0.0,0.0,0.0,0.0,0.0,0.0,0.0,0.0,0.0,0.0,0.0,0.0,0.0,0.0,0.0,0.0,0.0,0.0,0.0,0.0,0.0,0.0,0.0,0.0,0.0,0.0,0.0,0.0,0.0,0.0,0.0,0.0,0.0,0.0,0.0,0.0,0.0,0.0,0.0,0.0,0.0,0.0,0.0,0.0,0.0,0.0,0.0,0.0,0.0,0.0,0.0,0.0,0.0,0.0,0.0,0.0,0.0,0.0,0.0,0.0,0.0,0.0,0.0,0.0,0.0,0.0,0.0,0.0,0.0,0.0,0.0,0.0,0.0,0.0,0.0,0.0,0.0,0.0,0.0,0.0,0.0,0.0,0.0,0.0,0.0,0.0,0.0,0.0,0.0,0.0,0.0,0.0,0.0,0.0,0.0,0.0,0.0,0.0,0.0,0.0,0.0,0.0,0.0,0.0,0.0,0.0,0.0,0.0,0.0,0.0,0.0,0.0,0.0,0.0,0.0,0.0,0.0,0.0,0.0,0.0,0.0,0.0,0.0,0.0,0.0,0.0,0.0,0.0,0.0,0.0,0.0,0.0,0.0,0.0,0.0,0.0,0.0,0.0,0.0,3.3903,0.0,0.0,0.0,0.0,0.0,0.0,0.0,0.0,0.0,0.0,0.0,0.0,0.0,0.0,0.0,0.0,0.0,0.0,0.0,0.0,0.0,0.0,0.0,0.0,0.0,0.0,0.0,0.0,0.0,0.0,0.0,0.0,0.0,0.0,0.0,0.0,0.0,0.0,2.869,2.8752,2.8246,2.7231,2.7669,2.7637,2.7257,0.0,0.0,0.0,0.0,0.0,0.0,0.0,0.0,0.0,0.0,0.0,0.0,0.0,0.0,0.0,0.0,0.0,0.0,0.0,0.0,0.0,0.0,0.0,0.0,0.0,0.0,0.0,0.0,0.0,0.0,0.0,0.0,0.0,0.0,0.0,0.0,0.0,0.0,0.0,0.0,0.0,0.0,0.0,0.0,0.0,0.0,0.0,0.0,0.0,0.0,0.0,0.0,0.0,0.0,0.0,0.0,0.0,0.0,0.0,0.0,0.0,0.0,0.0,0.0,0.0,0.0,0.0,0.0,0.0,0.0,0.0,3.519,0.0,0.0,0.0,0.0,0.0,0.0,0.0,0.0,0.0,0.0,0.0,0.0,0.0,0.0,0.0,0.0,0.0,0.0,0.0,0.0,0.0,0.0,0.0,2.5521,2.5925,2.6741,2.7548,2.8007,0.0,0.0,0.0,0.0,0.0,0.0,2.9911,3.0618,3.1173,3.1562,3.1288,3.1093,3.0991,3.0848,2.9764,2.7947,2.8325,0.0,0.0,0.0,0.0,0.0,0.0,0.0,0.0,0.0,0.0,0.0,0.0,0.0,0.0,0.0,0.0,0.0,0.0,0.0,0.0,0.0,0.0,0.0,0.0,0.0,0.0,0.0,0.0,0.0,0.0,0.0,0.0,0.0,0.0,0.0,0.0,0.0,0.0,0.0,0.0,0.0,0.0,0.0,0.0,0.0,0.0,0.0,0.0,0.0,0.0,0.0,0.0,0.0,0.0,0.0,0.0,0.0,0.0,0.0,0.0,0.0,0.0,0.0,3.5977,3.7403,3.9933,4.0016,4.0121,4.0202,3.9095,3.8287,3.7764,3.7764,0.0,0.0,0.0,0.0,0.0,0.0,0.0,0.0,0.0,0.0,0.0,0.0,0.0,0.0,0.0,0.0,0.0,0.0,0.0,0.0,0.0,2.6025,2.6778,2.7567,2.8381,2.884,2.884,0.0,0.0,0.0,0.0,0.0,3.1151,3.1279,3.1458,3.1755,3.1998,3.2672,3.3758,3.3064,3.2051,3.0784,2.9213,2.8693,2.8937,0.0,0.0,0.0,0.0,0.0,0.0,0.0,0.0,0.0,0.0,0.0,0.0,0.0,0.0,0.0,0.0,0.0,0.0,0.0,0.0,0.0,0.0,0.0,0.0,0.0,0.0,0.0,0.0,0.0,0.0,0.0,0.0,0.0,0.0,0.0,0.0,0.0,0.0,0.0,0.0,0.0,2.999,2.9804,0.0,0.0,0.0,0.0,0.0,0.0,0.0,0.0,0.0,0.0,0.0,0.0,0.0,3.6917,3.6223,3.7129,3.786,3.8533,3.9069,4.0299,4.2036,4.2566,4.308,4.3658,4.3479,0.0,3.9119,3.9119,0.0,0.0,0.0,0.0,0.0,0.0,0.0,0.0,0.0,0.0,0.0,0.0,0.0,0.0,0.0,0.0,0.0,0.0,0.0,0.0,0.0,2.6161,2.6739,2.8349,2.8489,2.8629,2.898,2.9427,0.0,0.0,0.0,3.1935,3.2724,3.2896,3.3592,3.4824,3.6386,3.6971,3.666,3.6294,3.5364,3.3941,3.2657,3.1092,2.9357,2.9107,0.0,0.0,0.0,0.0,0.0,0.0,0.0,0.0,0.0,0.0,0.0,0.0,0.0,0.0,0.0,0.0,0.0,0.0,0.0,0.0,0.0,0.0,0.0,0.0,0.0,0.0,0.0,0.0,0.0,0.0,0.0,0.0,0.0,0.0,0.0,0.0,0.0,0.0,0.0,2.9676,3.0164,2.9136,2.9971,3.0204,0.0,0.0,0.0,0.0,0.0,0.0,0.0,0.0,0.0,3.6689,3.885,3.981,3.9483,4.0281,4.096,4.1484,4.2119,4.3178,4.4616,4.5274,4.5918,4.6546,4.6546,4.5529,4.3733,4.2252,4.1025,4.0008,0.0,0.0,0.0,0.0,3.9813,4.0187,0.0,0.0,0.0,0.0,0.0,0.0,0.0,0.0,0.0,0.0,0.0,0.0,2.6531,2.614,2.6525,2.8389,2.8074,2.8064,2.8732,2.9535,3.0139,3.0485,3.1918,3.3184,3.4223,3.4997,3.6244,3.794,4.0081,4.0593,3.9543,3.9107,3.8317,3.7192,3.6023,3.3856,3.1094,3.0859,3.0193,2.9305,0.0,0.0,0.0,0.0,0.0,0.0,0.0,0.0,0.0,0.0,0.0,0.0,0.0,0.0,0.0,0.0,0.0,0.0,0.0,0.0,0.0,0.0,0.0,0.0,0.0,0.0,0.0,0.0,0.0,0.0,0.0,0.0,0.0,0.0,0.0,0.0,0.0,3.0288,3.0488,2.8535,3.0049,3.0797,0.0,0.0,0.0,0.0,0.0,0.0,3.2829,3.5915,3.7954,3.8609,4.124,4.2576,4.241,4.3342,4.4029,4.4407,4.5035,4.5948,4.71,4.7578,4.8072,4.858,4.858,4.8252,4.7623,4.5155,4.3344,4.2073,4.1399,4.1459,4.1893,4.1878,4.1983,4.2312,0.0,0.0,0.0,0.0,0.0,0.0,0.0,0.0,0.0,0.0,0.0,2.524,2.5974,2.6004,2.6346,2.7202,2.7091,2.7307,2.8087,2.8957,3.0007,3.128,3.2388,3.3741,3.5379,3.7551,3.909,3.9948,4.1153,4.1968,4.2361,4.0768,4.0248,4.056,3.8153,3.6382,3.507,3.2922,3.2412,3.2897,3.1408,0.0,0.0,0.0,0.0,0.0,0.0,0.0,0.0,0.0,0.0,0.0,0.0,0.0,0.0,0.0,0.0,0.0,0.0,0.0,0.0,0.0,0.0,0.0,0.0,0.0,0.0,0.0,0.0,0.0,0.0,0.0,0.0,0.0,0.0,0.0,0.0,0.0,0.0,2.9198,3.1304,0.0,0.0,0.0,0.0,3.0498,3.2913,3.4361,3.4292,3.8131,4.0576,4.1205,4.401,4.5384,4.5095,4.6661,4.7349,4.7115,4.7773,4.8446,4.9164,4.9194,4.9224,4.9269,4.9269,4.9239,4.906,4.701,4.5379,4.4107,4.3409,4.3225,4.3284,4.3254,4.3589,4.4092,0.0,0.0,0.0,0.0,0.0,0.0,0.0,0.0,2.5182,2.5126,2.5094,2.5335,2.6044,2.5711,2.5895,2.7102,2.674,2.6962,2.8209,2.896,3.0338,3.2582,3.3433,3.5049,3.7628,4.0051,4.1533,4.2023,4.3513,4.407,4.3683,4.3078,4.263,4.2279,4.1167,4.0454,3.9862,3.6485,3.4512,3.357,3.3004,3.1967,0.0,0.0,0.0,0.0,0.0,0.0,0.0,0.0,0.0,0.0,0.0,0.0,0.0,0.0,0.0,0.0,0.0,0.0,0.0,0.0,0.0,0.0,0.0,0.0,0.0,0.0,0.0,0.0,0.0,0.0,0.0,0.0,0.0,0.0,0.0,0.0,0.0,3.1433,3.3265,0.0,3.1729,3.1705,3.1917,3.2215,3.3861,3.4766,3.4652,3.8397,4.1087,4.2211,4.395,4.5626,4.7204,4.7802,4.8437,4.9149,4.9868,5.0301,5.0541,5.096,5.0915,5.0526,5.0526,5.0047,4.9254,4.8506,4.7938,4.7444,4.6785,4.6785,4.707,4.6202,4.6307,4.6785,0.0,0.0,0.0,0.0,0.0,0.0,0.0,0.0,2.5308,2.5308,2.5235,2.5495,2.6285,2.5683,2.5712,2.693,2.6295,2.6606,2.8422,2.9171,3.0857,3.3714,3.539,3.7207,3.9261,4.1839,4.3291,4.3508,4.4921,4.5306,4.472,4.4432,4.4162,4.3912,4.3129,4.2862,4.2838,3.9797,3.7565,3.596,3.5308,3.4473,3.345,0.0,0.0,0.0,0.0,0.0,0.0,0.0,0.0,0.0,0.0,0.0,0.0,0.0,0.0,0.0,0.0,0.0,0.0,0.0,0.0,0.0,0.0,0.0,0.0,0.0,0.0,0.0,0.0,0.0,0.0,0.0,0.0,0.0,0.0,0.0,3.4868,3.2263,3.3719,3.4166,3.2208,3.2979,3.3408,3.287,3.551,3.661,3.548,3.9461,4.2333,4.3517,4.4748,4.6395,4.8611,4.9045,4.9703,5.0539,5.1229,5.1558,5.1558,5.1768,5.1633,5.1214,5.1214,5.072,4.9927,4.9927,4.9793,4.9508,4.8626,4.8551,4.8865,4.7952,4.7908,4.8192,0.0,0.0,0.0,0.0,0.0,0.0,0.0,2.5332,2.5332,2.5313,2.5406,2.58,2.6583,2.599,2.5832,2.6587,2.5715,2.6159,2.8647,2.9591,3.1473,3.4651,3.8233,4.0167,4.0225,4.2895,4.4316,4.4327,4.5173,4.5577,4.5549,4.4703,4.4761,4.5491,4.3876,4.3445,4.3829,4.2657,4.1524,4.0328,3.8368,3.7758,3.787,0.0,0.0,0.0,0.0,0.0,0.0,0.0,0.0,0.0,0.0,0.0,0.0,0.0,0.0,0.0,0.0,0.0,0.0,0.0,0.0,0.0,0.0,0.0,0.0,0.0,0.0,0.0,0.0,0.0,0.0,0.0,0.0,0.0,3.7263,3.7379,3.6186,3.1573,3.2547,3.2993,3.1334,3.3968,3.4852,3.249,3.7899,3.9959,3.6961,4.1409,4.4433,4.5277,4.6483,4.7835,4.9299,5.0571,5.1244,5.1289,5.1947,5.2261,5.2232,5.1588,5.1274,5.1244,5.1229,5.1199,5.1154,5.1154,5.0704,4.9986,4.882,4.8341,4.8312,4.8297,4.8282,4.8162,0.0,0.0,0.0,0.0,0.0,0.0,0.0,2.5901,2.609,2.5452,2.6533,2.6976,2.5946,2.6242,2.6314,2.58,2.5496,2.6285,2.8567,2.8989,3.1444,3.6584,3.9721,4.1906,4.3124,4.3906,4.4478,4.4888,4.5118,4.5118,4.4865,4.4637,4.4656,4.4846,4.4379,4.4256,4.4379,4.3736,4.3285,4.2794,4.0253,3.9088,3.8755,0.0,0.0,0.0,0.0,0.0,0.0,0.0,0.0,0.0,0.0,0.0,0.0,0.0,0.0,0.0,0.0,0.0,0.0,0.0,0.0,0.0,0.0,0.0,0.0,0.0,0.0,0.0,0.0,0.0,0.0,0.0,4.7128,4.7042,4.2725,3.9735,3.7025,3.4381,3.3823,3.3476,3.3038,3.4836,3.6139,3.6487,3.923,4.053,3.9579,4.1904,4.3951,4.5241,4.5643,4.7143,4.9927,5.0795,5.1693,5.265,5.3324,5.3653,5.3638,5.295,5.2381,5.1902,5.1424,5.0676,4.9808,4.9808,4.9134,4.8222,4.9239,4.9419,4.8985,4.8461,4.7982,4.7549,0.0,0.0,0.0,0.0,0.0,0.0,0.0,2.641,2.6556,2.6002,2.691,2.7065,2.5683,2.6038,2.6104,2.5492,2.6086,2.7325,2.9289,3.1797,3.4737,3.8156,4.1229,4.3297,4.4278,4.4662,4.493,4.5096,4.5096,4.4931,4.4593,4.4593,4.4593,4.4593,4.4593,4.4593,4.4567,4.4161,4.4187,4.4324,4.2228,4.1234,4.0919,4.0119,3.9837,3.986,3.9659,3.9428,3.9148,3.8526,0.0,0.0,0.0,0.0,0.0,0.0,0.0,0.0,0.0,0.0,0.0,0.0,0.0,0.0,0.0,0.0,0.0,0.0,0.0,0.0,0.0,0.0,0.0,0.0,5.2637,5.2988,5.0002,4.4545,3.9921,3.7352,3.5044,3.3691,3.3691,3.5542,3.6907,3.7238,4.0458,4.1943,4.0995,4.3212,4.503,4.6036,4.6608,4.8258,5.1003,5.1708,5.2576,5.3608,5.4012,5.4206,5.4192,5.3503,5.2658,0.0,5.1664,5.084,4.9584,4.9654,4.9224,0.0,0.0,0.0,0.0,0.0,4.7878,4.7309,0.0,0.0,0.0,0.0,0.0,0.0,0.0,2.6865,2.6945,2.6879,2.7052,2.6834,2.586,2.5762,2.5689,2.5517,2.7126,2.8955,3.0858,3.6159,3.9358,3.9565,4.2604,4.4355,4.4432,4.521,4.5419,4.5052,4.5052,4.4861,4.4474,4.4474,4.4474,4.4474,4.4474,4.453,4.4597,4.4222,4.4553,4.5191,4.4183,4.3735,4.3552,4.2837,4.3002,4.3591,4.3268,4.2663,4.1953,4.1455,0.0,0.0,0.0,0.0,0.0,0.0,0.0,0.0,0.0,0.0,0.0,0.0,0.0,0.0,0.0,0.0,0.0,0.0,0.0,0.0,0.0,0.0,0.0,0.0,5.829,5.8735,5.7415,5.0866,4.4671,4.0425,3.6458,3.4136,3.4231,3.636,3.7428,3.6692,4.1579,4.3821,4.1974,0.0,0.0,0.0,0.0,5.0252,5.2187,5.2935,5.3608,5.4206,5.4281,5.4326,5.4296,5.3608,5.2566,5.1251,5.1909,5.1379,5.0058,5.0088,5.0001,4.9747,4.8716,4.8237,4.8177,4.8177,4.7803,4.7309,0.0,0.0,0.0,0.0,0.0,0.0,0.0,2.7477,2.7929,2.7904,2.854,2.842,2.6893,2.6737,2.6396,2.5578,2.7679,3.0608,3.4263,3.7324,3.968,4.125,4.3239,4.4624,4.5325,4.5518,4.5293,4.4714,4.4714,4.4364,4.3712,4.3712,4.3712,4.3712,4.3712,4.4081,4.4675,4.459,4.5034,4.5752,4.5516,4.5057,4.4452,4.4305,4.4342,4.4544,4.5096,4.5307,4.5181,4.4491,4.3671,4.2613,4.0877,3.9869,0.0,0.0,0.0,0.0,0.0,0.0,0.0,0.0,0.0,0.0,0.0,0.0,0.0,0.0,0.0,0.0,0.0,0.0,0.0,5.7452,6.0023,6.1102,5.9615,5.649,5.1534,4.3923,3.9189,3.6797,3.7597,3.8339,3.9226,4.0269,4.2961,4.4744,4.5021,4.6071,4.7339,4.8731,4.9566,5.0734,5.2202,5.3399,5.4072,5.4221,0.0,0.0,5.4985,5.4311,5.355,5.2772,5.2375,5.1431,5.0154,4.9672,4.8835,4.7893,4.8177,4.7967,4.7489,4.7489,4.7414,4.7309,0.0,0.0,0.0,0.0,0.0,0.0,0.0,2.7662,2.8232,2.82,2.899,2.8902,2.7187,2.6971,2.6569,2.5634,2.822,3.1482,3.5244,3.8135,4.0123,4.1104,4.3585,4.496,4.496,4.5383,4.5352,4.4849,4.467,4.4308,4.3758,4.358,4.3515,4.3515,4.3515,4.3956,4.4691,4.4691,4.5406,4.6471,4.6067,4.5902,4.5902,4.5902,4.5902,4.6012,4.6819,4.6906,4.658,4.6238,4.5466,4.4446,4.3387,4.2123,4.077,0.0,0.0,0.0,0.0,0.0,0.0,0.0,0.0,0.0,0.0,0.0,0.0,0.0,0.0,4.5361,4.8512,0.0,5.6443,5.9926,6.2232,6.3055,6.159,5.952,5.5467,4.8194,4.3869,4.1372,4.1055,4.0978,4.1238,4.1875,4.4318,4.5823,4.5904,4.7459,4.8606,4.919,5.0515,5.1679,5.268,5.3698,5.4536,5.5194,5.5523,5.5688,5.5673,5.5344,5.4259,5.257,5.2658,5.152,4.9586,4.9369,4.8491,4.7369,4.8027,4.7878,4.7309,4.7309,4.7309,4.7309,0.0,0.0,0.0,0.0,0.0,0.0,0.0,2.7531,2.8063,2.8205,2.8727,2.8555,2.7148,2.6792,2.664,2.6581,2.9281,3.2413,3.5764,3.8815,4.0573,4.0746,4.3555,4.4863,4.4316,4.4998,4.5275,4.5096,4.4837,4.4455,4.3982,4.3726,4.3638,4.3718,4.3718,4.4268,4.5168,4.5168,4.5993,4.7278,4.6636,4.6764,4.7333,4.7333,4.7241,4.7204,4.8012,4.7773,4.7113,4.7278,4.6499,4.5456,4.5375,4.426,4.2725,4.1377,4.0672,0.0,0.0,0.0,0.0,0.0,0.0,0.0,0.0,4.117,4.1907,4.3656,4.5599,4.8186,5.2172,5.5464,5.8689,6.2044,6.382,6.4396,6.323,6.1559,5.8527,5.3296,4.9186,4.6282,4.4957,4.3965,4.3409,4.3491,4.5658,4.689,4.6531,4.8729,4.9859,4.9596,5.1406,5.271,5.3369,5.4192,5.5179,5.6346,5.6278,5.6218,5.6218,5.5912,5.4516,5.2274,5.2492,5.1176,4.888,4.9054,4.8371,4.7354,4.7893,4.7773,4.7309,4.7309,4.7309,4.7309,0.0,0.0,0.0,0.0,0.0,0.0,0.0,0.0,2.7352,2.8183,2.7715,2.7226,2.7012,2.6308,2.6979,2.9799,3.168,3.4133,3.7495,3.9477,4.0854,4.1623,4.2758,4.3662,4.4297,4.4393,4.4661,4.5096,4.5063,4.4676,4.4001,4.3955,4.4161,4.458,4.458,4.5406,4.6837,4.6837,4.7351,4.8159,4.8067,4.8104,4.8177,4.8177,4.7718,4.7204,4.8012,4.7773,4.7204,4.7921,4.7589,4.6778,4.6327,4.6011,4.5197,4.1948,4.0949,4.0469,3.8445,3.7973,3.8633,4.117,4.095,4.1474,0.0,4.6921,4.6836,4.9644,5.1485,5.2963,5.4139,5.752,6.0457,6.155,6.3456,6.461,6.4035,6.349,6.2216,5.9703,5.4002,5.0082,4.9661,4.7169,4.6016,4.7058,4.7012,4.7536,4.8753,4.9581,5.0284,5.0979,5.2363,5.3399,5.4087,5.5329,5.6301,5.6974,5.6436,5.6218,5.6188,5.497,5.3913,5.2979,5.1255,4.9716,4.8403,4.8402,4.7967,4.7309,4.7384,4.7369,4.7309,4.7309,4.7309,4.7309,0.0,0.0,0.0,0.0,0.0,0.0,0.0,0.0,0.0,2.7433,2.7635,2.7559,2.7051,2.668,2.7396,2.9743,3.1433,3.3775,3.7146,3.8893,4.0169,4.1008,4.2354,4.3028,4.2854,4.3797,4.4407,4.4624,4.4953,4.4943,4.4657,4.4912,4.5028,4.501,4.5508,4.6243,4.7094,4.7094,4.7553,4.8306,4.8306,4.8306,4.8251,4.7773,4.7388,4.7131,4.748,4.7388,0.0,4.6948,4.6691,4.636,4.6154,4.5283,4.4089,4.2617,4.1673,4.1007,4.057,4.1119,4.2083,4.3345,4.4147,4.5285,4.78,4.8562,4.9299,5.1398,5.3081,5.4787,5.693,5.8706,6.0362,6.2048,6.3318,6.3928,6.3419,6.3507,6.2665,6.0086,5.7013,5.4466,5.2826,5.0145,4.8289,4.7815,4.8658,4.8881,4.8053,4.9727,5.0659,5.0614,5.268,5.3922,5.4206,5.5867,5.7034,5.7678,5.7019,5.6705,5.666,5.5374,5.3982,5.2516,5.0883,4.9718,4.8865,4.8446,4.7893,4.7309,4.7309,4.7309,4.7309,4.7309,4.7309,4.7354,0.0,0.0,0.0,0.0,0.0,0.0,0.0,0.0,0.0,0.0,2.7166,2.7344,2.6719,2.707,2.7849,2.9036,3.1291,3.3642,3.6037,3.8164,3.9579,4.0131,4.1585,4.22,4.1808,4.322,4.4085,4.4297,4.493,4.5191,4.5115,4.5677,4.5841,4.5716,4.6498,4.7111,4.7592,4.7481,4.7755,4.8306,4.8306,4.8177,4.7901,4.7314,4.6947,4.6764,4.6764,4.6617,4.6324,4.5626,4.5351,4.5332,4.5164,4.4304,4.3284,4.3147,4.2182,4.1373,4.21,4.325,4.4401,4.5055,4.6718,4.8294,4.87,4.9795,5.1258,5.3164,5.4456,5.6119,5.9054,5.9775,6.044,6.1905,6.264,6.2744,6.1943,6.2167,6.1482,5.8979,5.7825,5.6471,5.4593,5.223,5.0255,4.8901,4.9854,4.9782,4.81,4.9865,5.0853,5.0734,5.301,5.4386,5.4745,5.6496,5.7723,5.8381,5.7513,5.7094,5.7034,5.5388,5.3548,5.1603,5.0599,4.9868,4.9269,4.8805,4.8162,4.7578,4.7578,4.7459,4.7309,4.7309,4.7309,4.7369,0.0,0.0,0.0,0.0,0.0,0.0,0.0,0.0,0.0,0.0,0.0,0.0,0.0,2.7246,2.826,2.8235,3.2087,3.4489,3.4386,3.7539,3.9387,3.935,4.0131,4.095,4.1769,4.2681,4.3528,4.4297,4.5163,4.5419,4.5115,4.5916,4.6522,4.6967,4.7448,4.8096,4.8809,4.844,4.8288,4.8306,4.8306,4.7828,4.7131,4.7113,4.6617,4.5938,4.5938,4.5443,4.4692,4.4211,4.4019,4.3882,4.334,4.3646,4.4049,4.3456,4.2302,4.1373,4.21,4.2861,4.3978,4.6177,4.7851,4.934,5.0762,5.1674,5.3087,5.6126,5.6804,5.7561,5.9924,6.099,6.1296,6.0598,6.1142,6.113,5.9627,5.9414,5.884,5.726,5.5729,5.4765,0.0,5.2959,5.1687,5.131,5.0385,4.9929,5.0091,5.0196,5.084,5.2097,5.3488,5.482,5.6158,5.7423,5.8426,5.9054,5.7723,5.7094,5.7004,5.4416,5.2157,5.0255,5.0211,4.9868,4.9314,4.9284,4.8895,4.8252,4.8252,4.7863,4.7309,4.7309,4.7309,4.7309,0.0,0.0,0.0,0.0,0.0,0.0,0.0,0.0,0.0,0.0,0.0,0.0,0.0,0.0,0.0,0.0,3.0895,3.2968,3.5207,3.6318,3.7367,3.8466,3.9266,4.0092,4.0912,4.2404,4.3535,4.4297,4.5252,4.5618,4.5467,4.6848,4.7442,4.7384,4.8717,4.9152,4.8897,4.8761,4.8882,4.9058,4.7957,4.7663,4.7718,4.6104,4.5021,4.4232,0.0,4.3487,4.3249,4.1958,4.1637,4.1749,4.1564,4.1736,4.1899,4.1342,4.1529,4.2202,4.3498,4.5077,4.6908,4.9171,5.0473,5.1471,5.2503,5.3301,5.4244,5.579,5.5654,5.5684,5.7075,5.7484,5.7729,5.8089,5.9242,5.9888,5.9372,5.9306,5.8542,5.6462,5.574,0.0,0.0,0.0,0.0,5.0817,5.12,5.0709,4.9014,5.0182,5.1094,5.1528,5.3698,5.5284,5.6218,5.7902,5.889,5.9084,5.7737,5.6181,5.4461,5.3578,5.2351,5.0838,5.0838,5.0511,4.9912,4.9912,4.9269,4.8327,4.8805,4.8267,4.7354,4.7803,4.7683,4.7369,0.0,0.0,0.0,0.0,0.0,0.0,0.0,0.0,0.0,0.0,0.0,0.0,0.0,0.0,0.0,0.0,0.0,3.1696,3.3903,3.5084,3.6166,3.7196,3.8332,3.9187,3.9709,4.1147,4.2251,4.3045,4.4014,4.4718,4.5232,4.6632,4.727,4.7335,4.8621,4.8908,4.8431,4.8294,4.8306,4.8348,4.6964,4.6488,4.6416,4.4856,4.3773,0.0,4.2488,4.2196,4.1815,4.0161,3.9957,4.0295,3.9835,4.0297,4.0991,4.0917,4.1957,4.3504,4.5297,4.7192,4.9154,5.1116,5.2181,5.2858,5.3382,5.3865,5.4434,5.5185,5.4677,5.4394,5.5266,5.5383,5.543,5.5742,5.6846,5.7557,5.7265,5.6912,5.5993,5.4204,5.3702,5.2703,0.0,0.0,0.0,4.9906,5.08,5.06,4.8774,5.0272,5.1439,5.1902,5.4042,5.5613,5.6496,5.8007,5.8635,5.8366,5.7049,5.5284,5.3174,5.2935,5.2232,5.1214,5.1214,5.0975,5.0524,5.0285,4.9598,4.87,4.888,4.8252,4.7354,4.7773,4.7668,4.7369,0.0,0.0,0.0,0.0,0.0,0.0,0.0,0.0,0.0,0.0,0.0,0.0,0.0,0.0,0.0,0.0,0.0,0.0,3.0708,3.3844,3.5654,3.5583,3.7238,3.8183,3.8222,3.9053,3.9928,4.0784,4.1624,4.2805,4.4311,4.5195,4.599,4.6722,4.7144,4.7381,4.7441,4.7046,4.6667,4.6259,4.5403,4.4436,4.3515,4.346,4.2928,4.2249,4.2286,4.1578,4.042,3.8947,3.9087,3.9675,3.8486,3.9631,4.1525,4.2252,4.3555,4.5229,4.7428,4.9086,5.0557,5.1995,5.2942,5.3501,5.345,5.3416,5.3581,5.4319,5.3827,5.3486,5.4203,5.4428,5.426,5.3552,5.4069,5.4379,5.3636,5.2589,5.1619,5.0878,4.9948,4.9095,4.8387,0.0,0.0,4.8687,0.0,4.9583,4.9269,5.0402,5.1667,5.3077,5.4391,5.5741,5.7079,5.7782,5.7782,5.7079,5.5807,5.4491,5.3159,5.2501,5.1843,5.1214,5.1214,5.1214,5.1169,5.0465,4.9853,4.9254,4.8581,4.7923,4.7309,4.7339,4.7339,4.7309,0.0,0.0,0.0,0.0,0.0,0.0,0.0,0.0,0.0,0.0,0.0,0.0,0.0,0.0,0.0,0.0,0.0,0.0,3.0779,3.2204,3.3273,3.3884,3.5438,3.6566,3.7161,3.8665,3.9805,4.0577,4.0909,4.1214,4.1535,4.2414,4.3269,4.4096,4.4803,4.5321,4.5639,4.5332,4.5331,4.5356,4.3726,4.3214,4.3441,4.2818,4.2121,4.148,4.2084,4.1216,3.9742,3.9352,3.9956,4.0866,4.1103,4.2337,4.3887,4.4621,4.5889,4.7428,4.9086,5.0625,5.1978,5.2959,5.3348,5.3348,5.2739,5.2198,5.1711,5.1348,4.9743,4.8305,4.8059,4.9299,5.0471,5.0923,5.2354,5.3547,5.3911,5.2594,5.1333,5.0585,5.0278,4.9753,4.8755,4.8816,0.0,0.0,4.8179,4.879,4.8333,4.8603,4.987,5.2216,5.3096,5.4684,5.7079,5.7782,5.7782,5.7079,5.5807,5.4491,5.3159,5.2501,5.1843,5.1214,5.1214,5.1214,5.1169,5.0465,4.9853,4.9299,4.912,4.8312,4.7369,4.7863,4.7728,4.7309,0.0,0.0,0.0,0.0,0.0,0.0,0.0,0.0,0.0,0.0,0.0,0.0,0.0,0.0,0.0,0.0,0.0,0.0,0.0,3.1421,3.2312,3.28,3.3955,3.48,3.5243,3.658,3.7458,3.7873,3.8331,3.8623,3.8756,3.9249,4.0041,4.1102,4.1542,4.2104,4.2655,4.2513,4.2701,0.0,0.0,4.1325,4.1901,4.1809,4.148,4.1242,4.2415,4.2232,4.1446,4.1569,4.163,4.1931,4.3352,4.4604,4.5754,4.6836,4.797,4.9187,5.0659,5.1928,5.2942,5.3399,5.323,5.2689,5.1589,5.076,4.9837,4.8454,4.6848,4.5493,4.4818,4.6464,4.7919,4.7946,4.9989,5.1661,5.196,5.0749,4.9813,4.971,4.9311,4.8691,4.7771,4.8233,4.7797,0.0,4.7165,4.788,4.7574,4.8069,4.9153,5.0929,5.2301,5.434,5.7079,5.7483,5.7483,5.7079,5.5508,5.4371,5.3608,5.2636,5.1992,5.1633,0.0,5.1214,5.1154,5.0197,4.9598,4.9254,4.8626,4.7952,4.7354,4.7713,4.7623,4.7309,0.0,0.0,0.0,0.0,0.0,0.0,0.0,0.0,0.0,0.0,0.0,0.0,0.0,0.0,0.0,0.0,0.0,0.0,0.0,0.0,3.1992,3.1992,3.2718,3.3108,3.3101,3.3874,3.4282,3.4292,3.5048,3.5606,3.5983,3.5983,3.6648,3.7833,3.7947,3.8437,3.921,3.9279,3.9595,4.0015,3.9266,3.9285,3.9845,0.0,4.1095,4.1297,4.2842,4.3524,4.3814,4.4303,4.3812,4.3386,4.5478,4.6718,4.7648,4.9035,4.9881,5.0676,5.208,5.2976,5.3484,5.3365,5.2739,5.1742,5.0168,4.9154,4.7936,4.572,4.4654,4.3893,4.3115,4.4823,4.6165,4.5654,4.7803,4.9559,4.9582,4.8647,4.8177,4.8656,4.797,4.7204,4.6636,4.7623,4.7496,4.5588,4.6432,4.7017,4.6843,4.7862,4.8872,4.9789,5.2045,5.4515,5.7079,5.7094,5.7094,5.7079,5.5134,5.4206,5.4162,5.2815,5.2202,5.2157,5.1498,0.0,5.099,4.9778,4.9269,4.906,4.7788,4.7309,4.7309,4.7309,4.7309,4.7309,0.0,0.0,0.0,0.0,0.0,0.0,0.0,0.0,0.0,0.0,2.5146,2.5592,0.0,0.0,0.0,0.0,0.0,0.0,0.0,0.0,0.0,3.0958,3.1729,3.213,3.2054,3.2782,3.3174,3.318,3.3334,3.3359,3.3272,3.3272,3.3669,3.4396,3.5057,3.5841,3.6673,3.7064,3.7642,3.8284,3.7941,3.8232,3.9074,4.0526,0.0,0.0,4.2414,4.2878,4.3147,4.4698,4.5908,4.6969,4.8065,4.9357,5.0625,5.1471,5.1826,5.2114,5.3044,5.3399,5.3348,5.2672,5.1944,5.083,4.8765,4.7259,4.5635,4.3352,4.2303,4.1559,4.0823,4.2489,4.475,4.7066,4.8213,4.933,5.091,5.0156,4.9178,4.8451,4.8234,4.8072,4.7952,4.8147,0.0,0.0,4.6483,4.6161,4.5966,4.6021,4.7437,5.0409,5.3165,5.5406,5.7094,5.7094,5.7094,5.7079,5.5134,5.4206,5.4162,5.2815,5.2202,5.2157,5.1498,0.0,5.03,4.9583,4.8985,4.8386,4.7608,4.7309,4.7309,4.7309,4.7309,4.7384,0.0,0.0,0.0,0.0,0.0,0.0,0.0,2.5065,2.5143,2.5385,2.5266,2.5472,2.6359,2.7374,2.8171,0.0,0.0,0.0,0.0,0.0,0.0,0.0,3.0599,3.0733,3.1161,3.1909,3.2045,3.1596,0.0,3.1875,3.1084,3.1084,3.1336,3.1803,3.2184,3.2829,3.3649,3.4284,3.5269,3.6458,3.7198,3.8227,3.9496,0.0,0.0,0.0,4.2611,4.3155,4.3843,4.4568,4.6057,4.784,4.9133,5.0591,5.1843,5.2198,5.2604,5.301,5.3399,5.3501,5.3315,5.2503,5.1454,4.9949,4.7361,4.5602,4.3876,4.161,4.0865,4.051,4.018,4.1914,4.371,4.464,4.592,4.7178,4.8211,4.7909,4.7768,4.8234,4.7982,4.8042,4.8775,4.879,4.8518,4.7769,4.7992,4.745,4.5906,4.5585,4.7101,5.0574,5.2701,5.4835,5.7094,5.7453,5.7453,5.7079,5.5822,5.5059,5.467,5.3324,5.2516,5.2142,5.1139,0.0,4.9688,4.903,4.8566,4.8222,4.7563,4.7309,4.7309,4.7309,4.7309,4.7399,0.0,0.0,0.0,0.0,0.0,0.0,0.0,2.5081,2.5212,2.5705,2.5507,2.5644,2.6531,2.802,2.9093,0.0,0.0,0.0,0.0,0.0,0.0,0.0,0.0,0.0,3.0283,0.0,0.0,3.0673,3.1365,0.0,0.0,0.0,0.0,0.0,3.0227,3.0558,3.1213,3.2192,3.3537,0.0,0.0,3.8274,0.0,0.0,0.0,0.0,0.0,4.3187,4.4081,4.4073,4.5175,4.685,4.8438,5.0253,5.1826,5.1826,5.2503,5.3281,5.345,5.3382,5.3061,5.2266,5.0845,4.89,4.6109,4.4282,4.2591,4.0536,4.0096,4.0096,4.0096,4.1508,4.2583,4.2266,4.3825,4.5228,4.5756,4.6082,4.6825,4.8324,4.7923,4.8042,4.9344,4.9404,0.0,4.8675,4.936,0.0,4.6398,4.577,4.7101,5.0574,5.1889,5.3946,5.7094,5.7498,5.7498,5.7079,5.6316,5.5613,5.494,5.3728,5.2815,5.2127,5.0764,0.0,0.0,4.8566,4.8207,4.8027,4.7504,4.7309,4.7309,4.7309,4.7309,4.7414,0.0,0.0,0.0,0.0,0.0,0.0,0.0,2.5194,2.5146,2.5019,2.5792,2.6699,2.7562,2.7927,2.8725,0.0,0.0,0.0,0.0,0.0,0.0,0.0,0.0,0.0,0.0,0.0,0.0,3.1583,3.166,0.0,0.0,0.0,0.0,0.0,0.0,3.0246,3.0411,3.194,0.0,0.0,0.0,0.0,0.0,0.0,0.0,0.0,0.0,4.1952,4.219,4.3025,4.3432,4.3773,4.4786,4.7479,5.0287,5.0287,5.1302,5.257,5.3298,5.2976,5.2232,5.1505,4.968,4.7513,4.5213,4.3504,4.1948,4.0417,4.0096,4.0096,4.0096,4.0282,4.1026,4.2945,4.4052,4.5183,4.6646,4.7967,4.8897,4.9178,4.864,4.8716,4.9971,4.9613,4.9493,4.9983,0.0,0.0,4.744,4.6179,4.7101,5.0574,5.1432,5.3506,5.7079,5.66,5.66,5.7079,5.5867,5.494,5.4281,5.3518,5.2815,5.2127,5.0764,0.0,0.0,4.8566,4.7938,4.7399,4.7324,4.7309,4.7309,4.7309,4.7309,4.7489,0.0,0.0,0.0,0.0,0.0,0.0,2.5191,2.5034,2.509,2.5505,2.5515,2.6048,2.7561,2.7963,2.8787,3.0422,0.0,0.0,0.0,0.0,0.0,0.0,0.0,0.0,0.0,0.0,3.0755,3.1463,3.1775,0.0,0.0,0.0,0.0,0.0,0.0,3.0467,3.095,3.1341,0.0,0.0,0.0,0.0,0.0,0.0,0.0,0.0,0.0,0.0,4.1749,4.1426,4.1862,4.2455,4.2031,4.3809,4.643,4.824,4.983,5.1234,5.2452,5.2909,5.2739,5.1522,4.9528,4.7327,4.5094,4.3047,4.1339,4.0316,4.0096,4.0096,4.0096,4.0096,4.04,4.1255,4.1687,4.2507,4.4334,4.5063,4.6124,4.8064,4.7661,4.8074,0.0,0.0,4.9703,5.075,0.0,0.0,4.9025,4.7717,4.8165,5.0826,5.1924,5.38,5.6526,5.666,5.6855,5.7079,5.6196,5.5224,5.4192,5.3503,5.2606,5.1543,5.0227,0.0,0.0,4.7967,4.7534,4.7309,4.7309,4.7309,4.7309,4.7309,4.7309,4.7489,0.0,0.0,0.0,0.0,0.0,2.552,2.5287,2.5055,2.5136,2.5779,2.5326,2.5584,2.7277,2.7919,2.8789,3.0178,2.9675,0.0,0.0,0.0,0.0,0.0,0.0,0.0,0.0,0.0,3.1126,3.1572,3.2175,3.2548,0.0,0.0,3.2045,3.1826,0.0,0.0,0.0,0.0,0.0,0.0,0.0,0.0,0.0,0.0,0.0,0.0,0.0,0.0,0.0,0.0,0.0,4.1332,4.0416,4.1153,4.298,4.5742,4.7953,4.9729,5.098,5.1911,5.2232,5.115,4.9069,4.6786,4.4993,4.2828,4.0984,4.0265,4.0096,4.0096,4.0096,4.0096,4.0096,4.0096,4.0468,4.1285,4.2805,4.3173,4.4311,4.7068,4.6535,4.6915,0.0,4.9644,5.0017,0.0,0.0,0.0,5.0319,4.9395,4.9527,5.096,5.2128,5.3704,5.5867,5.6316,5.663,5.681,5.6181,5.5179,5.3892,5.3399,5.2456,5.1154,4.9838,0.0,0.0,4.7653,4.7309,4.7309,4.7309,4.7309,4.7309,4.7309,4.7309,4.7489,0.0,0.0,0.0,0.0,0.0,0.0,2.5603,2.5364,2.5273,2.5486,2.5377,2.5712,2.6792,2.7731,2.8652,2.9531,2.9542,0.0,0.0,0.0,0.0,0.0,0.0,0.0,0.0,0.0,3.0731,3.2194,3.2996,3.3834,3.4646,3.3526,3.2989,3.294,0.0,0.0,0.0,0.0,0.0,0.0,0.0,0.0,0.0,0.0,0.0,0.0,0.0,0.0,0.0,0.0,0.0,0.0,0.0,4.013,4.0587,4.2811,4.5556,4.8075,4.8832,4.956,5.0118,5.0101,4.7902,4.5534,4.4784,4.2828,4.0984,4.0265,4.0096,4.0096,4.0096,4.0096,4.0096,4.0096,4.1331,4.2461,4.2936,4.3573,4.4724,4.6648,4.5379,4.5434,4.8358,4.9564,5.0465,0.0,0.0,0.0,5.1182,5.1182,5.1113,5.0997,5.1658,5.3048,5.5194,5.5209,5.5538,5.6218,5.5508,5.4491,5.3189,5.3174,5.2456,0.0,0.0,0.0,0.0,4.7848,4.7309,4.7309,4.7309,4.7309,4.7309,4.7309,4.7309,4.7489,0.0,0.0,0.0,0.0,0.0,0.0,0.0,2.5298,2.5194,2.5343,2.5293,2.5407,2.5886,2.7353,2.8418,2.8691,2.9191,0.0,0.0,0.0,0.0,0.0,0.0,0.0,0.0,0.0,3.1665,3.2138,3.3175,3.3802,3.4074,3.3734,3.3836,3.4339,3.3437,3.3474,0.0,0.0,0.0,0.0,0.0,0.0,0.0,0.0,0.0,0.0,0.0,0.0,0.0,0.0,0.0,0.0,0.0,0.0,0.0,4.0933,4.2895,4.5099,4.6397,4.7276,4.7716,4.7225,4.5602,4.3944,4.3183,4.1677,4.0383,4.0146,4.0096,4.0096,4.0096,4.0096,4.0282,4.0764,4.1238,4.1943,4.3116,4.3737,4.4854,4.705,4.8153,4.898,0.0,0.0,5.0943,0.0,0.0,0.0,5.1214,5.1214,5.1158,5.1161,5.2226,5.3342,5.4521,5.497,5.5523,5.6218,5.5508,5.4491,5.3174,5.3174,5.2456,0.0,0.0,0.0,0.0,4.8341,4.7713,4.7309,4.7309,4.7309,4.7309,4.7309,4.7309,4.7429,0.0,0.0,0.0,0.0,0.0,0.0,0.0,2.5259,2.5124,2.5311,2.5252,2.5282,2.5516,2.7198,2.8301,2.8301,2.9352,0.0,0.0,0.0,0.0,0.0,0.0,0.0,0.0,3.1627,3.2202,3.2431,3.3352,3.3807,3.3807,3.4119,3.4509,3.5004,3.4816,3.5133,0.0,0.0,0.0,0.0,0.0,0.0,3.8582,0.0,0.0,0.0,0.0,0.0,0.0,0.0,0.0,0.0,0.0,0.0,0.0,0.0,4.0849,4.2489,4.4012,4.5179,4.5855,4.5399,4.413,4.2861,4.2388,4.1179,4.002,3.9714,3.9901,4.002,3.9688,3.9636,3.9908,4.0671,4.1028,4.1722,4.3196,4.3789,4.472,4.647,4.8985,0.0,0.0,5.0834,0.0,0.0,0.0,0.0,5.1214,5.1214,5.1214,5.1214,5.2501,5.3384,5.3817,5.473,5.5403,5.5792,5.5388,5.4491,5.3174,5.3174,5.2456,0.0,0.0,0.0,0.0,4.8566,4.7893,4.7309,4.7309,4.7309,4.7309,4.7309,4.7459,4.7743,0.0,0.0,0.0,0.0,0.0,0.0,0.0,2.5232,2.5121,2.5368,2.5304,2.5313,2.5575,2.7223,2.8301,2.8301,0.0,0.0,0.0,0.0,0.0,0.0,0.0,0.0,0.0,3.1849,3.2425,3.3041,3.3573,3.3815,3.3825,3.4564,3.4986,3.5133,3.5936,3.6343,0.0,0.0,0.0,0.0,0.0,0.0,0.0,0.0,0.0,0.0,0.0,0.0,0.0,0.0,0.0,0.0,0.0,0.0,0.0,0.0,0.0,0.0,0.0,4.321,4.4293,4.4293,4.321,4.2134,4.2134,4.1094,0.0,3.9139,3.9584,3.9893,3.9179,3.8968,3.9172,4.0053,4.0771,4.1697,4.3104,4.3935,4.4701,0.0,4.8471,0.0,4.9553,5.0915,0.0,0.0,0.0,0.0,5.1214,5.1214,5.1214,5.1214,5.2501,5.3174,5.3174,5.4521,5.5194,5.5194,5.5194,5.4491,5.3174,5.3174,5.2456,0.0,0.0,0.0,0.0,4.8655,4.7938,4.7309,4.7309,4.7309,4.7309,4.7309,4.7713,4.8282,0.0,0.0,0.0,0.0,0.0,0.0,0.0,0.0,0.0,0.0,2.5462,2.5524,2.5599,2.7223,2.8301,0.0,0.0,0.0,0.0,0.0,0.0,0.0,0.0,0.0,3.1565,3.2126,3.2692,3.331,3.3832,3.4012,3.3807,3.399,3.478,3.6009,3.6211,3.6748,0.0,0.0,0.0,0.0,0.0,0.0,0.0,0.0,0.0,0.0,3.7066,3.7415,0.0,0.0,0.0,0.0,0.0,0.0,0.0,0.0,3.9106,3.9469,4.0383,0.0,4.1162,4.1162,4.0891,4.062,0.0,4.035,4.0045,3.9876,3.9969,4.0214,4.0591,3.9698,3.9341,4.0718,4.1087,4.1444,4.2237,4.5865,4.8526,4.8708,5.1102,5.2343,5.1313,5.1319,0.0,0.0,0.0,5.1214,5.1214,5.1214,5.1214,5.1214,5.2501,5.3174,5.3174,5.4521,5.5194,5.5194,5.5194,5.4491,5.3174,5.3174,5.2456,0.0,0.0,0.0,4.9299,4.9149,4.8356,4.7309,4.7309,4.7309,4.7309,4.7309,4.7713,4.8222,0.0,0.0,0.0,0.0,0.0,0.0,0.0,0.0,0.0,0.0,0.0,0.0,0.0,0.0,0.0,0.0,0.0,0.0,0.0,0.0,0.0,0.0,0.0,3.0506,3.2218,3.2813,3.3447,3.4169,3.4356,3.4284,3.3986,3.4393,3.52,3.6321,3.7074,3.7596,0.0,0.0,0.0,0.0,3.7658,0.0,0.0,0.0,0.0,0.0,3.6248,3.6518,0.0,3.6834,3.6834,3.6834,0.0,0.0,0.0,0.0,3.8227,3.865,3.9377,3.9842,4.0096,4.0096,4.0096,4.0096,4.0096,4.0096,3.9995,3.9636,3.9833,4.0113,4.0146,3.9188,3.89,4.0367,4.055,4.1134,4.2924,4.645,4.8909,4.9105,5.1269,5.2434,0.0,0.0,0.0,0.0,0.0,5.1214,5.1214,5.1498,5.1528,5.1229,5.28,5.3503,5.3174,5.4521,5.5194,5.5194,5.488,5.4192,5.3174,5.2875,5.2172,0.0,0.0,0.0,4.9314,4.9314,4.8491,4.7309,4.7309,4.7309,4.7339,4.7653,4.8177,4.8686,0.0,0.0,0.0,0.0,0.0,0.0,0.0,0.0,0.0,0.0,0.0,0.0,0.0,0.0,0.0,0.0,0.0,0.0,0.0,0.0,0.0,0.0,0.0,3.1135,3.2679,3.3329,3.4069,3.4895,3.4671,3.4461,3.4288,3.4845,3.5538,3.6376,3.7973,3.8449,0.0,0.0,0.0,0.0,3.6986,0.0,0.0,0.0,0.0,0.0,0.0,0.0,0.0,3.543,3.5346,3.5261,3.5261,0.0,0.0,0.0,0.0,0.0,3.8768,3.9554,4.007,3.9952,3.9927,3.9927,3.9927,3.9927,3.9756,3.9209,3.9636,3.9884,3.9208,3.8464,3.8367,3.965,4.0008,4.1275,4.46,4.6755,4.8199,4.8647,5.0695,0.0,0.0,0.0,0.0,0.0,0.0,5.1214,5.1214,5.1843,5.1947,5.1394,5.3219,5.3922,5.3339,5.4566,5.5149,5.5029,5.4476,5.3803,5.301,5.2456,5.1843,5.1214,0.0,0.0,4.9314,4.9314,4.8491,4.7309,4.7309,4.7369,4.7519,4.8072,4.876,4.9434,0.0,0.0,0.0,0.0,0.0,0.0,0.0,0.0,0.0,0.0,0.0,0.0,0.0,0.0,0.0,0.0,0.0,0.0,0.0,0.0,0.0,3.0511,3.0449,3.0865,3.1852,3.2635,3.3346,3.3999,3.3965,3.4168,3.4603,3.3769,3.4426,3.6376,3.7973,3.8643,3.8596,0.0,0.0,0.0,0.0,0.0,0.0,0.0,0.0,0.0,0.0,0.0,0.0,3.4675,3.4252,3.3744,3.3744,0.0,0.0,0.0,0.0,0.0,3.8616,3.9554,3.9927,3.9262,3.9086,3.9086,3.9086,3.9086,3.9246,3.9808,4.002,4.0061,3.9957,3.9226,3.8877,3.9611,4.0985,4.3198,0.0,0.0,4.976,5.0367,0.0,5.2487,0.0,0.0,0.0,0.0,0.0,5.1214,5.1214,5.1843,5.2157,5.2052,5.3458,5.4162,5.4057,5.4805,5.491,5.4356,5.4266,5.3563,5.2351,5.2247,5.1843,5.1214,0.0,5.0481,4.9314,4.9314,4.8491,4.7309,4.7309,4.7653,4.8147,4.8252,4.9045,5.0017,0.0,0.0,0.0,0.0,0.0,0.0,0.0,0.0,0.0,0.0,0.0,0.0,0.0,0.0,0.0,0.0,0.0,0.0,0.0,0.0,0.0,3.059,3.1421,3.1855,3.1698,3.2949,3.3506,3.33,3.33,3.3331,3.3364,3.3861,3.4865,3.6376,3.7973,3.8707,3.8707,3.8707,0.0,0.0,0.0,0.0,0.0,0.0,0.0,0.0,0.0,0.0,0.0,0.0,3.3677,3.3406,3.3406,0.0,0.0,0.0,0.0,0.0,3.7405,3.8345,3.8798,3.8424,3.8924,3.932,3.8511,3.8318,3.843,3.8778,3.8859,3.8963,3.9345,3.9288,3.9757,4.1391,4.2627,4.4238,4.6576,4.7836,4.8867,0.0,0.0,0.0,0.0,0.0,0.0,0.0,0.0,0.0,5.1214,5.1843,5.2202,5.2202,5.3503,5.4206,5.4206,5.4865,5.4865,5.4206,5.3832,5.3144,5.2187,5.1828,5.1498,5.1199,0.0,5.0152,4.9284,4.8925,4.8177,4.7309,4.7309,4.7713,4.8371,4.9075,4.9942,5.0674,0.0,0.0,0.0,0.0,0.0,0.0,0.0,0.0,0.0,0.0,0.0,0.0,0.0,0.0,0.0,0.0,0.0,0.0,0.0,0.0,3.1666,3.0964,3.2391,3.2663,3.1449,3.3087,3.3416,3.2314,3.2526,3.2469,3.2223,3.4198,3.5528,3.6376,3.7973,3.8707,3.8707,3.8707,3.8707,0.0,0.0,0.0,0.0,0.0,0.0,0.0,0.0,0.0,0.0,0.0,0.0,0.0,0.0,0.0,0.0,3.3812,3.4218,3.4793,3.6146,3.7179,3.7877,3.78,3.8826,3.9555,3.8574,3.8178,3.8139,3.8473,3.8389,3.8389,3.8675,3.9428,4.0736,4.2944,4.4152,4.5259,4.6591,4.7354,4.8192,4.9359,0.0,0.0,0.0,0.0,0.0,0.0,0.0,0.0,5.1214,5.1843,5.2276,5.2426,5.3578,5.4281,5.4446,5.494,5.4775,5.3967,5.3428,5.2755,5.1947,5.1454,5.1124,5.096,5.0405,4.9778,4.9045,4.8491,4.7893,4.7309,4.7309,4.7803,4.8671,4.9941,5.0644,5.099,0.0,0.0,0.0,0.0,0.0,0.0,0.0,0.0,0.0,0.0,0.0,0.0,0.0,0.0,0.0,0.0,0.0,0.0,0.0,0.0,3.2085,3.1905,3.2794,3.2447,3.063,3.2299,3.2338,3.0577,3.1385,3.19,3.2156,3.4404,3.5753,3.6376,3.7973,3.8707,3.8707,3.8707,3.8707,3.8611,0.0,0.0,0.0,0.0,0.0,0.0,0.0,0.0,0.0,0.0,0.0,0.0,0.0,0.0,3.2395,3.2446,3.3444,3.4675,3.5464,3.6734,3.7804,3.7785,3.8403,3.9155,3.977,3.9307,3.9122,4.05,4.0178,3.9437,3.8759,4.0071,4.1715,4.309,4.4889,4.6636,4.7952,0.0,4.9389,5.0046,0.0,0.0,0.0,0.0,0.0,0.0,0.0,0.0,5.1214,5.1843,5.2486,5.3099,5.3832,5.4506,5.5119,5.5164,5.4536,5.3249,5.3204,5.2516,5.1289,5.1244,5.0838,5.0255,5.0211,4.9523,4.8356,4.8312,4.7893,4.7309,4.7309,4.8072,4.9404,5.0661,5.0749,5.0255,0.0,0.0,0.0,0.0,0.0,0.0,0.0,0.0,0.0,0.0,0.0,0.0,0.0,0.0,0.0,0.0,0.0,0.0,0.0,3.1625,3.2668,3.2145,3.3433,3.3574,3.2262,3.177,3.0672,2.8903,2.9912,3.1163,3.2697,3.4408,3.5584,3.634,3.7474,3.7679,3.7239,3.7734,3.7747,3.7461,3.7593,0.0,0.0,0.0,0.0,0.0,0.0,0.0,0.0,0.0,3.1819,3.136,3.2273,3.2121,3.1802,3.2713,3.3034,3.3393,3.459,3.603,3.7169,3.7131,3.8025,3.8843,3.8595,3.8605,3.8591,3.8262,3.8899,3.9715,4.0233,4.1912,4.3494,4.4407,4.5888,4.7249,4.8162,4.8506,4.8895,0.0,0.0,0.0,0.0,0.0,0.0,0.0,0.0,0.0,5.1199,5.1454,5.1887,5.2561,5.2815,5.3279,5.3937,5.3937,5.3473,5.2576,5.3414,5.3129,5.1828,5.1828,5.1244,5.0166,4.9808,4.9119,4.8252,4.7848,4.7534,4.7384,4.8207,4.9075,4.9987,5.0885,5.1065,5.0808,0.0,0.0,0.0,0.0,0.0,0.0,0.0,0.0,0.0,0.0,0.0,0.0,0.0,0.0,0.0,0.0,0.0,0.0,2.9066,3.1276,3.2552,3.2578,3.3437,3.3612,3.2977,3.0934,2.938,2.8407,2.8705,3.0161,3.2739,3.3757,3.4821,3.5936,3.6758,3.6831,3.634,3.6976,3.7035,3.6743,3.7238,3.7135,0.0,0.0,0.0,0.0,0.0,0.0,0.0,0.0,3.2124,3.2036,3.2814,3.2357,3.1698,3.2476,3.2679,3.2886,3.388,3.5436,3.675,3.6727,3.7789,3.8691,3.806,3.8441,3.8787,3.8269,3.8993,4.0068,4.1175,4.2476,4.3734,0.0,4.5964,4.6992,4.7864,4.8162,0.0,0.0,0.0,0.0,0.0,0.0,0.0,0.0,0.0,0.0,0.0,5.1214,5.1528,5.2172,5.2202,5.2516,5.3174,5.3174,5.295,5.2516,5.3443,5.3189,5.1887,5.1887,5.1169,4.9898,4.9464,4.882,4.7938,4.7489,4.7429,4.7728,4.888,4.9673,5.024,5.0704,5.1035,5.1184,0.0,0.0,0.0,0.0,0.0,0.0,0.0,0.0,0.0,0.0,0.0,0.0,0.0,0.0,0.0,0.0,0.0,0.0,2.8242,2.9922,3.1641,3.3301,3.2637,3.2226,3.2226,2.9687,2.8667,2.9292,2.7909,2.8907,3.2137,3.2464,3.3463,3.5041,3.5899,3.6266,3.6274,3.6558,3.6687,3.6657,3.647,3.6704,3.7058,0.0,0.0,0.0,0.0,0.0,0.0,0.0,3.2797,3.3271,3.2564,3.2327,3.2175,3.1427,3.2256,3.3423,3.3385,3.5001,3.6682,3.6673,3.7728,3.8753,3.8633,3.912,4.0001,4.1411,4.1024,4.0606,4.128,4.1441,0.0,4.3994,4.4937,4.5869,4.7121,4.7863,0.0,0.0,0.0,0.0,0.0,0.0,0.0,0.0,0.0,0.0,0.0,5.1214,5.1513,5.2172,5.2187,5.2501,5.3159,5.3159,5.3159,5.3159,5.3159,5.2471,5.1229,5.1229,5.0511,4.9314,4.9314,4.8521,4.7309,4.7309,4.7698,4.8356,4.9045,4.9658,5.0196,5.0196,5.0599,5.1124,0.0,0.0,0.0,0.0,0.0,0.0,0.0,0.0,0.0,0.0,0.0,0.0,0.0,0.0,0.0,0.0,0.0,0.0,2.8174,2.9901,3.1093,3.1553,3.2518,3.332,3.3945,3.2515,3.0867,2.9098,2.9142,3.0675,3.3594,3.4308,3.4467,3.4192,3.5023,3.4747,3.3762,3.4688,3.5156,3.5297,3.5529,3.5808,3.6054,0.0,0.0,0.0,0.0,0.0,0.0,0.0,0.0,0.0,3.3744,3.385,3.3613,3.2344,3.3038,3.3963,3.2968,3.3935,3.52,3.5161,3.6566,3.8027,3.839,3.944,4.0678,4.1932,4.1626,4.1429,4.2551,4.3526,0.0,4.4919,4.5979,4.6873,4.7251,0.0,0.0,0.0,0.0,0.0,0.0,0.0,0.0,0.0,0.0,0.0,0.0,5.1214,5.1304,5.1498,5.1513,5.1603,5.1798,5.1798,5.1798,5.1798,5.1334,5.1394,5.1902,5.1902,5.0945,4.9314,4.9314,4.8521,4.7309,4.7309,4.7698,4.8312,4.8506,4.9254,5.0196,5.0196,5.0599,5.1184,0.0,0.0,0.0,0.0,0.0,0.0,0.0,0.0,0.0,0.0,2.5703,0.0,0.0,0.0,0.0,0.0,0.0,0.0,0.0,2.9038,3.0289,3.1302,3.2362,3.3144,3.3627,3.2981,3.1981,3.0583,3.0535,3.1731,3.4037,3.4145,3.3932,3.3499,3.3659,3.3305,3.2648,3.3513,3.4311,3.5012,3.4885,3.5172,3.5679,0.0,0.0,0.0,0.0,0.0,0.0,0.0,0.0,0.0,3.4438,3.4303,3.3947,3.3359,3.3592,3.4064,3.413,3.5005,3.5976,3.6197,3.7547,3.8976,3.947,4.0504,4.158,4.2563,4.2261,4.2087,4.3095,4.3745,0.0,4.5161,4.5997,4.6637,4.6864,0.0,0.0,0.0,0.0,0.0,0.0,0.0,0.0,0.0,0.0,0.0,0.0,5.0779,5.0705,5.0451,5.069,5.0705,5.0451,5.0451,5.0451,5.0436,5.0047,5.0272,5.1035,5.1035,5.0242,4.891,4.8596,4.8042,4.7309,4.7309,4.7698,4.8282,4.8282,4.8925,4.9823,4.9553,5.0001,5.0704,0.0,0.0,0.0,0.0,0.0,0.0,0.0,0.0,0.0,0.0,2.5683,2.5683,0.0,0.0,0.0,0.0,0.0,0.0,0.0,0.0,2.9288,3.1738,3.2129,3.2318,3.2336,3.2205,3.2489,3.3221,3.2031,3.2287,3.3895,3.2842,3.2539,3.2858,3.214,3.2013,3.2392,3.2759,3.3772,3.511,3.4282,3.4642,3.5591,3.4768,0.0,0.0,0.0,0.0,0.0,0.0,0.0,0.0,3.4726,3.4134,3.3795,3.4252,3.4066,3.4129,3.6084,3.7141,3.7858,3.8519,3.9677,4.0802,4.1368,4.2021,4.2635,4.3135,4.2821,4.268,4.326,4.2943,4.3178,4.5004,4.5346,4.5594,0.0,0.0,0.0,0.0,0.0,0.0,0.0,0.0,0.0,0.0,0.0,0.0,0.0,5.0106,4.9883,4.9329,4.9838,4.9868,4.9329,4.9314,4.9314,4.9314,4.9254,4.9224,4.9224,4.9284,4.8955,4.8252,4.7593,4.7309,4.7309,4.7309,4.7653,4.8192,4.8192,4.864,4.9149,4.8566,4.9164,5.0031,0.0,0.0,0.0,0.0,0.0,0.0,0.0,0.0,0.0,0.0,0.0,0.0,0.0,0.0,0.0,0.0,0.0,0.0,0.0,0.0,2.8512,2.903,3.1637,3.3647,3.4873,3.4814,3.4831,3.4963,3.3352,3.3331,3.4791,3.3872,3.2949,3.2042,3.189,3.1395,3.0754,3.1129,3.183,3.267,3.2749,3.3266,3.4023,3.4146,3.4249,0.0,0.0,0.0,0.0,0.0,0.0,0.0,3.4726,3.5216,3.5763,3.4117,3.4793,3.592,3.5248,3.5627,3.6328,3.6933,3.8807,4.0783,4.1918,4.2656,4.3015,4.2641,4.2865,4.3329,4.3947,4.3994,4.421,4.5143,4.5305,0.0,0.0,0.0,0.0,0.0,0.0,0.0,0.0,0.0,0.0,0.0,0.0,0.0,4.9479,4.9479,4.9449,4.9314,4.9449,4.9449,4.9314,4.9314,4.9314,0.0,4.879,4.8506,4.8521,4.9075,4.8955,4.8252,4.7593,4.7309,4.7309,4.7309,4.7384,4.7519,4.7519,4.7923,4.8536,4.8955,4.9553,5.0226,0.0,0.0,0.0,0.0,0.0,0.0,0.0,0.0,0.0,0.0,0.0,0.0,0.0,0.0,0.0,0.0,0.0,0.0,0.0,0.0,2.8979,3.062,3.2748,3.4456,3.5668,3.5596,3.5534,3.55,3.418,3.4064,3.5066,3.3903,3.2807,3.1766,3.1112,3.057,3.0216,3.042,3.1102,3.1967,3.1732,3.2103,3.2818,3.2757,3.2947,3.3276,3.3198,0.0,0.0,0.0,0.0,0.0,0.0,0.0,3.5148,3.5047,3.5357,3.5864,3.6513,3.6439,3.6476,3.7747,4.0181,4.2306,4.2493,4.3046,4.332,4.2651,4.2952,4.3409,4.3738,4.4067,4.4421,4.4766,4.5095,0.0,0.0,0.0,0.0,0.0,0.0,0.0,0.0,0.0,0.0,0.0,0.0,4.8461,4.882,4.879,4.8656,4.8341,4.8626,4.8685,4.8341,4.8327,4.8327,4.8327,4.7982,4.7818,4.7833,4.8177,4.8132,4.7803,4.7459,4.7309,4.7309,4.7309,4.7309,4.7309,4.7309,4.7519,4.7863,4.8192,4.8745,4.9359,0.0,0.0,0.0,0.0,0.0,0.0,0.0,0.0,0.0,0.0,0.0,0.0,0.0,0.0,0.0,0.0,0.0,0.0,0.0,0.0,0.0,3.3242,3.3975,3.4721,3.5687,3.5433,3.5284,3.5269,3.4391,3.4261,3.4778,3.336,3.2305,3.1542,3.0265,2.982,2.9977,2.9929,3.0503,3.1404,3.0754,3.0962,3.1614,3.1195,3.1479,3.2167,3.2492,3.2838,3.3239,3.399,0.0,0.0,0.0,0.0,3.3998,3.5994,3.569,3.5267,3.7889,3.7753,3.7324,3.9187,4.1548,4.3266,4.2497,4.2833,4.3171,4.2602,4.2819,4.3125,4.3125,4.3614,4.4018,4.4122,0.0,0.0,0.0,0.0,0.0,0.0,0.0,0.0,0.0,0.0,0.0,0.0,0.0,4.7534,4.8087,4.8117,4.7863,4.7324,4.7833,4.7863,4.7309,4.7309,4.7309,4.7309,4.7309,4.7309,4.7309,4.7309,4.7309,4.7309,4.7309,4.7309,4.7309,4.7309,4.7309,4.7309,4.7309,4.7309,4.7309,4.7429,4.7893,4.8476,0.0,0.0,0.0,0.0,0.0,0.0,0.0,0.0,0.0,0.0,0.0,0.0,0.0,0.0,0.0,0.0,0.0,0.0,2.5703,0.0,0.0,3.3242,3.3437,3.4167,3.5668,3.4889,3.4436,3.4379,3.3506,3.3261,3.3591,3.2407,3.1466,3.0731,3.002,2.9502,2.9129,2.8778,2.8748,2.8917,2.9205,2.9561,2.9958,3.0228,3.0629,3.1066,3.1384,3.1725,3.2142,3.2923,3.3282,0.0,0.0,0.0,3.4539,3.5487,3.56,3.5707,3.6789,3.7336,3.7918,3.9417,3.9905,4.0182,4.0624,4.1212,4.1663,0.0,4.2083,4.253,4.253,4.2605,4.2806,4.3334,0.0,0.0,0.0,0.0,0.0,0.0,0.0,0.0,0.0,0.0,0.0,0.0,4.7354,4.7339,4.7429,4.7429,4.7399,4.7309,4.7399,4.7399,4.7309,4.7309,4.7309,4.7309,4.7309,4.7309,4.7309,4.7309,4.7309,4.7309,4.7309,4.7309,4.7309,4.7309,4.7309,4.7309,4.7309,4.7309,4.7369,4.7938,4.8566,4.9254,0.0,0.0,0.0,0.0,0.0,0.0,0.0,0.0,0.0,0.0,0.0,0.0,0.0,0.0,0.0,2.5703,2.5703,2.5918,2.6406,2.7598,2.9414,3.1894,3.2835,3.3624,3.434,3.433,3.4051,3.3531,3.2645,3.2488,3.2942,3.1932,3.1557,3.17,3.1286,3.082,3.0296,2.9424,2.8963,2.8772,2.8529,2.8521,2.8697,2.905,2.9447,2.9822,2.9963,3.0366,3.0952,3.1724,3.2066,3.2374,3.3525,0.0,0.0,0.0,3.4979,3.5228,3.6425,3.7538,3.8484,3.8998,3.9732,4.0259,4.0056,4.0512,4.0787,4.0024,4.0045,4.0509,4.1647,4.1856,4.1946,0.0,0.0,0.0,0.0,0.0,0.0,0.0,0.0,0.0,0.0,0.0,0.0,0.0,4.6756,4.692,4.7279,4.7309,4.7309,4.7309,4.7309,4.7309,4.7309,4.7309,4.7309,4.7309,4.7309,4.7309,4.7309,4.7309,4.7309,4.7309,4.7309,4.7309,4.7309,4.7309,4.7309,4.7309,4.7309,4.7309,4.7339,4.7623,4.7923,4.8312,0.0,0.0,0.0,0.0,0.0,0.0,0.0,0.0,0.0,0.0,0.0,0.0,0.0,0.0,0.0,0.0,2.5662,2.6054,2.6934,2.7617,2.8848,3.0801,3.2041,3.2883,3.3282,3.3559,3.3354,3.2692,3.1807,3.1782,3.2565,3.1905,3.2222,3.332,3.2681,3.2146,3.1616,3.0324,2.9619,2.9287,2.8079,2.7666,2.7765,2.8029,2.8358,2.875,2.8945,0.0,0.0,0.0,3.1002,3.1173,3.2662,3.273,0.0,0.0,0.0,3.4531,3.6015,3.7206,3.8128,3.8308,3.9251,3.9961,3.9274,3.9521,3.9598,0.0,3.8243,3.8601,4.0098,4.0651,4.0995,0.0,0.0,0.0,0.0,0.0,0.0,0.0,0.0,0.0,0.0,0.0,0.0,0.0,4.6175,4.6531,4.704,4.7219,4.7234,4.7055,4.7055,4.7055,4.7055,4.7219,4.7309,4.7309,4.7309,4.7219,4.7055,4.7234,4.7219,4.707,4.7234,4.7309,4.7309,4.7309,4.7309,4.7309,4.7309,4.7309,4.7309,4.7309,4.7414,4.7698,0.0,0.0,0.0,0.0,0.0,0.0,0.0,0.0,0.0,0.0,0.0,0.0,2.5683,2.5637,2.5604,2.5604,2.5604,2.6005,2.6933,2.7031,2.8203,3.0781,3.0976,0.0,3.3264,3.2452,3.1964,3.1849,3.0926,3.1174,3.2496,3.2449,3.3479,3.5274,3.3662,3.279,3.2433,3.0916,3.0252,3.0037,2.77,2.7004,2.7332,2.7348,2.7609,2.8071,0.0,0.0,0.0,0.0,0.0,0.0,3.1904,3.2327,3.2462,0.0,0.0,0.0,3.5251,3.5711,3.6091,3.7418,3.7773,3.771,3.7556,3.7548,3.7548,3.7488,3.7469,3.7494,3.7599,3.8661,3.9933,0.0,0.0,0.0,0.0,0.0,0.0,0.0,0.0,0.0,0.0,0.0,0.0,0.0,4.5963,4.6337,4.6324,4.6965,4.7025,4.6354,4.6324,4.6324,4.6324,4.6995,4.7309,4.7309,4.7309,4.698,4.6354,4.7025,4.6965,4.6369,4.704,4.7309,4.7309,4.7309,4.7309,4.7309,4.7309,4.7309,4.7309,4.7309,4.7698,4.8252,0.0,0.0,0.0,0.0,0.0,0.0,0.0,0.0,0.0,0.0,0.0,0.0,0.0,2.5636,2.5602,2.5602,2.5602,2.5769,2.6133,2.6699,2.7676,2.918,3.084,3.1992,3.2573,3.2724,3.2499,3.1866,3.0924,3.1243,3.2746,3.2406,3.3232,3.495,3.412,3.3901,3.4009,3.1894,3.1005,3.08,2.8373,2.7657,2.7947,2.7476,0.0,0.0,0.0,0.0,0.0,0.0,0.0,0.0,3.143,3.1599,3.1752,3.2476,3.3034,3.3626,3.4624,3.458,3.4687,3.649,3.6583,3.636,3.6723,3.6821,3.6701,3.6267,3.6193,3.6312,3.6731,3.7539,3.8272,0.0,0.0,0.0,0.0,0.0,0.0,0.0,0.0,0.0,0.0,0.0,0.0,0.0,0.0,4.4934,4.6204,4.6127,4.6112,4.6264,4.5888,4.5663,4.5663,4.5903,4.6022,4.6022,4.6022,4.5888,4.5678,4.5903,4.6127,4.6294,4.6576,4.692,4.7309,4.7309,4.7309,4.7309,4.7309,4.7309,4.7309,4.7309,4.7459,4.7713,0.0,0.0,0.0,0.0,0.0,0.0,0.0,0.0,0.0,2.5597,0.0,0.0,0.0,0.0,2.5602,2.5602,2.5875,2.6062,2.6133,2.6953,2.7832,2.8691,3.0684,3.1894,3.2187,3.2616,3.2513,3.1899,3.0946,3.116,3.25,3.1946,3.275,3.4626,3.3675,3.3906,3.4871,3.2719,3.1803,3.1563,2.887,2.827,2.8888,0.0,0.0,0.0,0.0,0.0,0.0,0.0,0.0,0.0,3.0666,3.1004,3.1292,3.1802,3.2273,3.2814,3.3563,3.3615,3.3834,3.5404,3.5486,3.5369,3.6024,3.5968,3.5759,3.5549,3.5504,3.5639,3.6073,3.6492,3.6911,0.0,0.0,0.0,0.0,0.0,0.0,0.0,0.0,0.0,0.0,0.0,0.0,0.0,0.0,0.0,4.4105,4.4163,4.4223,4.4456,4.4018,4.3785,4.3785,4.4415,4.4716,4.4716,4.5123,4.5185,4.4975,4.52,4.5544,4.5992,4.6175,4.6696,4.7309,4.7309,4.7309,4.7309,4.7309,4.7309,4.7309,4.7309,4.7309,4.7369,0.0,0.0,0.0,0.0,0.0,0.0,0.0,0.0,2.5535,2.5598,0.0,0.0,0.0,0.0,0.0,2.5641,2.6403,2.6941,2.7031,2.7832,2.8691,2.9551,3.0469,3.1348,3.2226,3.2062,3.1977,3.1938,3.0927,3.0871,3.1692,3.1157,3.2203,3.4453,3.2339,3.2706,3.4783,3.3203,3.2582,3.2358,0.0,2.8753,3.0057,0.0,0.0,0.0,2.9264,2.8518,0.0,2.7841,0.0,0.0,2.9649,3.0632,3.119,3.119,3.119,3.136,0.0,0.0,0.0,3.4169,3.4441,3.4703,3.53,0.0,3.4668,3.5325,3.5474,3.5489,3.5504,3.5504,0.0,0.0,0.0,0.0,0.0,0.0,0.0,0.0,0.0,0.0,0.0,0.0,0.0,0.0,3.9253,3.9946,3.9974,4.1096,4.1456,4.0758,4.0731,4.0717,4.0717,4.2564,4.3531,4.3531,4.4699,4.49,4.4302,4.4945,4.5244,4.5304,4.5978,4.6651,4.7279,4.7294,4.7309,4.7309,4.7309,4.7309,4.7309,4.7309,4.7309,4.7309,0.0,0.0,0.0,0.0,0.0,0.0,2.5561,2.5567,2.5599,0.0,0.0,0.0,2.5762,2.5636,2.5855,2.6481,2.6754,2.7195,2.789,2.8164,2.8691,2.9551,3.1035,3.2226,3.3047,3.3571,3.3524,3.2839,3.1889,3.1518,3.1692,3.1157,3.1591,3.2816,3.1839,3.1782,3.2337,3.1309,3.1809,3.3052,2.9917,2.955,0.0,0.0,0.0,0.0,0.0,2.9194,2.9379,0.0,2.9381,3.0328,0.0,3.1038,3.119,3.119,3.119,3.1241,3.1444,0.0,0.0,0.0,0.0,0.0,0.0,0.0,3.3963,3.4653,3.4788,3.4906,3.5415,3.5504,0.0,0.0,0.0,0.0,0.0,0.0,0.0,0.0,0.0,0.0,0.0,0.0,0.0,0.0,3.7509,3.9045,3.9932,4.0306,4.0196,3.9514,3.9114,3.8921,3.8921,4.0698,4.1567,4.1581,4.3116,4.3738,4.3574,4.3753,4.4137,4.4601,4.4781,4.5529,4.6636,4.7115,4.7309,4.7309,4.7309,4.7309,4.7309,4.7309,4.7309,4.7309,0.0,0.0,0.0,0.0,0.0,2.5526,2.5584,2.5605,2.5742,0.0,0.0,0.0,2.6266,2.5815,2.5909,2.6784,2.7193,2.7771,2.8668,2.9072,2.9526,3.0034,3.1425,3.2578,3.3379,3.3799,3.3924,3.3734,3.2414,3.1901,3.2173,3.1043,3.1114,3.2157,3.1046,3.1065,3.1805,3.0327,0.0,0.0,3.0448,0.0,0.0,3.0482,3.011,0.0,0.0,0.0,2.9992,2.8958,2.9566,0.0,0.0,0.0,0.0,3.1275,3.141,0.0,0.0,0.0,0.0,0.0,0.0,0.0,3.3342,3.3261,3.3185,0.0,3.3873,3.4188,3.4592,3.4666,0.0,0.0,0.0,0.0,0.0,0.0,0.0,0.0,0.0,0.0,0.0,3.3665,3.4112,3.4349,3.6231,3.737,3.735,3.6839,3.6432,3.6123,3.5813,3.5884,3.6407,3.7896,3.9128,4.0063,4.1543,4.2634,4.329,4.329,4.3648,4.4317,4.4317,4.508,4.6337,4.6426,4.68,4.7279,4.6995,4.7055,4.7309,4.7309,4.7309,4.7309,0.0,0.0,2.5918,2.6906,2.6322,2.5672,2.5575,2.5627,2.5941,0.0,2.6809,2.6851,2.689,2.6147,2.5992,2.6876,2.7737,2.8577,2.9388,3.0232,3.069,3.0695,3.1655,3.2519,3.3242,3.3329,3.3673,3.4351,3.2759,3.2255,3.2731,3.0958,3.0774,3.1855,0.0,0.0,3.2143,0.0,0.0,3.2212,3.0804,3.1512,0.0,0.0,3.1684,3.2029,3.0813,3.0351,3.0128,2.8867,2.9168,0.0,0.0,0.0,0.0,0.0,3.1853,0.0,0.0,0.0,0.0,0.0,0.0,0.0,3.3144,3.2816,3.2392,0.0,3.2976,3.341,3.3484,3.3559,0.0,0.0,0.0,0.0,0.0,0.0,0.0,0.0,0.0,0.0,3.3484,3.3984,3.4151,3.3807,3.5268,3.5424,3.3707,3.2416,3.18,3.1972,3.1934,3.2471,3.3621,3.4881,3.6609,3.874,4.0128,4.1631,4.3185,4.326,4.3618,4.4212,4.4212,4.493,4.601,4.5364,4.5963,4.7234,4.6576,4.6726,4.7309,4.7309,4.7309,4.7309,0.0,2.7593,2.7056,2.7492,2.7266,2.6623,2.5467,2.5832,2.612,2.5814,2.5773,2.605,2.6745,2.6663,2.6898,2.7779,2.8593,2.943,3.0291,3.052,3.0633,3.0693,3.1561,3.216,3.2422,3.3689,3.4031,3.345,3.3673,3.3156,3.1923,3.1329,3.0744,3.0167,2.9634,0.0,0.0,0.0,0.0,3.1859,3.1234,0.0,3.3305,3.2429,3.1819,3.1393,3.1106,3.1015,3.0945,3.0679,3.0386,3.0311,0.0,0.0,0.0,3.2662,0.0,0.0,0.0,0.0,0.0,0.0,0.0,0.0,3.1838,3.1806,3.1854,0.0,3.2617,3.2871,3.3395,3.3918,0.0,0.0,0.0,0.0,0.0,0.0,0.0,0.0,0.0,0.0,3.3876,3.3723,3.3784,3.4238,3.5142,3.4891,3.3168,3.2381,3.1803,3.1401,3.0973,3.1076,3.1888,3.3934,3.5628,3.6952,3.9541,4.1437,4.2605,4.309,4.3364,4.3484,4.3484,4.3932,4.4661,4.3947,4.514,4.7234,4.6576,4.6726,4.7309,4.7309,4.7309,4.7309,2.9004,2.808,2.7305,2.781,2.7255,2.6422,2.5485,2.5776,2.6053,2.5964,2.6039,2.6259,2.6695,2.6717,2.7044,2.7923,2.9156,3.0246,3.1099,3.1218,3.1265,3.1295,3.1328,3.1804,3.2773,3.3557,3.415,3.4555,3.4384,3.3857,3.2971,3.1837,3.0961,3.0336,3.0101,3.0072,0.0,0.0,3.1355,3.2339,3.1521,0.0,3.2763,3.2019,3.1512,3.1151,3.0858,3.074,3.0766,3.0785,3.1229,0.0,0.0,3.2797,3.3406,0.0,3.316,3.2907,0.0,0.0,0.0,3.2898,0.0,0.0,0.0,3.1768,3.16,3.1929,3.1989,3.2093,3.2452,0.0,3.3006,0.0,0.0,0.0,0.0,0.0,0.0,0.0,0.0,0.0,3.4758,3.4873,3.5118,3.5531,3.4299,3.322,3.2389,3.0477,2.9612,2.9984,2.9188,2.9492,3.1009,3.2403,3.392,3.5628,3.8237,4.0227,4.1646,4.2778,4.329,4.329,4.329,4.3663,4.4272,4.3559,4.4511,4.6277,4.5933,4.6426,4.7309,4.7309,4.7309,4.7309,2.9227,2.8241,2.7437,2.7717,2.6916,2.6046,2.5505,2.5608,2.5856,2.614,2.6635,2.6896,2.6729,2.6809,2.7306,2.8303,2.9393,3.0668,3.211,3.186,3.1801,3.2141,3.1397,3.1569,3.2891,3.3173,3.3994,3.5394,3.4839,3.44,3.4042,3.2498,3.1494,3.0959,3.0699,3.0717,3.0905,0.0,0.0,3.2555,0.0,3.165,3.2242,3.165,3.1309,3.1151,3.0658,3.0477,3.0492,3.0699,3.1946,3.3355,3.3017,3.4066,0.0,0.0,0.0,0.0,0.0,0.0,0.0,0.0,0.0,3.2382,0.0,0.0,0.0,3.1511,3.1511,0.0,0.0,0.0,0.0,0.0,0.0,0.0,0.0,0.0,0.0,0.0,0.0,0.0,3.5504,3.6237,3.6667,3.6584,3.4116,3.2337,3.1672,2.9038,2.791,2.8781,2.7916,2.838,3.0417,3.0984,3.2327,3.4469,3.6552,3.8626,4.0669,4.2158,4.2996,4.329,4.329,4.3604,4.4092,4.3648,4.4227,4.5289,4.5289,4.6037,4.713,4.7249,4.7309,4.7309,2.7661,2.8091,2.8164,2.6839,2.6656,2.6349,2.5311,2.5375,2.551,2.543,2.684,2.7551,2.6787,0.0,0.0,0.0,0.0,0.0,3.3829,0.0,3.1456,3.3071,3.2314,3.1647,3.1191,3.2636,3.3451,3.3594,3.4895,3.4758,3.3243,3.3432,3.2579,3.0903,3.0689,0.0,0.0,0.0,3.0681,0.0,3.1244,3.165,0.0,3.2209,3.1769,3.119,3.1131,3.1112,3.1193,0.0,3.266,3.3605,0.0,3.4962,3.4979,3.6857,0.0,0.0,0.0,0.0,0.0,0.0,3.2178,0.0,0.0,0.0,3.1511,3.1511,0.0,0.0,0.0,0.0,0.0,0.0,0.0,0.0,0.0,0.0,0.0,0.0,0.0,0.0,0.0,3.6696,3.7096,3.6153,3.6266,3.4843,3.1289,3.0729,3.0002,2.8851,2.8675,2.9003,2.9892,3.0432,3.1532,3.3238,3.4538,3.6851,3.9924,4.0735,4.1869,4.329,4.329,4.3334,4.3439,4.3947,4.4631,4.5289,4.5289,4.5768,4.6516,4.7085,4.7309,4.7309,2.6841,2.7305,2.7447,2.6466,2.6729,2.6687,2.5511,2.5594,2.603,2.6732,2.7492,2.7857,0.0,0.0,0.0,0.0,0.0,3.1848,0.0,0.0,3.3489,3.4754,3.3976,3.3387,3.3105,3.3301,3.3632,3.4114,3.4708,3.4636,3.3903,3.3839,3.3364,0.0,3.2166,0.0,3.2632,0.0,3.2191,0.0,0.0,0.0,0.0,3.1667,3.1461,3.1151,3.0801,3.0898,3.1185,0.0,3.2714,0.0,0.0,0.0,0.0,0.0,0.0,0.0,0.0,0.0,0.0,0.0,0.0,0.0,3.1989,0.0,3.1716,0.0,0.0,0.0,0.0,0.0,0.0,0.0,3.2796,0.0,0.0,0.0,0.0,0.0,0.0,0.0,0.0,0.0,0.0,0.0,3.5436,3.4516,3.2818,3.1099,3.0143,3.0174,2.9007,2.8826,2.9792,3.0868,3.1954,3.304,3.5399,3.7462,3.926,4.0568,4.1715,4.2776,4.2776,4.3195,4.3888,4.4197,4.4706,4.5334,4.5738,4.6307,4.692,4.7204,4.7309,4.7309,2.5811,2.6454,2.6862,2.6251,2.6708,2.6876,2.5995,2.6414,2.7096,0.0,0.0,0.0,2.8463,3.0032,0.0,0.0,3.1802,3.3017,0.0,0.0,3.4809,0.0,0.0,0.0,0.0,3.4082,3.4316,3.4707,3.4781,3.4828,3.4812,3.4379,3.4157,0.0,0.0,3.3419,3.3632,0.0,3.3517,3.2188,3.3059,3.2773,3.1765,3.1343,3.119,3.1151,3.0699,3.0838,3.1182,3.1166,3.3002,0.0,3.4539,0.0,0.0,0.0,0.0,0.0,3.6142,0.0,0.0,0.0,0.0,0.0,0.0,0.0,0.0,0.0,0.0,0.0,0.0,0.0,0.0,0.0,0.0,3.2901,0.0,0.0,0.0,0.0,0.0,0.0,0.0,0.0,0.0,3.5525,3.5005,3.443,3.3782,3.1829,3.0987,3.1573,2.9846,2.9473,3.057,3.1389,3.2323,3.3389,3.5749,3.7548,3.8832,4.0112,4.1305,4.2396,4.2396,4.3,4.4062,4.4436,4.4751,4.511,4.5992,4.6621,4.7055,4.7234,4.7309,4.7309,2.4247,2.5623,2.6934,2.6147,2.6448,2.6797,2.6766,0.0,0.0,0.0,0.0,0.0,0.0,0.0,0.0,0.0,0.0,3.2359,3.5591,0.0,3.4336,0.0,0.0,3.5664,0.0,0.0,3.5527,3.4707,3.5349,3.5668,3.5642,3.5262,3.5066,3.5022,3.4433,3.3944,3.3647,3.4177,3.3855,3.3038,3.3856,3.3834,3.3186,0.0,3.119,3.119,3.1171,0.0,0.0,3.2827,3.3842,0.0,0.0,0.0,0.0,0.0,0.0,0.0,0.0,0.0,0.0,3.4662,0.0,0.0,0.0,0.0,3.1511,0.0,0.0,0.0,0.0,0.0,0.0,0.0,0.0,0.0,0.0,0.0,0.0,0.0,0.0,0.0,0.0,0.0,3.5315,3.558,3.6182,3.5532,3.3258,3.3595,3.3449,3.2558,3.1596,3.1559,3.25,3.1659,3.2286,3.4365,3.4481,3.6023,3.8818,3.8871,4.0178,4.2396,4.2396,4.2746,4.3424,4.4736,4.49,4.4481,4.5756,4.6294,4.6384,4.707,4.7309,4.7309,2.5903,2.6345,2.6563,2.579,0.0,0.0,0.0,2.9296,0.0,0.0,0.0,0.0,0.0,3.3121,3.3711,0.0,0.0,3.3906,3.5035,3.5937,0.0,0.0,0.0,3.7949,0.0,0.0,0.0,0.0,0.0,3.6379,3.7396,3.6068,3.6008,3.6972,0.0,3.5255,0.0,0.0,0.0,0.0,0.0,3.3845,3.4015,0.0,0.0,3.1938,3.1938,3.1938,0.0,3.2513,3.3812,3.5144,3.4741,3.5607,3.6705,3.6202,3.6419,0.0,0.0,0.0,3.4579,3.4043,0.0,0.0,0.0,0.0,0.0,0.0,0.0,0.0,0.0,0.0,0.0,0.0,0.0,0.0,0.0,0.0,0.0,0.0,0.0,0.0,0.0,0.0,0.0,3.4448,3.4416,3.4463,3.4694,3.4244,3.3842,3.3518,3.2629,3.2285,3.2593,3.289,3.3649,3.4804,3.589,3.7153,3.8531,3.8988,4.0144,4.1752,4.1752,4.2821,4.4661,4.511,4.5439,4.5693,4.61,4.6052,4.5723,4.6411,4.6935,4.7309,2.6903,2.6974,0.0,0.0,0.0,0.0,0.0,0.0,0.0,0.0,3.3056,0.0,3.331,0.0,3.4805,0.0,3.4941,3.5488,3.5176,3.707,0.0,3.6875,3.8809,0.0,0.0,0.0,0.0,0.0,0.0,3.7474,3.8715,3.692,3.6752,3.7954,0.0,3.6023,3.556,3.6919,3.6141,0.0,0.0,3.4472,0.0,0.0,3.3728,3.3055,0.0,3.2679,3.2733,3.2987,3.3886,3.4743,3.4084,3.471,3.5577,3.5068,3.5438,3.5987,3.5954,3.5126,0.0,3.3693,3.2524,0.0,3.1511,0.0,0.0,0.0,0.0,0.0,0.0,0.0,0.0,0.0,0.0,0.0,0.0,3.3209,0.0,0.0,0.0,0.0,0.0,0.0,3.1847,3.252,3.293,3.3503,0.0,0.0,3.4295,3.4543,3.3602,3.3276,3.3616,3.3891,3.4631,3.5862,3.6906,3.7883,3.8781,3.9454,4.0367,4.1384,4.1662,4.2955,4.496,4.52,4.5424,4.5633,4.5873,4.5678,4.5379,4.6067,4.6741,4.7309,2.7239,0.0,0.0,0.0,2.9742,0.0,0.0,0.0,3.3375,0.0,3.4214,3.4453,3.3613,3.5019,3.5664,3.4844,3.6328,3.6953,3.6113,3.8476,0.0,0.0,3.8555,3.8711,3.6172,0.0,0.0,0.0,0.0,0.0,3.9622,3.7763,3.7286,3.7959,3.7364,0.0,3.4802,3.6689,3.6451,3.4816,3.5373,3.5616,3.565,3.5616,3.5199,3.4506,3.3728,3.3457,3.3558,3.4252,3.4074,3.3679,3.4338,3.4087,3.3545,3.3516,3.4011,3.4566,3.4696,3.4125,3.3524,3.3699,0.0,0.0,0.0,0.0,3.1735,0.0,0.0,0.0,0.0,0.0,0.0,0.0,0.0,0.0,0.0,0.0,0.0,0.0,0.0,0.0,0.0,3.0897,3.0869,3.0121,3.1863,3.2766,0.0,0.0,3.4688,3.5344,3.4428,3.4394,3.5359,3.4461,3.5107,3.7291,3.7355,3.8093,3.9394,4.0083,4.0756,4.1452,4.2111,4.312,4.4407,4.5035,4.493,4.4421,4.505,4.5289,4.5394,4.6112,4.677,4.7309,2.8801,2.9474,3.0165,0.0,3.1367,3.1967,0.0,0.0,0.0,0.0,3.5483,3.5586,3.5351,3.5723,3.5918,3.5684,3.668,0.0,0.0,0.0,0.0,3.7988,3.9199,3.9277,3.7969,3.9004,0.0,3.9238,0.0,0.0,4.0447,3.8078,3.7235,3.77,0.0,3.6058,3.4479,3.6593,3.6761,3.5574,3.5596,3.596,0.0,0.0,3.5859,3.6034,3.4692,3.4218,3.4252,3.4438,3.4409,3.4257,3.3947,3.3391,3.294,3.3362,3.3622,3.3984,3.5029,3.4423,3.3623,3.4152,3.3276,3.2363,0.0,0.0,0.0,0.0,0.0,0.0,0.0,0.0,0.0,0.0,0.0,0.0,0.0,0.0,0.0,3.294,0.0,0.0,3.1023,3.0939,3.098,3.1171,3.1318,3.1824,0.0,0.0,0.0,3.3359,3.3101,3.3066,3.3359,3.3774,3.4533,3.5621,3.6842,3.7838,3.8691,3.9873,4.0756,4.1452,4.2111,4.3429,4.5065,4.5229,4.52,4.5065,4.5229,4.5289,4.5439,4.6621,4.716,4.7309,2.9642,0.0,0.0,3.2705,0.0,0.0,3.4682,0.0,0.0,3.5887,3.5948,0.0,3.5996,3.5996,3.6152,3.6543,3.7363,0.0,3.8418,0.0,0.0,3.9219,3.9277,3.8926,3.8047,3.8104,0.0,3.9336,0.0,0.0,4.0758,3.896,3.8122,3.8108,0.0,3.6756,3.5368,3.6358,3.6663,3.6423,3.5822,0.0,0.0,3.5769,3.5893,3.6163,3.5301,3.4979,3.4935,3.4656,3.4365,3.4062,3.3365,3.268,3.2294,3.3216,3.329,3.3365,3.4696,3.4292,3.3589,3.3979,3.3499,3.3036,3.341,3.2991,3.2706,0.0,0.0,0.0,0.0,0.0,0.0,0.0,0.0,0.0,0.0,0.0,0.0,0.0,3.2769,0.0,0.0,3.1227,3.0882,3.1315,3.1361,3.1891,0.0,0.0,0.0,3.3192,3.3508,3.3508,3.3206,3.4452,3.5292,3.5659,3.6837,3.7749,3.8452,4.0083,4.1025,4.1467,4.2387,4.3569,4.487,4.487,4.5035,4.5334,4.5618,4.5559,4.5454,4.6815,4.7309,4.7309,3.0045,0.0,0.0,0.0,0.0,0.0,0.0,3.6106,0.0,3.6015,0.0,3.606,3.6015,3.5996,3.6309,3.7051,0.0,3.8809,3.9668,4.0547,4.0742,4.0098,3.9101,3.8222,3.746,3.641,3.6778,0.0,0.0,0.0,4.0777,3.9953,3.9274,0.0,0.0,0.0,0.0,3.6226,3.645,3.705,3.6088,3.5694,3.5694,3.5622,3.56,3.56,3.56,3.56,3.5515,3.4918,3.4235,3.3495,3.2922,3.2221,3.1869,3.314,3.3155,3.3036,3.4309,3.4068,3.3514,3.3604,3.3499,3.338,3.3469,3.2991,3.2706,3.3365,3.3051,3.3199,0.0,0.0,0.0,0.0,0.0,0.0,0.0,0.0,0.0,0.0,0.0,0.0,0.0,0.0,3.1157,3.1258,3.1866,0.0,0.0,0.0,0.0,3.3794,3.4372,3.4444,3.3937,0.0,3.6294,3.6563,3.7112,3.7808,3.8586,4.0412,4.1332,4.1444,4.2671,4.3629,4.4332,4.4407,4.4781,4.5349,4.5963,4.5813,4.5454,4.6711,4.7234,4.7309,3.0482,0.0,0.0,0.0,0.0,3.5907,3.5974,3.7206,3.7617,3.6191,3.6621,3.6796,3.6074,3.5996,3.6055,3.6211,3.7012,0.0,0.0,0.0,0.0,4.0957,3.9346,3.8355,3.8219,3.6635,3.6643,0.0,0.0,0.0,4.0699,0.0,0.0,0.0,0.0,0.0,3.7331,3.6799,0.0,3.677,3.6402,3.6266,3.6224,3.5783,3.56,3.56,3.56,3.56,3.5577,3.547,3.4609,3.3582,3.3469,3.2931,3.2497,3.3275,3.3799,3.4307,3.5115,3.4427,3.3619,3.4204,3.3484,3.2826,3.3365,3.2991,3.2706,3.3365,3.3422,3.3611,3.4514,0.0,0.0,0.0,0.0,0.0,0.0,0.0,0.0,0.0,0.0,3.4089,0.0,0.0,0.0,0.0,0.0,0.0,0.0,0.0,0.0,0.0,3.2952,0.0,0.0,0.0,3.5285,3.6903,3.7253,3.8048,3.9275,4.0157,4.0876,4.1429,4.2231,4.321,4.4347,4.49,4.5185,4.5304,4.5424,4.5394,4.5394,4.6202,4.6845,4.7309,0.0,0.0,0.0,0.0,0.0,0.0,0.0,3.7109,0.0,3.6172,3.6325,3.642,3.6035,3.5996,3.6172,3.6621,3.7051,3.7851,3.9199,3.9668,3.9843,3.9757,3.8884,0.0,3.6414,3.5074,3.5457,3.7637,0.0,0.0,0.0,0.0,0.0,3.8995,0.0,3.8197,0.0,0.0,0.0,3.7896,3.7133,3.6643,3.6354,3.6118,3.5832,3.56,3.56,3.56,3.5538,3.5207,3.464,3.4062,3.371,3.363,3.3689,3.3949,3.4302,3.4714,3.5349,3.4517,3.3649,3.4339,3.3739,3.3095,3.3425,3.2991,3.2602,3.2916,3.357,3.4421,3.5448,3.653,0.0,0.0,0.0,0.0,0.0,0.0,0.0,0.0,0.0,0.0,0.0,0.0,0.0,0.0,0.0,0.0,0.0,0.0,0.0,0.0,0.0,0.0,0.0,0.0,0.0,3.6217,3.702,3.7749,3.8437,4.0127,4.1085,4.1429,4.2432,4.3225,4.3843,4.4885,4.5095,4.4885,4.5933,4.6127,4.5918,4.6591,4.704,4.7309,0.0,3.3049,0.0,0.0,3.6416,0.0,3.6366,3.6699,3.6777,3.6094,3.5949,3.5945,3.5996,3.5996,3.6289,3.6953,3.7012,3.7676,3.9258,3.9491,3.9309,3.8697,3.848,3.7311,3.5063,3.3735,3.4168,0.0,0.0,0.0,0.0,0.0,0.0,0.0,0.0,0.0,0.0,0.0,3.7866,3.8917,3.7792,3.7039,3.656,3.6437,3.6071,3.56,3.56,3.56,3.5515,3.4988,3.4712,3.4536,3.4165,3.4432,3.4925,3.4971,3.5063,3.5198,3.5441,3.4527,3.3593,3.398,3.3559,3.308,3.308,3.2677,3.2273,3.2273,3.3454,3.4895,3.6229,3.71,0.0,0.0,0.0,0.0,0.0,0.0,0.0,0.0,0.0,0.0,3.3377,0.0,0.0,0.0,0.0,0.0,0.0,0.0,0.0,0.0,0.0,3.5319,3.4956,0.0,3.6432,3.6342,3.706,3.7554,3.7913,4.0008,4.1115,4.1482,4.2476,4.32,4.3783,4.4721,4.4945,4.4885,4.6322,4.6651,4.6339,4.6905,4.7189,4.7309,0.0,0.0,0.0,0.0,0.0,0.0,3.7187,3.6582,3.6094,3.6016,3.5996,3.5996,3.5996,3.5996,3.6035,3.6113,3.6113,3.6523,3.748,3.8169,3.885,3.955,3.87,3.7729,3.6692,3.4206,3.3429,0.0,0.0,0.0,0.0,0.0,0.0,0.0,0.0,0.0,0.0,3.8276,3.8609,3.8687,3.8085,3.7542,3.7058,3.66,3.6071,3.56,3.56,3.56,3.56,3.5515,3.5098,3.4707,3.5317,3.5548,3.5742,3.6386,3.6554,3.6375,3.5744,3.4577,3.3374,3.2811,3.2168,3.169,3.169,3.1645,3.1585,3.1585,3.271,3.4127,3.5545,3.6387,3.7041,0.0,0.0,0.0,0.0,0.0,0.0,0.0,0.0,0.0,0.0,3.2759,0.0,0.0,3.3698,0.0,0.0,0.0,0.0,3.6257,0.0,3.7431,3.7988,3.6996,3.7345,3.9,3.7928,3.8048,3.9209,3.9448,4.0247,4.1384,4.1504,4.291,4.508,4.4601,4.508,4.6097,4.5648,4.5828,4.6294,4.6354,4.68,4.7309,0.0,0.0,0.0,0.0,0.0,0.0,0.0,3.6211,3.5996,3.5996,3.5996,3.5996,3.5996,3.5996,3.5996,3.5996,3.5996,3.6367,3.7246,3.7543,3.7802,3.808,3.7659,3.6751,3.5301,3.408,3.3616,0.0,0.0,0.0,0.0,0.0,0.0,0.0,0.0,3.7918,3.8212,3.8046,3.8267,3.8692,3.8465,3.8065,3.7596,3.7379,3.6788,3.6075,3.6075,3.6075,3.6032,3.5717,3.5407,3.5258,3.5559,3.627,3.6993,3.6783,3.7042,3.7193,3.6451,3.524,3.4101,3.3841,3.3244,3.268,3.2244,3.2176,3.2035,3.1582,3.2963,3.4552,3.5514,3.6649,3.7227,0.0,0.0,0.0,0.0,0.0,0.0,0.0,0.0,0.0,0.0,3.3297,3.358,0.0,0.0,0.0,0.0,0.0,0.0,3.6462,0.0,3.6582,3.724,3.6357,3.6492,3.7659,3.7479,3.7898,3.8841,4.0053,4.1309,4.2551,4.2551,4.3374,4.4721,4.484,4.5454,4.6294,4.6456,4.6666,4.692,4.692,4.7085,4.7309,3.3024,0.0,3.594,0.0,3.6805,3.704,3.6465,3.6152,3.5996,3.5996,3.5996,3.5996,3.5996,3.5975,3.5975,3.5996,3.5975,3.6227,3.6852,3.704,3.71,3.6973,3.6895,0.0,3.4629,3.4072,3.3664,3.3413,3.5418,0.0,0.0,0.0,0.0,0.0,3.7386,3.7734,3.8322,3.7991,3.8175,3.8707,3.8707,3.8382,3.7893,3.7893,3.736,3.6603,3.6457,3.6395,3.6333,3.5963,3.5739,3.5633,3.5893,3.6705,3.7506,3.7153,3.7269,3.738,3.6875,3.5685,3.46,3.46,3.427,3.375,3.3033,3.3052,3.301,3.2274,3.3655,3.5068,3.5325,3.659,3.7283,3.6406,0.0,0.0,0.0,0.0,0.0,0.0,3.5104,3.4703,3.3288,3.4058,3.4496,0.0,0.0,0.0,0.0,0.0,0.0,0.0,0.0,0.0,0.0,3.6492,3.6582,3.7045,3.7479,3.8153,3.9035,4.0883,4.2162,4.306,4.32,4.3768,4.4631,4.4885,4.5633,4.6636,4.692,4.713,4.7309,4.7309,4.7309,4.7309,3.3155,3.4533,3.5853,3.6998,3.7259,3.7305,3.7285,3.6543,3.5996,3.5996,3.5996,3.5996,3.5996,3.5945,3.5939,3.5996,3.5944,3.5903,3.5923,3.6604,3.6977,0.0,0.0,3.6315,3.55,3.4378,3.338,3.2515,0.0,0.0,3.4816,0.0,3.853,3.7566,3.9163,3.898,3.7566,3.8358,3.8689,3.8707,3.8707,3.8382,3.7893,3.7893,3.7614,3.7133,3.66,3.6395,3.6395,3.6395,3.6032,3.5735,3.6518,3.6795,3.6965,3.7662,3.7381,3.6824,3.6812,3.5721,3.4628,3.4687,3.4707,3.4472,3.3758,3.4168,3.4472,3.3742,3.4706,3.5465,3.4765,3.582,3.7066,3.7746,0.0,0.0,0.0,0.0,0.0,0.0,3.628,3.6165,3.4621,3.4603,0.0,0.0,0.0,0.0,0.0,0.0,0.0,3.6462,3.7704,0.0,3.7404,3.8033,3.8362,3.8362,3.8377,3.908,4.0427,4.1782,4.2396,4.244,4.3045,4.4077,4.5229,4.4586,4.5499,4.7234,4.6591,4.6741,4.7309,4.7309,4.7309,4.7309,3.3551,3.4822,3.5822,3.6237,3.6812,3.7041,3.6504,3.6172,3.5996,3.5996,3.5996,3.5975,3.5942,3.591,3.5908,0.0,3.5821,3.5764,0.0,3.5947,3.6038,3.6017,3.5926,3.5674,3.525,3.4697,3.3893,3.2837,0.0,0.0,0.0,3.8135,3.8346,3.7492,3.7474,3.7474,3.7529,3.7768,3.7878,3.7933,3.8487,3.8611,3.8449,3.8449,3.8133,3.7614,3.7116,3.696,3.6825,3.6097,3.5968,3.6127,3.6005,3.6349,3.6948,3.7686,3.7736,3.7655,3.8176,3.7582,3.6729,3.6252,3.652,3.6431,3.4677,3.4115,3.388,3.3656,3.4315,3.488,3.4649,3.5362,3.6062,3.6276,3.6131,0.0,0.0,0.0,0.0,0.0,3.5418,3.4927,0.0,3.4354,0.0,0.0,0.0,0.0,0.0,0.0,0.0,0.0,3.7105,0.0,3.8078,3.7838,3.7943,3.8392,3.8392,3.9334,4.11,4.2006,4.2635,4.303,4.32,4.4077,4.5274,4.5065,4.5903,4.7279,4.707,4.7115,4.7309,4.7309,4.7309,4.7309,3.3545,3.461,3.5359,3.5408,3.5862,3.6054,3.5586,3.5508,3.5625,3.5957,3.5975,3.5947,3.5905,3.5824,0.0,3.5812,3.5726,3.5667,3.5667,3.5616,3.5585,3.5568,3.5522,3.5376,3.5105,0.0,0.0,3.3455,3.5034,3.6248,3.707,3.7863,3.7988,3.7474,3.6978,3.6868,3.7052,3.7052,3.7217,3.7547,3.8046,3.8432,3.8707,3.8707,3.8481,3.815,3.7632,3.7341,3.715,3.6766,3.659,3.6573,3.6676,3.6956,3.7246,3.7432,3.7483,3.7702,3.8717,3.8464,3.7872,3.7675,3.7973,3.7877,3.6217,3.5452,3.4945,3.4448,3.506,3.5528,3.5062,3.5574,3.6146,3.6411,3.6248,3.6163,3.6411,0.0,0.0,0.0,0.0,0.0,0.0,3.5678,3.6273,0.0,0.0,0.0,0.0,0.0,0.0,3.7935,3.7491,0.0,3.8489,3.8522,3.8616,3.8781,3.9529,4.0569,4.1811,4.2432,4.294,4.329,4.329,4.4077,4.5289,4.5289,4.6082,4.7309,4.7309,4.7309,4.7309,4.7309,4.7309,4.7309,3.3246,3.3945,0.0,0.0,3.4553,0.0,3.4609,3.4668,3.498,3.5801,3.5906,3.59,3.5898,3.571,3.5616,3.5678,0.0,0.0,0.0,3.5595,3.5568,3.5507,3.5486,3.5354,3.5079,3.4803,3.4508,3.4164,3.4726,3.5445,3.6321,3.7125,3.7529,3.7584,3.7474,3.6997,3.6303,3.6229,3.6633,3.7345,3.7456,3.7936,3.8615,3.8689,3.8707,3.8627,3.8099,3.7667,3.7424,3.8053,3.7658,3.7126,3.8217,3.8248,3.7787,3.7151,3.6948,3.7269,3.8684,3.8582,3.821,3.8836,3.8969,3.8756,3.8211,3.7779,3.7176,3.6031,3.6658,3.7073,3.5948,3.6304,3.7032,3.7719,3.7246,3.7032,3.7652,0.0,0.0,0.0,0.0,0.0,0.0,3.8132,3.8937,0.0,0.0,0.0,0.0,0.0,3.9047,3.8946,3.8701,3.8671,3.891,4.0076,4.0295,3.9571,4.1437,4.2336,4.2351,4.3015,4.329,4.329,4.329,4.4077,4.5289,4.5289,4.6082,4.7309,4.7309,4.7309,4.7309,4.7309,4.7309,4.7309,0.0,0.0,3.3763,3.4468,3.4044,3.3629,3.3691,3.4277,3.4766,3.498,3.5535,3.5869,3.5761,3.5666,3.5599,3.5552,3.5528,3.5528,3.5528,3.5528,3.5528,3.55,3.5304,3.507,3.4793,3.4478,3.4171,3.3889,3.4642,3.5445,3.6321,3.7125,3.7841,3.8358,3.7129,3.6468,3.6266,3.5591,3.5426,3.5701,3.6982,3.7621,3.786,3.8469,3.8707,3.8627,3.8099,3.822,3.8546,3.7912,3.7945,3.8222,3.8099,3.8007,3.799,3.8362,3.8464,3.8691,3.9605,3.9723,3.9503,3.9089,3.8406,3.8229,3.9707,3.8593,3.7349,3.7672,3.7161,3.6734,3.7004,3.6921,3.6863,3.7032,3.6914,3.666,3.6208,3.6366,0.0,0.0,3.7347,3.7838,3.7669,3.7956,3.8396,0.0,0.0,0.0,0.0,4.1806,4.1979,3.9576,3.9993,4.0492,4.0981,4.2532,4.262,4.1232,4.1526,4.1647,4.1692,4.2806,4.329,4.329,4.329,4.4077,4.5289,4.5289,4.6082,4.7309,4.7309,4.7309,4.7309,4.7309,4.7309,4.7309,3.3236,3.3612,3.3769,3.3539,3.3062,3.273,3.2831,3.3242,3.3828,3.4564,3.5,3.5368,3.5628,3.5595,3.5547,3.5507,3.55,3.55,3.55,3.55,3.55,3.55,3.5239,3.4972,3.4723,3.4368,3.408,3.3807,3.4619,3.5243,3.5734,3.656,3.6964,3.6967,3.6101,3.5495,3.5128,3.4651,3.4656,3.5078,3.5991,3.6817,3.7547,3.7988,3.8377,3.8627,3.8099,3.8258,3.8664,3.8161,3.8365,3.8836,3.889,3.8903,3.8922,3.8933,3.8714,3.8597,3.9358,3.9542,3.9596,3.9832,3.894,3.8512,4.0297,3.9622,3.8684,3.8901,3.8555,3.8161,3.8065,3.7838,3.7598,3.7326,3.7032,3.6778,3.6671,3.6738,0.0,3.7246,3.7956,3.8531,3.887,3.9208,3.9715,4.0443,4.1225,0.0,4.1449,4.2553,4.2427,4.0761,4.1367,4.2069,4.2805,4.3621,4.3725,4.3175,4.2289,4.1983,4.2282,4.2701,4.3045,4.329,4.329,4.4077,4.5289,4.5289,4.6082,4.7309,4.7309,4.7309,4.7309,4.7309,4.7309,4.7309,3.3398,3.3957,3.3948,3.2461,3.2002,3.1877,3.1992,3.2109,3.271,3.4206,3.4433,3.4769,3.5524,3.5547,3.55,3.55,3.55,3.55,3.55,3.55,3.55,3.55,3.5207,3.4935,3.4694,3.4334,3.4031,3.3807,3.4472,3.4876,3.5023,3.5771,3.5789,3.5188,3.5059,3.4619,3.3972,3.3844,3.4266,3.499,3.493,3.5831,3.7219,3.7269,3.7768,3.8435,3.809,3.8255,3.8662,3.8729,3.9077,3.9576,4.0104,4.0189,3.995,3.9143,3.8292,3.7753,3.8422,3.8662,3.9132,4.0664,4.0003,3.9346,4.0788,4.0775,4.0348,4.0064,4.0163,4.0053,3.9249,3.8981,3.8708,3.8261,3.7587,3.732,3.7838,0.0,3.7422,3.8142,3.8886,3.9614,4.0367,4.1001,4.1627,4.2236,4.2309,4.2542,4.3045,4.2514,4.2157,4.1983,4.2603,4.349,4.4632,4.3928,4.4016,4.4849,4.3213,4.2656,4.3125,4.2716,4.2821,4.3305,4.3409,4.4167,4.5304,4.5409,4.6187,4.7309,4.7309,4.7309,4.7309,4.7309,4.7309,4.7309,3.3398,3.3496,3.3281,3.2363,3.1562,3.1073,3.1094,3.1634,3.24,3.3362,3.3994,3.4667,3.5514,3.5547,3.55,3.55,3.55,3.55,3.55,3.55,3.55,3.55,3.5035,3.4734,3.4694,3.4148,3.3842,3.3807,3.3935,3.4325,3.5004,3.5151,3.5518,3.6064,3.5334,3.4931,3.4766,3.41,3.4266,3.4976,3.4636,3.5059,3.5931,3.6146,3.6738,3.7503,3.8049,3.9104,4.0179,3.9681,4.0475,4.1557,4.1146,4.0591,3.9946,3.9153,3.7909,3.6847,3.7062,3.7628,3.8697,4.1054,4.099,4.0801,4.2632,4.1968,4.1144,4.1751,4.1051,4.0437,4.0898,4.0243,3.9598,3.9525,3.9027,3.8481,3.7973,0.0,3.892,3.9656,4.0426,4.1153,4.188,4.2049,4.2168,4.2286,4.2712,4.2715,4.2141,4.3671,4.389,4.2357,4.3181,4.4737,4.7029,4.4085,4.3466,4.5136,4.328,4.2455,4.256,4.297,4.32,4.3319,4.3888,4.4586,4.5334,4.5918,4.6621,4.7309,4.7309,4.7309,4.7309,4.7309,4.7309,4.7309,3.3398,3.3398,3.3008,3.1719,3.1172,3.0878,3.0794,3.1076,3.175,3.2989,3.34,3.4104,3.5397,3.5509,3.5308,3.4834,3.4795,3.4795,3.4795,3.5231,3.55,3.55,3.5122,3.486,3.4694,3.4099,3.3863,3.4006,3.344,3.3555,3.4344,3.3903,3.4142,3.4945,3.4527,3.4344,3.4325,3.3729,3.368,3.4018,3.4004,3.4451,3.5237,3.574,3.6711,3.7805,3.786,3.8839,4.0092,3.9941,4.0681,4.1554,4.1194,4.0636,3.9844,3.8591,3.7169,3.607,3.6126,3.6448,3.7311,3.9623,4.0135,4.0602,4.2612,4.2719,4.2506,4.2873,4.2444,4.1942,4.166,4.1202,4.0555,3.9547,3.9149,0.0,0.0,3.9123,3.9868,4.0586,4.1339,4.2083,4.2828,4.3267,4.369,4.4096,4.3833,4.3848,4.435,4.391,4.3648,4.367,4.4108,4.4898,4.6099,4.4508,4.4108,4.4944,4.3244,4.259,4.288,4.2836,4.3,4.3334,4.3992,4.4691,4.5349,4.6037,4.6711,4.7309,4.7309,4.7309,4.7309,4.7309,4.7309,4.7309,3.3125,3.3125,3.2656,3.1152,3.0722,3.0601,3.0699,3.0503,3.0915,3.2502,3.2701,3.3261,3.4725,3.4904,3.4641,3.3955,3.3898,3.3898,3.3898,3.4718,3.5288,3.5481,3.519,3.4794,3.4329,3.3969,3.381,3.382,3.2999,3.3005,3.377,3.2968,3.3036,3.3807,3.4009,3.3972,3.378,3.356,3.347,3.3478,3.3472,3.3952,3.4745,3.5335,3.6556,3.7933,3.7664,3.8544,3.9838,4.0238,4.0941,4.169,4.1594,4.0995,4.0046,3.8603,3.6692,3.5168,3.5516,3.5529,3.6017,3.8239,3.924,4.0149,4.2058,4.2809,4.3105,4.3105,4.3251,4.31,4.2225,4.2088,4.1658,4.0195,0.0,0.0,0.0,4.024,4.0959,4.188,4.2472,4.3183,4.4113,4.4739,4.5331,4.5906,4.4965,4.486,4.6094,4.3913,4.318,4.4419,4.4434,4.4548,4.4812,4.4548,4.4548,4.4759,4.3296,4.2851,4.329,4.297,4.309,4.3559,4.4421,4.5065,4.5589,4.6277,4.686,4.7309,4.7309,4.7309,4.7309,4.7309,4.7309,4.7309,3.2285,3.2285,3.1992,3.1055,3.0171,2.9844,3.0599,2.9905,2.9919,3.166,3.1841,3.2134,3.3006,3.3083,3.3064,3.3006,3.3006,3.3006,3.3006,3.3814,3.4661,3.5462,3.5018,3.4225,3.3146,3.3579,3.3435,3.2713,3.2632,3.3005,3.377,3.2968,3.3036,3.3825,3.4582,3.4491,3.3817,3.4177,3.43,3.4238,3.3388,3.3546,3.4272,3.4523,3.5552,3.6995,3.7638,3.8824,4.018,4.0891,4.2066,4.324,4.3236,4.22,4.0854,4.0073,3.6876,3.394,3.5259,3.5184,3.5416,3.8141,3.9312,4.0162,4.1552,4.1895,4.1937,4.1937,4.2466,4.292,4.2833,4.2975,4.3051,4.2901,0.0,0.0,4.2049,4.21,4.2675,4.4175,4.4412,4.5004,4.6397,4.6599,4.665,4.6701,4.5669,4.5067,4.52,4.3966,4.3284,4.3409,4.3409,4.3849,4.4774,4.3888,4.3888,4.4774,4.3726,4.3245,4.3319,4.3913,4.4197,4.4317,4.5577,4.616,4.6264,4.6965,4.7264,4.7309,4.7309,4.7309,4.7309,4.7309,4.7309,4.7309,3.1279,3.13,3.1042,3.0121,2.9228,2.8894,2.9657,2.9454,2.9818,3.1527,3.1715,3.2006,3.2814,3.2891,3.2699,3.2199,3.216,3.216,3.216,3.2929,3.3776,3.4661,3.4181,3.3535,3.2778,3.2627,3.273,3.3103,3.1942,3.2031,3.3284,3.2311,3.2284,3.3091,3.3885,3.41,3.378,3.3706,3.3479,3.3212,3.3052,3.3279,3.3768,3.4287,3.5475,3.6943,3.7997,3.9376,4.0961,4.3064,4.4101,4.4672,4.5113,4.362,4.1231,3.8698,3.6793,3.5566,3.5638,3.52,3.5047,3.6558,3.8389,4.0053,4.1026,4.1534,4.1934,4.2391,4.2709,4.293,4.3051,4.352,4.3776,4.3372,0.0,4.3735,4.3735,4.4113,4.4621,4.5213,4.5669,4.6177,4.6735,4.7208,4.7479,4.7479,4.696,4.6663,4.6663,4.5091,4.3966,4.3329,4.329,4.3683,4.4455,4.3683,4.3683,4.4455,4.3683,4.3499,4.3943,4.4856,4.5507,4.599,4.7558,4.7858,4.7262,4.7935,4.7876,4.7309,4.7309,4.7309,4.7309,4.7309,4.7309,4.7309,2.9881,2.9923,2.9759,2.9109,2.8249,2.7922,2.8698,2.8808,2.9294,3.0691,3.1121,3.1506,3.2045,3.2122,3.1891,3.1346,3.1288,3.1288,3.1288,3.2064,3.3026,3.4148,3.3506,3.2828,3.2203,3.1996,3.212,3.2619,3.1505,3.1674,3.2985,3.217,3.221,3.3005,3.3825,3.4045,3.378,3.3633,3.3169,3.2538,3.2875,3.3022,3.3152,3.4117,3.5416,3.6841,3.8217,3.9643,4.1273,4.4021,4.5073,4.5381,4.6027,4.4341,4.1577,3.8605,3.7554,3.7224,3.6724,3.6416,3.6304,3.6452,3.8028,3.9743,4.0483,4.1134,4.1765,4.2271,4.2736,4.3186,4.3571,4.425,4.4692,4.4518,4.4925,4.5309,4.5309,4.572,4.6126,4.6363,4.6836,4.7242,4.7462,4.7953,4.8257,4.8257,4.7846,4.7473,4.7172,4.5649,4.4564,4.4059,4.3538,4.3708,4.4616,4.3723,4.3618,4.4302,4.3813,4.3988,4.4672,4.559,4.6427,4.7246,4.863,4.9008,4.8638,4.8746,4.8403,4.7722,4.7424,4.7309,4.7309,4.7309,4.7309,4.7309,2.8097,2.8097,2.8097,2.8097,2.731,2.6986,2.7857,2.7928,2.8184,2.8992,2.9852,3.0385,3.0385,3.0404,3.0404,3.0404,3.0404,3.0404,3.0404,3.1212,3.2449,3.4109,3.3088,3.2122,3.1318,3.1804,3.1695,3.0894,3.1503,3.2192,3.2987,3.2723,3.3023,3.3825,3.4637,3.4546,3.3817,3.4232,3.3669,3.2538,3.2857,3.2735,3.2483,3.3935,3.5279,3.6606,3.814,3.9511,4.0951,4.3311,4.4585,4.5278,4.5667,4.4189,4.2021,4.0466,3.9306,3.8533,3.8516,3.9089,3.9428,3.8303,3.853,3.9216,3.9943,4.0679,4.1221,4.1221,4.2378,4.3629,4.4451,4.5213,4.5928,4.6684,4.6802,4.6819,4.6819,4.6802,4.709,4.7804,4.7889,4.8206,4.8934,4.9001,4.9001,4.9001,4.8161,4.7205,4.6244,4.5322,4.5106,4.5703,4.4143,4.3973,4.5274,4.3988,4.3633,4.4332,4.4332,4.4661,4.5334,4.6007,4.6849,4.7865,4.8531,4.9416,5.032,4.9256,4.8825,4.8702,4.7679,4.7294,4.7294,4.7309,4.7309,4.7309,2.7122,2.7126,2.7092,2.7054,2.6307,2.601,2.6877,2.6997,2.7294,2.8145,2.8986,2.9486,2.9486,3.0079,3.0442,3.0396,3.0446,3.0712,3.1281,3.0981,3.1269,3.2391,3.1929,3.1253,3.0406,3.0548,3.0747,3.0968,3.0537,3.0947,3.2151,3.1875,3.2192,3.2986,3.3807,3.4027,3.3807,3.3922,3.3593,3.3001,3.3108,3.3173,3.3261,3.3697,3.4769,3.6182,3.7259,3.9187,4.1528,4.3398,4.4755,4.5576,4.5001,4.451,4.3685,4.1495,4.1014,4.1005,4.0256,4.0284,4.021,3.8894,3.9885,4.1119,4.0917,4.1441,4.2117,4.2642,4.2981,4.3426,4.4235,4.4863,4.5358,4.5553,4.6585,4.7367,4.7367,4.7922,4.8426,4.8663,4.868,4.8765,4.8984,4.9001,4.9001,4.9001,4.875,4.8193,4.7239,4.7405,4.7323,4.6829,4.6344,4.5968,4.5725,4.4584,4.4347,4.5005,4.5005,4.5364,4.6022,4.6935,4.8202,4.9668,5.059,5.1155,5.1431,5.1101,5.0573,4.9813,4.8759,4.8335,4.8252,4.7581,4.7309,4.7309,2.603,2.609,2.6123,2.6092,2.5654,2.5481,2.6,2.639,2.6794,2.7313,2.8404,2.9134,2.9134,2.998,3.052,3.0451,3.0447,3.0678,3.1141,3.0692,3.0635,3.1154,3.1021,3.0692,3.0176,3.0042,3.0194,3.0595,3.0555,3.0983,3.1808,3.2189,3.2614,3.3096,3.3587,3.3972,3.4252,3.3935,3.3747,3.365,3.3325,3.319,3.3209,3.3493,3.4516,3.59,3.6858,3.865,4.0781,4.2235,4.3515,4.4492,4.4417,4.4173,4.362,4.2357,4.2045,4.196,4.1316,4.1186,4.0993,3.9896,4.0693,4.1654,4.1264,4.1999,4.278,4.2898,4.3276,4.3715,4.4137,4.47,4.5211,4.5482,4.6709,4.7589,4.7589,4.8401,4.9001,4.9001,4.9001,4.9001,4.9001,4.9001,4.9001,4.9001,4.9272,4.9053,4.821,4.8498,4.8438,4.785,4.7187,4.6868,4.6847,4.5778,4.5263,4.5289,4.5289,4.5798,4.6711,4.7722,4.8984,5.0451,5.1467,5.2153,5.2505,5.2065,5.1541,5.0855,4.9376,4.8784,4.8677,4.7694,4.7309,4.7309,2.4986,2.5141,2.5269,2.5269,2.5298,2.5308,2.5308,2.5962,2.6486,2.6501,2.7941,2.8977,2.8985,2.9888,3.0461,3.0391,3.0397,3.0404,3.0404,3.0404,3.0404,3.0404,3.0404,3.0398,3.0361,3.011,2.9991,2.9977,3.1128,3.1727,3.1786,3.3165,3.3844,3.3917,3.399,3.438,3.4949,3.4229,3.4089,3.4292,3.3638,3.3052,3.2705,3.3522,3.4606,3.5796,3.6826,3.806,3.9373,4.0519,4.1554,4.2592,4.3816,4.3342,4.2429,4.2903,4.242,4.1718,4.1611,4.1564,4.1429,4.1001,4.1049,4.1227,4.1279,4.2506,4.3412,4.2651,4.3493,4.4347,4.4212,4.461,4.5174,4.5829,4.6815,4.7473,4.7473,4.837,4.9001,4.9001,4.9001,4.9001,4.9001,4.9001,4.9001,4.9001,4.9678,4.9796,4.9137,4.9059,4.8942,4.8843,4.7468,4.7303,4.8416,4.746,4.6471,4.553,4.548,4.6127,4.7337,4.8335,4.9376,5.0451,5.1467,5.2505,5.3416,5.2435,5.2029,5.1849,4.9876,4.9013,4.8825,4.7807,4.7381,4.7309,2.4842,2.4962,2.5077,2.5077,2.5203,2.5308,2.5308,2.5462,2.5592,2.5646,2.6587,2.7264,2.7314,2.8773,2.9662,2.9496,3.0039,3.0404,3.0404,3.0404,3.0404,3.0404,3.0404,3.0305,3.0089,3.0028,2.9924,2.9773,3.0505,3.1069,3.1532,3.3075,3.4137,3.4766,3.5459,3.5477,3.5004,3.4821,3.4431,3.3959,3.4434,3.4158,3.3682,3.5159,3.5911,3.6228,3.688,3.8343,4.0129,4.122,4.1902,4.2371,4.2646,4.2723,4.254,4.183,4.1484,4.1141,4.0249,3.9647,3.9564,4.0637,4.105,4.1366,4.1943,4.369,4.5139,4.4995,4.4926,4.492,4.4909,4.4231,4.373,4.392,4.54,4.6488,4.6488,4.7933,4.9001,4.9001,4.9001,4.9001,4.9001,4.9001,4.9001,4.9001,4.9678,5.0016,4.9864,5.092,5.1244,5.0672,5.086,5.0491,4.9487,4.926,4.8504,4.7256,4.7,4.7025,4.7337,4.8335,4.9376,5.0451,5.1467,5.2505,5.3467,5.323,5.3144,5.3025,5.1724,5.0725,4.9931,4.8882,4.7988,4.7309,2.4654,2.4799,2.4911,2.4992,2.5088,2.5198,2.5298,2.5308,2.5313,2.5352,2.6149,2.6703,2.6751,2.8364,2.9547,2.9806,3.018,3.0404,3.0404,3.0404,3.0404,3.0404,3.0292,3.0334,3.0601,3.0402,3.0047,2.957,3.0511,3.1322,3.2008,3.361,3.4821,3.5628,3.6101,3.6046,3.5591,3.5188,3.4766,3.4399,3.4839,3.4747,3.4509,3.5807,3.678,3.7442,3.7467,3.8338,3.9572,4.0249,4.0585,4.084,4.1432,4.159,4.1439,4.1152,4.0608,3.9973,3.9378,3.8721,3.8487,3.9648,4.0591,4.1486,4.2581,4.4333,4.5571,4.5169,4.5466,4.5643,4.5218,4.4538,4.4167,4.4615,4.5545,4.6365,4.6815,4.7688,4.8321,4.8321,4.795,4.7655,4.7655,4.808,4.8488,4.8839,4.9963,5.0625,5.0625,5.1691,5.1961,5.1202,5.1589,5.1512,5.0994,5.0517,5.0089,4.9745,4.8755,4.8219,4.8072,4.9069,4.9852,5.0451,5.1467,5.2505,5.3467,5.2956,5.3025,5.3348,5.1776,5.0855,5.0281,4.9191,4.8183,4.7309,2.4452,2.4607,2.4792,2.4937,2.4986,2.5077,2.5269,2.5308,2.5293,2.5317,2.5998,2.6547,2.6698,2.8304,2.9606,3.0217,3.0358,3.0404,3.0404,3.0404,3.0373,3.0323,3.0256,3.0514,3.1176,3.092,3.0482,2.9812,3.1027,3.2027,3.2839,3.4454,3.5665,3.6505,3.6652,3.6633,3.645,3.5591,3.5151,3.5023,3.5169,3.5133,3.5133,3.6266,3.7533,3.8664,3.839,3.8633,3.9091,3.9163,3.9174,3.9357,4.0418,4.0449,4.0154,4.047,3.9775,3.8854,3.8591,3.806,3.7793,3.8672,3.997,4.1427,4.3025,4.4705,4.5681,4.4942,4.5806,4.6471,4.5721,4.529,4.5264,4.5869,4.6208,4.671,4.7436,4.767,4.777,4.777,4.6846,4.6208,4.6208,4.6918,4.7651,4.8389,5.0009,5.1007,5.1141,5.1998,5.2164,5.1388,5.1539,5.1826,5.23,5.161,5.1593,5.2153,5.0774,4.9652,4.8825,4.9931,5.0281,5.0165,5.1192,5.217,5.2886,5.201,5.217,5.2817,5.1245,5.055,5.0281,4.9191,4.8183,4.7309,2.4266,2.441,2.4599,2.4785,2.4911,2.5077,2.5269,2.5308,2.5331,2.5376,2.5499,2.5883,2.6704,2.8244,2.9263,2.936,2.9992,3.0404,3.0404,3.0404,3.0299,3.0068,3.075,3.0995,3.0708,3.1315,3.157,3.1477,3.2121,3.2852,3.3678,3.533,3.656,3.7364,3.8065,3.7991,3.729,3.6468,3.5697,3.5078,3.5826,3.5665,3.5261,3.7499,3.8505,3.881,3.9605,4.019,4.0533,4.0099,3.996,3.9977,4.0145,4.0171,3.9978,3.9335,3.9026,3.8619,3.7261,3.6843,3.7105,3.8526,3.9546,4.0723,4.2914,4.5094,4.6621,4.6499,4.6995,4.7408,4.7308,4.6562,4.5798,4.5079,4.633,4.7384,4.7342,4.7983,4.8494,4.8528,4.7154,4.6208,4.6208,4.6314,4.6654,4.7357,4.9024,5.0234,5.0828,5.242,5.2976,5.2181,5.2841,5.2909,5.2317,5.2842,5.3196,5.3264,5.3043,5.1496,4.8825,4.9931,4.9891,4.9069,5.0165,5.0681,5.0795,5.0665,5.0665,5.0871,5.1467,5.1171,5.0281,4.9191,4.8183,4.7309,2.441,2.4435,2.4551,2.4768,2.4849,2.4974,2.5259,2.5308,2.5308,2.5348,2.5337,2.5509,2.5917,2.7464,2.884,2.979,3.0194,3.0615,3.1096,3.1135,3.1277,3.1608,3.1743,3.192,3.2168,3.2217,3.2465,3.2927,3.2697,3.3005,3.3825,3.5018,3.6028,3.685,3.7202,3.689,3.6083,3.572,3.5078,3.4399,3.5224,3.5628,3.5954,3.7955,3.9258,4.0185,4.1216,4.1515,4.1313,4.075,4.0343,4.0096,4.0096,4.0096,4.002,3.9662,3.9262,3.8756,3.8072,3.7571,3.7644,3.9194,4.0111,4.128,4.3553,4.5483,4.6786,4.6786,4.7645,4.837,4.837,4.7622,4.7036,4.7154,4.7389,4.7919,4.8729,4.825,4.7425,4.6363,4.5585,4.4994,4.4624,4.5101,4.5872,4.6957,4.7886,4.929,5.1309,5.1818,5.2335,5.2926,5.3315,5.3331,5.2976,5.3331,5.3501,5.3501,5.3501,5.217,4.9694,5.0165,4.9813,4.8825,4.9296,4.9852,5.0358,4.9734,4.9852,5.0435,5.0892,5.0779,5.0204,4.8569,4.7679,4.7309]}]]